<?xml version="1.0" encoding="UTF-8" standalone="no" ?>
<gpx xmlns="http://www.topografix.com/GPX/1/1" xmlns:xsi="http://www.w3.org/2001/XMLSchema-instance" xsi:schemaLocation="http://www.topografix.com/GPX/1/1 http://www.topografix.com/GPX/1/1/gpx.xsd" version="1.1" creator="VisuGPX - https://www.visugpx.com">
  <metadata>
    <name>2025-01-11  Randonnée TwoNav</name>
    <desc><![CDATA[2025-01-11_112602.trk]]></desc>
  </metadata>
  <trk>
    <name><![CDATA[2025-01-11  Randonnée TwoNav_1]]></name>
    <trkseg>
      <trkpt lat="48.2199" lon="6.61014">
        <ele>359.1</ele>
        <time>2025-01-11T10:26:14Z</time>
      </trkpt>
      <trkpt lat="48.2199" lon="6.61014">
        <ele>359.1</ele>
        <time>2025-01-11T10:26:14Z</time>
      </trkpt>
      <trkpt lat="48.21988" lon="6.61012">
        <ele>359.3</ele>
        <time>2025-01-11T10:26:15Z</time>
      </trkpt>
      <trkpt lat="48.21979" lon="6.61016">
        <ele>359.7</ele>
        <time>2025-01-11T10:26:23Z</time>
      </trkpt>
      <trkpt lat="48.2197" lon="6.61021">
        <ele>359.7</ele>
        <time>2025-01-11T10:26:33Z</time>
      </trkpt>
      <trkpt lat="48.21962" lon="6.61031">
        <ele>359.7</ele>
        <time>2025-01-11T10:26:42Z</time>
      </trkpt>
      <trkpt lat="48.21954" lon="6.61036">
        <ele>359.8</ele>
        <time>2025-01-11T10:26:50Z</time>
      </trkpt>
      <trkpt lat="48.21945" lon="6.6104">
        <ele>359.9</ele>
        <time>2025-01-11T10:26:59Z</time>
      </trkpt>
      <trkpt lat="48.21938" lon="6.61049">
        <ele>360</ele>
        <time>2025-01-11T10:27:07Z</time>
      </trkpt>
      <trkpt lat="48.21937" lon="6.61062">
        <ele>360</ele>
        <time>2025-01-11T10:27:14Z</time>
      </trkpt>
      <trkpt lat="48.2194" lon="6.61077">
        <ele>360</ele>
        <time>2025-01-11T10:27:23Z</time>
      </trkpt>
      <trkpt lat="48.21944" lon="6.6109">
        <ele>360.1</ele>
        <time>2025-01-11T10:27:31Z</time>
      </trkpt>
      <trkpt lat="48.21948" lon="6.61103">
        <ele>360.1</ele>
        <time>2025-01-11T10:27:40Z</time>
      </trkpt>
      <trkpt lat="48.21952" lon="6.61116">
        <ele>360.2</ele>
        <time>2025-01-11T10:27:48Z</time>
      </trkpt>
      <trkpt lat="48.21956" lon="6.61128">
        <ele>360.2</ele>
        <time>2025-01-11T10:27:56Z</time>
      </trkpt>
      <trkpt lat="48.21961" lon="6.61141">
        <ele>360.2</ele>
        <time>2025-01-11T10:28:05Z</time>
      </trkpt>
      <trkpt lat="48.21964" lon="6.61155">
        <ele>360.2</ele>
        <time>2025-01-11T10:28:13Z</time>
      </trkpt>
      <trkpt lat="48.21967" lon="6.61168">
        <ele>360.1</ele>
        <time>2025-01-11T10:28:21Z</time>
      </trkpt>
      <trkpt lat="48.2197" lon="6.61182">
        <ele>360.1</ele>
        <time>2025-01-11T10:28:29Z</time>
      </trkpt>
      <trkpt lat="48.21969" lon="6.61196">
        <ele>360</ele>
        <time>2025-01-11T10:28:37Z</time>
      </trkpt>
      <trkpt lat="48.21966" lon="6.61209">
        <ele>359.9</ele>
        <time>2025-01-11T10:28:45Z</time>
      </trkpt>
      <trkpt lat="48.21963" lon="6.61222">
        <ele>359.8</ele>
        <time>2025-01-11T10:28:54Z</time>
      </trkpt>
      <trkpt lat="48.2196" lon="6.61235">
        <ele>359.7</ele>
        <time>2025-01-11T10:29:02Z</time>
      </trkpt>
      <trkpt lat="48.21959" lon="6.61249">
        <ele>359.8</ele>
        <time>2025-01-11T10:29:10Z</time>
      </trkpt>
      <trkpt lat="48.21959" lon="6.61263">
        <ele>359.9</ele>
        <time>2025-01-11T10:29:18Z</time>
      </trkpt>
      <trkpt lat="48.2196" lon="6.61277">
        <ele>360</ele>
        <time>2025-01-11T10:29:26Z</time>
      </trkpt>
      <trkpt lat="48.21961" lon="6.61291">
        <ele>360.2</ele>
        <time>2025-01-11T10:29:34Z</time>
      </trkpt>
      <trkpt lat="48.21961" lon="6.61306">
        <ele>360.3</ele>
        <time>2025-01-11T10:29:42Z</time>
      </trkpt>
      <trkpt lat="48.21961" lon="6.6132">
        <ele>360.7</ele>
        <time>2025-01-11T10:29:50Z</time>
      </trkpt>
      <trkpt lat="48.21959" lon="6.61334">
        <ele>361.1</ele>
        <time>2025-01-11T10:29:58Z</time>
      </trkpt>
      <trkpt lat="48.21958" lon="6.61348">
        <ele>361.5</ele>
        <time>2025-01-11T10:30:06Z</time>
      </trkpt>
      <trkpt lat="48.21956" lon="6.61363">
        <ele>362.1</ele>
        <time>2025-01-11T10:30:14Z</time>
      </trkpt>
      <trkpt lat="48.21953" lon="6.61377">
        <ele>362.7</ele>
        <time>2025-01-11T10:30:22Z</time>
      </trkpt>
      <trkpt lat="48.21951" lon="6.61391">
        <ele>363.3</ele>
        <time>2025-01-11T10:30:30Z</time>
      </trkpt>
      <trkpt lat="48.21949" lon="6.61405">
        <ele>364</ele>
        <time>2025-01-11T10:30:39Z</time>
      </trkpt>
      <trkpt lat="48.21946" lon="6.61418">
        <ele>364.6</ele>
        <time>2025-01-11T10:30:47Z</time>
      </trkpt>
      <trkpt lat="48.21942" lon="6.61432">
        <ele>365.2</ele>
        <time>2025-01-11T10:30:55Z</time>
      </trkpt>
      <trkpt lat="48.21937" lon="6.61444">
        <ele>365.9</ele>
        <time>2025-01-11T10:31:03Z</time>
      </trkpt>
      <trkpt lat="48.21934" lon="6.61458">
        <ele>366.6</ele>
        <time>2025-01-11T10:31:11Z</time>
      </trkpt>
      <trkpt lat="48.21929" lon="6.61472">
        <ele>367.3</ele>
        <time>2025-01-11T10:31:19Z</time>
      </trkpt>
      <trkpt lat="48.21926" lon="6.61484">
        <ele>368</ele>
        <time>2025-01-11T10:31:26Z</time>
      </trkpt>
      <trkpt lat="48.21922" lon="6.61497">
        <ele>368.7</ele>
        <time>2025-01-11T10:31:34Z</time>
      </trkpt>
      <trkpt lat="48.21919" lon="6.6151">
        <ele>369.5</ele>
        <time>2025-01-11T10:31:43Z</time>
      </trkpt>
      <trkpt lat="48.21914" lon="6.61524">
        <ele>370.2</ele>
        <time>2025-01-11T10:31:53Z</time>
      </trkpt>
      <trkpt lat="48.2191" lon="6.61536">
        <ele>370.8</ele>
        <time>2025-01-11T10:32:01Z</time>
      </trkpt>
      <trkpt lat="48.21907" lon="6.6155">
        <ele>371.3</ele>
        <time>2025-01-11T10:32:09Z</time>
      </trkpt>
      <trkpt lat="48.21902" lon="6.61563">
        <ele>371.8</ele>
        <time>2025-01-11T10:32:17Z</time>
      </trkpt>
      <trkpt lat="48.21898" lon="6.61576">
        <ele>372.3</ele>
        <time>2025-01-11T10:32:25Z</time>
      </trkpt>
      <trkpt lat="48.21894" lon="6.61589">
        <ele>372.7</ele>
        <time>2025-01-11T10:32:34Z</time>
      </trkpt>
      <trkpt lat="48.2189" lon="6.61601">
        <ele>373.1</ele>
        <time>2025-01-11T10:32:42Z</time>
      </trkpt>
      <trkpt lat="48.21886" lon="6.61614">
        <ele>373.6</ele>
        <time>2025-01-11T10:32:50Z</time>
      </trkpt>
      <trkpt lat="48.21882" lon="6.61627">
        <ele>374</ele>
        <time>2025-01-11T10:32:58Z</time>
      </trkpt>
      <trkpt lat="48.21878" lon="6.61639">
        <ele>374.4</ele>
        <time>2025-01-11T10:33:06Z</time>
      </trkpt>
      <trkpt lat="48.21874" lon="6.61652">
        <ele>374.8</ele>
        <time>2025-01-11T10:33:14Z</time>
      </trkpt>
      <trkpt lat="48.21871" lon="6.61664">
        <ele>375.1</ele>
        <time>2025-01-11T10:33:22Z</time>
      </trkpt>
      <trkpt lat="48.21866" lon="6.61676">
        <ele>375.5</ele>
        <time>2025-01-11T10:33:30Z</time>
      </trkpt>
      <trkpt lat="48.21862" lon="6.61688">
        <ele>375.9</ele>
        <time>2025-01-11T10:33:38Z</time>
      </trkpt>
      <trkpt lat="48.21857" lon="6.617">
        <ele>376.3</ele>
        <time>2025-01-11T10:33:46Z</time>
      </trkpt>
      <trkpt lat="48.21853" lon="6.61713">
        <ele>376.8</ele>
        <time>2025-01-11T10:33:54Z</time>
      </trkpt>
      <trkpt lat="48.21848" lon="6.61725">
        <ele>377.2</ele>
        <time>2025-01-11T10:34:02Z</time>
      </trkpt>
      <trkpt lat="48.21844" lon="6.61738">
        <ele>377.8</ele>
        <time>2025-01-11T10:34:11Z</time>
      </trkpt>
      <trkpt lat="48.21839" lon="6.6175">
        <ele>378.4</ele>
        <time>2025-01-11T10:34:19Z</time>
      </trkpt>
      <trkpt lat="48.21833" lon="6.61762">
        <ele>379</ele>
        <time>2025-01-11T10:34:28Z</time>
      </trkpt>
      <trkpt lat="48.21829" lon="6.61774">
        <ele>379.6</ele>
        <time>2025-01-11T10:34:36Z</time>
      </trkpt>
      <trkpt lat="48.21824" lon="6.61787">
        <ele>380.2</ele>
        <time>2025-01-11T10:34:45Z</time>
      </trkpt>
      <trkpt lat="48.21819" lon="6.61799">
        <ele>380.7</ele>
        <time>2025-01-11T10:34:54Z</time>
      </trkpt>
      <trkpt lat="48.21815" lon="6.61812">
        <ele>381.2</ele>
        <time>2025-01-11T10:35:02Z</time>
      </trkpt>
      <trkpt lat="48.21811" lon="6.61826">
        <ele>381.6</ele>
        <time>2025-01-11T10:35:10Z</time>
      </trkpt>
      <trkpt lat="48.21809" lon="6.6184">
        <ele>381.9</ele>
        <time>2025-01-11T10:35:19Z</time>
      </trkpt>
      <trkpt lat="48.21809" lon="6.61855">
        <ele>382.1</ele>
        <time>2025-01-11T10:35:28Z</time>
      </trkpt>
      <trkpt lat="48.2181" lon="6.61869">
        <ele>382.2</ele>
        <time>2025-01-11T10:35:36Z</time>
      </trkpt>
      <trkpt lat="48.21811" lon="6.61883">
        <ele>382.4</ele>
        <time>2025-01-11T10:35:45Z</time>
      </trkpt>
      <trkpt lat="48.21813" lon="6.61898">
        <ele>382.5</ele>
        <time>2025-01-11T10:35:54Z</time>
      </trkpt>
      <trkpt lat="48.21815" lon="6.61912">
        <ele>382.6</ele>
        <time>2025-01-11T10:36:02Z</time>
      </trkpt>
      <trkpt lat="48.21817" lon="6.61926">
        <ele>382.7</ele>
        <time>2025-01-11T10:36:11Z</time>
      </trkpt>
      <trkpt lat="48.2182" lon="6.6194">
        <ele>382.8</ele>
        <time>2025-01-11T10:36:20Z</time>
      </trkpt>
      <trkpt lat="48.21821" lon="6.61954">
        <ele>382.9</ele>
        <time>2025-01-11T10:36:28Z</time>
      </trkpt>
      <trkpt lat="48.21822" lon="6.61968">
        <ele>383</ele>
        <time>2025-01-11T10:36:36Z</time>
      </trkpt>
      <trkpt lat="48.21822" lon="6.61982">
        <ele>383</ele>
        <time>2025-01-11T10:36:44Z</time>
      </trkpt>
      <trkpt lat="48.21822" lon="6.61997">
        <ele>383.1</ele>
        <time>2025-01-11T10:36:53Z</time>
      </trkpt>
      <trkpt lat="48.21822" lon="6.62011">
        <ele>383.1</ele>
        <time>2025-01-11T10:37:02Z</time>
      </trkpt>
      <trkpt lat="48.2182" lon="6.62026">
        <ele>383.1</ele>
        <time>2025-01-11T10:37:11Z</time>
      </trkpt>
      <trkpt lat="48.21818" lon="6.62041">
        <ele>383.2</ele>
        <time>2025-01-11T10:37:20Z</time>
      </trkpt>
      <trkpt lat="48.21816" lon="6.62054">
        <ele>383.3</ele>
        <time>2025-01-11T10:37:28Z</time>
      </trkpt>
      <trkpt lat="48.21813" lon="6.62068">
        <ele>383.5</ele>
        <time>2025-01-11T10:37:37Z</time>
      </trkpt>
      <trkpt lat="48.2181" lon="6.62082">
        <ele>383.7</ele>
        <time>2025-01-11T10:37:46Z</time>
      </trkpt>
      <trkpt lat="48.21808" lon="6.62097">
        <ele>383.9</ele>
        <time>2025-01-11T10:37:55Z</time>
      </trkpt>
      <trkpt lat="48.21805" lon="6.6211">
        <ele>384.2</ele>
        <time>2025-01-11T10:38:03Z</time>
      </trkpt>
      <trkpt lat="48.21801" lon="6.62123">
        <ele>384.4</ele>
        <time>2025-01-11T10:38:11Z</time>
      </trkpt>
      <trkpt lat="48.21799" lon="6.62136">
        <ele>384.6</ele>
        <time>2025-01-11T10:38:19Z</time>
      </trkpt>
      <trkpt lat="48.21797" lon="6.6215">
        <ele>384.9</ele>
        <time>2025-01-11T10:38:27Z</time>
      </trkpt>
      <trkpt lat="48.21794" lon="6.62163">
        <ele>385.2</ele>
        <time>2025-01-11T10:38:34Z</time>
      </trkpt>
      <trkpt lat="48.21793" lon="6.62177">
        <ele>385.5</ele>
        <time>2025-01-11T10:38:42Z</time>
      </trkpt>
      <trkpt lat="48.21789" lon="6.6219">
        <ele>385.8</ele>
        <time>2025-01-11T10:38:50Z</time>
      </trkpt>
      <trkpt lat="48.21786" lon="6.62203">
        <ele>386.2</ele>
        <time>2025-01-11T10:38:58Z</time>
      </trkpt>
      <trkpt lat="48.21782" lon="6.62215">
        <ele>386.6</ele>
        <time>2025-01-11T10:39:06Z</time>
      </trkpt>
      <trkpt lat="48.2178" lon="6.62228">
        <ele>387</ele>
        <time>2025-01-11T10:39:14Z</time>
      </trkpt>
      <trkpt lat="48.21778" lon="6.62243">
        <ele>387.5</ele>
        <time>2025-01-11T10:39:23Z</time>
      </trkpt>
      <trkpt lat="48.21776" lon="6.62257">
        <ele>388</ele>
        <time>2025-01-11T10:39:32Z</time>
      </trkpt>
      <trkpt lat="48.21773" lon="6.6227">
        <ele>388.5</ele>
        <time>2025-01-11T10:39:40Z</time>
      </trkpt>
      <trkpt lat="48.21771" lon="6.62284">
        <ele>389</ele>
        <time>2025-01-11T10:39:48Z</time>
      </trkpt>
      <trkpt lat="48.21769" lon="6.62298">
        <ele>389.6</ele>
        <time>2025-01-11T10:39:57Z</time>
      </trkpt>
      <trkpt lat="48.21768" lon="6.62312">
        <ele>390.2</ele>
        <time>2025-01-11T10:40:05Z</time>
      </trkpt>
      <trkpt lat="48.2177" lon="6.62325">
        <ele>390.7</ele>
        <time>2025-01-11T10:40:13Z</time>
      </trkpt>
      <trkpt lat="48.21774" lon="6.62338">
        <ele>391.3</ele>
        <time>2025-01-11T10:40:21Z</time>
      </trkpt>
      <trkpt lat="48.2178" lon="6.6235">
        <ele>391.9</ele>
        <time>2025-01-11T10:40:29Z</time>
      </trkpt>
      <trkpt lat="48.21786" lon="6.62361">
        <ele>392.4</ele>
        <time>2025-01-11T10:40:37Z</time>
      </trkpt>
      <trkpt lat="48.21793" lon="6.62371">
        <ele>392.9</ele>
        <time>2025-01-11T10:40:45Z</time>
      </trkpt>
      <trkpt lat="48.21799" lon="6.62382">
        <ele>393.3</ele>
        <time>2025-01-11T10:40:53Z</time>
      </trkpt>
      <trkpt lat="48.21806" lon="6.62392">
        <ele>393.8</ele>
        <time>2025-01-11T10:41:01Z</time>
      </trkpt>
      <trkpt lat="48.21813" lon="6.62401">
        <ele>394.3</ele>
        <time>2025-01-11T10:41:09Z</time>
      </trkpt>
      <trkpt lat="48.21818" lon="6.6241">
        <ele>394.6</ele>
        <time>2025-01-11T10:41:21Z</time>
      </trkpt>
      <trkpt lat="48.21818" lon="6.6241">
        <ele>394.6</ele>
        <time>2025-01-11T10:41:22Z</time>
      </trkpt>
      <trkpt lat="48.21818" lon="6.6241">
        <ele>394.6</ele>
        <time>2025-01-11T10:41:23Z</time>
      </trkpt>
      <trkpt lat="48.21817" lon="6.6241">
        <ele>394.6</ele>
        <time>2025-01-11T10:41:24Z</time>
      </trkpt>
      <trkpt lat="48.21816" lon="6.6241">
        <ele>394.5</ele>
        <time>2025-01-11T10:41:25Z</time>
      </trkpt>
      <trkpt lat="48.21807" lon="6.62404">
        <ele>394.1</ele>
        <time>2025-01-11T10:41:33Z</time>
      </trkpt>
      <trkpt lat="48.21801" lon="6.62394">
        <ele>393.6</ele>
        <time>2025-01-11T10:41:40Z</time>
      </trkpt>
      <trkpt lat="48.21794" lon="6.62384">
        <ele>393.2</ele>
        <time>2025-01-11T10:41:47Z</time>
      </trkpt>
      <trkpt lat="48.21787" lon="6.62374">
        <ele>392.7</ele>
        <time>2025-01-11T10:41:55Z</time>
      </trkpt>
      <trkpt lat="48.21781" lon="6.62364">
        <ele>392.2</ele>
        <time>2025-01-11T10:42:03Z</time>
      </trkpt>
      <trkpt lat="48.21775" lon="6.62354">
        <ele>391.8</ele>
        <time>2025-01-11T10:42:10Z</time>
      </trkpt>
      <trkpt lat="48.21769" lon="6.62343">
        <ele>391.3</ele>
        <time>2025-01-11T10:42:17Z</time>
      </trkpt>
      <trkpt lat="48.21765" lon="6.62331">
        <ele>390.7</ele>
        <time>2025-01-11T10:42:24Z</time>
      </trkpt>
      <trkpt lat="48.21763" lon="6.62318">
        <ele>390.2</ele>
        <time>2025-01-11T10:42:32Z</time>
      </trkpt>
      <trkpt lat="48.21763" lon="6.62304">
        <ele>389.6</ele>
        <time>2025-01-11T10:42:40Z</time>
      </trkpt>
      <trkpt lat="48.21766" lon="6.62289">
        <ele>389</ele>
        <time>2025-01-11T10:42:47Z</time>
      </trkpt>
      <trkpt lat="48.21769" lon="6.62279">
        <ele>388.6</ele>
        <time>2025-01-11T10:42:56Z</time>
      </trkpt>
      <trkpt lat="48.21769" lon="6.62279">
        <ele>388.6</ele>
        <time>2025-01-11T10:42:57Z</time>
      </trkpt>
      <trkpt lat="48.21769" lon="6.62278">
        <ele>388.6</ele>
        <time>2025-01-11T10:42:58Z</time>
      </trkpt>
      <trkpt lat="48.2177" lon="6.62276">
        <ele>388.5</ele>
        <time>2025-01-11T10:42:59Z</time>
      </trkpt>
      <trkpt lat="48.21774" lon="6.62263">
        <ele>388</ele>
        <time>2025-01-11T10:43:07Z</time>
      </trkpt>
      <trkpt lat="48.21777" lon="6.62249">
        <ele>387.5</ele>
        <time>2025-01-11T10:43:15Z</time>
      </trkpt>
      <trkpt lat="48.21779" lon="6.62234">
        <ele>387</ele>
        <time>2025-01-11T10:43:24Z</time>
      </trkpt>
      <trkpt lat="48.21781" lon="6.62221">
        <ele>386.6</ele>
        <time>2025-01-11T10:43:32Z</time>
      </trkpt>
      <trkpt lat="48.21782" lon="6.62207">
        <ele>386.2</ele>
        <time>2025-01-11T10:43:40Z</time>
      </trkpt>
      <trkpt lat="48.21785" lon="6.62193">
        <ele>385.9</ele>
        <time>2025-01-11T10:43:48Z</time>
      </trkpt>
      <trkpt lat="48.21788" lon="6.6218">
        <ele>385.5</ele>
        <time>2025-01-11T10:43:56Z</time>
      </trkpt>
      <trkpt lat="48.2179" lon="6.62166">
        <ele>385.2</ele>
        <time>2025-01-11T10:44:05Z</time>
      </trkpt>
      <trkpt lat="48.21794" lon="6.62154">
        <ele>384.9</ele>
        <time>2025-01-11T10:44:13Z</time>
      </trkpt>
      <trkpt lat="48.21796" lon="6.62141">
        <ele>384.6</ele>
        <time>2025-01-11T10:44:22Z</time>
      </trkpt>
      <trkpt lat="48.21799" lon="6.62127">
        <ele>384.4</ele>
        <time>2025-01-11T10:44:30Z</time>
      </trkpt>
      <trkpt lat="48.21802" lon="6.62113">
        <ele>384.2</ele>
        <time>2025-01-11T10:44:39Z</time>
      </trkpt>
      <trkpt lat="48.21804" lon="6.62099">
        <ele>383.9</ele>
        <time>2025-01-11T10:44:47Z</time>
      </trkpt>
      <trkpt lat="48.21807" lon="6.62085">
        <ele>383.7</ele>
        <time>2025-01-11T10:44:56Z</time>
      </trkpt>
      <trkpt lat="48.2181" lon="6.62071">
        <ele>383.5</ele>
        <time>2025-01-11T10:45:05Z</time>
      </trkpt>
      <trkpt lat="48.21813" lon="6.62057">
        <ele>383.3</ele>
        <time>2025-01-11T10:45:14Z</time>
      </trkpt>
      <trkpt lat="48.21816" lon="6.62043">
        <ele>383.2</ele>
        <time>2025-01-11T10:45:22Z</time>
      </trkpt>
      <trkpt lat="48.21817" lon="6.62029">
        <ele>383.1</ele>
        <time>2025-01-11T10:45:30Z</time>
      </trkpt>
      <trkpt lat="48.21818" lon="6.62014">
        <ele>383.1</ele>
        <time>2025-01-11T10:45:39Z</time>
      </trkpt>
      <trkpt lat="48.21819" lon="6.62">
        <ele>383.1</ele>
        <time>2025-01-11T10:45:47Z</time>
      </trkpt>
      <trkpt lat="48.21819" lon="6.61986">
        <ele>383.1</ele>
        <time>2025-01-11T10:45:56Z</time>
      </trkpt>
      <trkpt lat="48.21819" lon="6.61972">
        <ele>383</ele>
        <time>2025-01-11T10:46:05Z</time>
      </trkpt>
      <trkpt lat="48.21818" lon="6.61958">
        <ele>382.9</ele>
        <time>2025-01-11T10:46:13Z</time>
      </trkpt>
      <trkpt lat="48.21816" lon="6.61944">
        <ele>382.8</ele>
        <time>2025-01-11T10:46:22Z</time>
      </trkpt>
      <trkpt lat="48.21813" lon="6.6193">
        <ele>382.7</ele>
        <time>2025-01-11T10:46:31Z</time>
      </trkpt>
      <trkpt lat="48.21811" lon="6.61916">
        <ele>382.6</ele>
        <time>2025-01-11T10:46:39Z</time>
      </trkpt>
      <trkpt lat="48.21809" lon="6.61902">
        <ele>382.5</ele>
        <time>2025-01-11T10:46:47Z</time>
      </trkpt>
      <trkpt lat="48.21807" lon="6.61887">
        <ele>382.4</ele>
        <time>2025-01-11T10:46:55Z</time>
      </trkpt>
      <trkpt lat="48.21805" lon="6.61873">
        <ele>382.3</ele>
        <time>2025-01-11T10:47:03Z</time>
      </trkpt>
      <trkpt lat="48.21804" lon="6.6186">
        <ele>382.1</ele>
        <time>2025-01-11T10:47:12Z</time>
      </trkpt>
      <trkpt lat="48.21804" lon="6.61846">
        <ele>381.9</ele>
        <time>2025-01-11T10:47:21Z</time>
      </trkpt>
      <trkpt lat="48.21805" lon="6.61832">
        <ele>381.7</ele>
        <time>2025-01-11T10:47:29Z</time>
      </trkpt>
      <trkpt lat="48.21795" lon="6.61828">
        <ele>381.7</ele>
        <time>2025-01-11T10:47:40Z</time>
      </trkpt>
      <trkpt lat="48.21788" lon="6.61838">
        <ele>381.8</ele>
        <time>2025-01-11T10:47:48Z</time>
      </trkpt>
      <trkpt lat="48.21781" lon="6.61848">
        <ele>382</ele>
        <time>2025-01-11T10:47:56Z</time>
      </trkpt>
      <trkpt lat="48.2178" lon="6.6185">
        <ele>382</ele>
        <time>2025-01-11T10:48:00Z</time>
      </trkpt>
      <trkpt lat="48.2178" lon="6.6185">
        <ele>382</ele>
        <time>2025-01-11T10:48:01Z</time>
      </trkpt>
      <trkpt lat="48.21779" lon="6.61851">
        <ele>382</ele>
        <time>2025-01-11T10:48:02Z</time>
      </trkpt>
      <trkpt lat="48.21779" lon="6.61852">
        <ele>382</ele>
        <time>2025-01-11T10:48:03Z</time>
      </trkpt>
      <trkpt lat="48.21778" lon="6.61854">
        <ele>382.1</ele>
        <time>2025-01-11T10:48:04Z</time>
      </trkpt>
      <trkpt lat="48.21772" lon="6.61863">
        <ele>382.3</ele>
        <time>2025-01-11T10:48:12Z</time>
      </trkpt>
      <trkpt lat="48.21765" lon="6.61873">
        <ele>382.5</ele>
        <time>2025-01-11T10:48:19Z</time>
      </trkpt>
      <trkpt lat="48.21759" lon="6.61883">
        <ele>382.8</ele>
        <time>2025-01-11T10:48:27Z</time>
      </trkpt>
      <trkpt lat="48.21752" lon="6.61893">
        <ele>383.1</ele>
        <time>2025-01-11T10:48:34Z</time>
      </trkpt>
      <trkpt lat="48.21746" lon="6.61903">
        <ele>383.5</ele>
        <time>2025-01-11T10:48:42Z</time>
      </trkpt>
      <trkpt lat="48.2174" lon="6.61914">
        <ele>383.9</ele>
        <time>2025-01-11T10:48:51Z</time>
      </trkpt>
      <trkpt lat="48.21732" lon="6.61925">
        <ele>384.3</ele>
        <time>2025-01-11T10:48:59Z</time>
      </trkpt>
      <trkpt lat="48.21726" lon="6.61936">
        <ele>384.7</ele>
        <time>2025-01-11T10:49:06Z</time>
      </trkpt>
      <trkpt lat="48.2172" lon="6.61947">
        <ele>385.1</ele>
        <time>2025-01-11T10:49:14Z</time>
      </trkpt>
      <trkpt lat="48.21714" lon="6.61958">
        <ele>385.4</ele>
        <time>2025-01-11T10:49:22Z</time>
      </trkpt>
      <trkpt lat="48.21708" lon="6.61969">
        <ele>385.8</ele>
        <time>2025-01-11T10:49:29Z</time>
      </trkpt>
      <trkpt lat="48.21702" lon="6.61981">
        <ele>386.2</ele>
        <time>2025-01-11T10:49:37Z</time>
      </trkpt>
      <trkpt lat="48.21696" lon="6.61993">
        <ele>386.6</ele>
        <time>2025-01-11T10:49:45Z</time>
      </trkpt>
      <trkpt lat="48.2169" lon="6.62004">
        <ele>387.1</ele>
        <time>2025-01-11T10:49:52Z</time>
      </trkpt>
      <trkpt lat="48.21685" lon="6.62017">
        <ele>387.6</ele>
        <time>2025-01-11T10:50:00Z</time>
      </trkpt>
      <trkpt lat="48.21679" lon="6.62029">
        <ele>388.1</ele>
        <time>2025-01-11T10:50:08Z</time>
      </trkpt>
      <trkpt lat="48.21673" lon="6.62042">
        <ele>388.6</ele>
        <time>2025-01-11T10:50:16Z</time>
      </trkpt>
      <trkpt lat="48.21667" lon="6.62054">
        <ele>389.1</ele>
        <time>2025-01-11T10:50:24Z</time>
      </trkpt>
      <trkpt lat="48.21661" lon="6.62066">
        <ele>389.6</ele>
        <time>2025-01-11T10:50:32Z</time>
      </trkpt>
      <trkpt lat="48.21656" lon="6.62077">
        <ele>390</ele>
        <time>2025-01-11T10:50:40Z</time>
      </trkpt>
      <trkpt lat="48.2165" lon="6.62089">
        <ele>390.4</ele>
        <time>2025-01-11T10:50:48Z</time>
      </trkpt>
      <trkpt lat="48.21644" lon="6.621">
        <ele>390.8</ele>
        <time>2025-01-11T10:50:56Z</time>
      </trkpt>
      <trkpt lat="48.21639" lon="6.62112">
        <ele>391.3</ele>
        <time>2025-01-11T10:51:04Z</time>
      </trkpt>
      <trkpt lat="48.21633" lon="6.62124">
        <ele>391.8</ele>
        <time>2025-01-11T10:51:12Z</time>
      </trkpt>
      <trkpt lat="48.21627" lon="6.62136">
        <ele>392.3</ele>
        <time>2025-01-11T10:51:20Z</time>
      </trkpt>
      <trkpt lat="48.21622" lon="6.62147">
        <ele>392.7</ele>
        <time>2025-01-11T10:51:28Z</time>
      </trkpt>
      <trkpt lat="48.21615" lon="6.62158">
        <ele>393.2</ele>
        <time>2025-01-11T10:51:36Z</time>
      </trkpt>
      <trkpt lat="48.21608" lon="6.62167">
        <ele>393.7</ele>
        <time>2025-01-11T10:51:44Z</time>
      </trkpt>
      <trkpt lat="48.21601" lon="6.62176">
        <ele>394.1</ele>
        <time>2025-01-11T10:51:52Z</time>
      </trkpt>
      <trkpt lat="48.21593" lon="6.62184">
        <ele>394.5</ele>
        <time>2025-01-11T10:52:00Z</time>
      </trkpt>
      <trkpt lat="48.21585" lon="6.62191">
        <ele>394.9</ele>
        <time>2025-01-11T10:52:08Z</time>
      </trkpt>
      <trkpt lat="48.21576" lon="6.62199">
        <ele>395.3</ele>
        <time>2025-01-11T10:52:16Z</time>
      </trkpt>
      <trkpt lat="48.21567" lon="6.62207">
        <ele>395.6</ele>
        <time>2025-01-11T10:52:24Z</time>
      </trkpt>
      <trkpt lat="48.21559" lon="6.62215">
        <ele>395.9</ele>
        <time>2025-01-11T10:52:32Z</time>
      </trkpt>
      <trkpt lat="48.21551" lon="6.62222">
        <ele>396.2</ele>
        <time>2025-01-11T10:52:40Z</time>
      </trkpt>
      <trkpt lat="48.21543" lon="6.6223">
        <ele>396.4</ele>
        <time>2025-01-11T10:52:48Z</time>
      </trkpt>
      <trkpt lat="48.21535" lon="6.62238">
        <ele>396.6</ele>
        <time>2025-01-11T10:52:56Z</time>
      </trkpt>
      <trkpt lat="48.21528" lon="6.62249">
        <ele>398.6</ele>
        <time>2025-01-11T10:53:04Z</time>
      </trkpt>
      <trkpt lat="48.21521" lon="6.6226">
        <ele>400.6</ele>
        <time>2025-01-11T10:53:12Z</time>
      </trkpt>
      <trkpt lat="48.21515" lon="6.62272">
        <ele>403.4</ele>
        <time>2025-01-11T10:53:20Z</time>
      </trkpt>
      <trkpt lat="48.21508" lon="6.62282">
        <ele>405.1</ele>
        <time>2025-01-11T10:53:28Z</time>
      </trkpt>
      <trkpt lat="48.21503" lon="6.62293">
        <ele>406.9</ele>
        <time>2025-01-11T10:53:36Z</time>
      </trkpt>
      <trkpt lat="48.21496" lon="6.62303">
        <ele>408.3</ele>
        <time>2025-01-11T10:53:45Z</time>
      </trkpt>
      <trkpt lat="48.21488" lon="6.62312">
        <ele>410.1</ele>
        <time>2025-01-11T10:53:53Z</time>
      </trkpt>
      <trkpt lat="48.21481" lon="6.62321">
        <ele>411.5</ele>
        <time>2025-01-11T10:54:03Z</time>
      </trkpt>
      <trkpt lat="48.21474" lon="6.62331">
        <ele>412.9</ele>
        <time>2025-01-11T10:54:10Z</time>
      </trkpt>
      <trkpt lat="48.21466" lon="6.62341">
        <ele>414</ele>
        <time>2025-01-11T10:54:18Z</time>
      </trkpt>
      <trkpt lat="48.21459" lon="6.62351">
        <ele>414.6</ele>
        <time>2025-01-11T10:54:27Z</time>
      </trkpt>
      <trkpt lat="48.2145" lon="6.62358">
        <ele>415.1</ele>
        <time>2025-01-11T10:54:38Z</time>
      </trkpt>
      <trkpt lat="48.21442" lon="6.62366">
        <ele>415.5</ele>
        <time>2025-01-11T10:54:45Z</time>
      </trkpt>
      <trkpt lat="48.21433" lon="6.62372">
        <ele>415.8</ele>
        <time>2025-01-11T10:54:52Z</time>
      </trkpt>
      <trkpt lat="48.21425" lon="6.62379">
        <ele>415.9</ele>
        <time>2025-01-11T10:54:59Z</time>
      </trkpt>
      <trkpt lat="48.21417" lon="6.62385">
        <ele>416.2</ele>
        <time>2025-01-11T10:55:06Z</time>
      </trkpt>
      <trkpt lat="48.21409" lon="6.62392">
        <ele>416.6</ele>
        <time>2025-01-11T10:55:14Z</time>
      </trkpt>
      <trkpt lat="48.214" lon="6.624">
        <ele>417</ele>
        <time>2025-01-11T10:55:22Z</time>
      </trkpt>
      <trkpt lat="48.21391" lon="6.62405">
        <ele>417.6</ele>
        <time>2025-01-11T10:55:29Z</time>
      </trkpt>
      <trkpt lat="48.21383" lon="6.62411">
        <ele>418.4</ele>
        <time>2025-01-11T10:55:37Z</time>
      </trkpt>
      <trkpt lat="48.21374" lon="6.62418">
        <ele>419.1</ele>
        <time>2025-01-11T10:55:45Z</time>
      </trkpt>
      <trkpt lat="48.21365" lon="6.62424">
        <ele>420</ele>
        <time>2025-01-11T10:55:53Z</time>
      </trkpt>
      <trkpt lat="48.21357" lon="6.62431">
        <ele>421</ele>
        <time>2025-01-11T10:56:01Z</time>
      </trkpt>
      <trkpt lat="48.21348" lon="6.62438">
        <ele>422</ele>
        <time>2025-01-11T10:56:10Z</time>
      </trkpt>
      <trkpt lat="48.2134" lon="6.62445">
        <ele>422.8</ele>
        <time>2025-01-11T10:56:18Z</time>
      </trkpt>
      <trkpt lat="48.21331" lon="6.62452">
        <ele>423.6</ele>
        <time>2025-01-11T10:56:27Z</time>
      </trkpt>
      <trkpt lat="48.21322" lon="6.62458">
        <ele>424.3</ele>
        <time>2025-01-11T10:56:35Z</time>
      </trkpt>
      <trkpt lat="48.21314" lon="6.62462">
        <ele>424.9</ele>
        <time>2025-01-11T10:56:43Z</time>
      </trkpt>
      <trkpt lat="48.21305" lon="6.62468">
        <ele>425.7</ele>
        <time>2025-01-11T10:56:51Z</time>
      </trkpt>
      <trkpt lat="48.21297" lon="6.62474">
        <ele>426.4</ele>
        <time>2025-01-11T10:56:59Z</time>
      </trkpt>
      <trkpt lat="48.21289" lon="6.62481">
        <ele>426.6</ele>
        <time>2025-01-11T10:57:07Z</time>
      </trkpt>
      <trkpt lat="48.21279" lon="6.62484">
        <ele>426.7</ele>
        <time>2025-01-11T10:57:16Z</time>
      </trkpt>
      <trkpt lat="48.21271" lon="6.62489">
        <ele>426.9</ele>
        <time>2025-01-11T10:57:23Z</time>
      </trkpt>
      <trkpt lat="48.21261" lon="6.62496">
        <ele>427.1</ele>
        <time>2025-01-11T10:57:31Z</time>
      </trkpt>
      <trkpt lat="48.21252" lon="6.625">
        <ele>427.8</ele>
        <time>2025-01-11T10:57:39Z</time>
      </trkpt>
      <trkpt lat="48.21242" lon="6.62501">
        <ele>428.4</ele>
        <time>2025-01-11T10:57:49Z</time>
      </trkpt>
      <trkpt lat="48.21233" lon="6.62505">
        <ele>429</ele>
        <time>2025-01-11T10:57:58Z</time>
      </trkpt>
      <trkpt lat="48.21224" lon="6.62508">
        <ele>429.5</ele>
        <time>2025-01-11T10:58:06Z</time>
      </trkpt>
      <trkpt lat="48.21215" lon="6.62512">
        <ele>429.9</ele>
        <time>2025-01-11T10:58:15Z</time>
      </trkpt>
      <trkpt lat="48.21205" lon="6.62514">
        <ele>430</ele>
        <time>2025-01-11T10:58:24Z</time>
      </trkpt>
      <trkpt lat="48.21195" lon="6.62514">
        <ele>430</ele>
        <time>2025-01-11T10:58:34Z</time>
      </trkpt>
      <trkpt lat="48.21186" lon="6.62514">
        <ele>430.2</ele>
        <time>2025-01-11T10:58:44Z</time>
      </trkpt>
      <trkpt lat="48.21176" lon="6.62512">
        <ele>429.9</ele>
        <time>2025-01-11T10:58:54Z</time>
      </trkpt>
      <trkpt lat="48.21167" lon="6.62507">
        <ele>429.5</ele>
        <time>2025-01-11T10:59:05Z</time>
      </trkpt>
      <trkpt lat="48.21166" lon="6.62506">
        <ele>429.5</ele>
        <time>2025-01-11T10:59:10Z</time>
      </trkpt>
      <trkpt lat="48.21166" lon="6.62506">
        <ele>429.5</ele>
        <time>2025-01-11T10:59:11Z</time>
      </trkpt>
      <trkpt lat="48.21166" lon="6.62506">
        <ele>429.5</ele>
        <time>2025-01-11T10:59:12Z</time>
      </trkpt>
      <trkpt lat="48.21165" lon="6.62505">
        <ele>429.3</ele>
        <time>2025-01-11T10:59:15Z</time>
      </trkpt>
      <trkpt lat="48.21164" lon="6.62505">
        <ele>429.3</ele>
        <time>2025-01-11T10:59:16Z</time>
      </trkpt>
      <trkpt lat="48.21163" lon="6.62504">
        <ele>429.3</ele>
        <time>2025-01-11T10:59:17Z</time>
      </trkpt>
      <trkpt lat="48.21154" lon="6.62502">
        <ele>429.1</ele>
        <time>2025-01-11T10:59:27Z</time>
      </trkpt>
      <trkpt lat="48.21144" lon="6.62501">
        <ele>428.7</ele>
        <time>2025-01-11T10:59:37Z</time>
      </trkpt>
      <trkpt lat="48.21135" lon="6.62497">
        <ele>428.3</ele>
        <time>2025-01-11T10:59:45Z</time>
      </trkpt>
      <trkpt lat="48.21126" lon="6.62495">
        <ele>428.3</ele>
        <time>2025-01-11T10:59:54Z</time>
      </trkpt>
      <trkpt lat="48.21117" lon="6.62491">
        <ele>428.1</ele>
        <time>2025-01-11T11:00:02Z</time>
      </trkpt>
      <trkpt lat="48.21108" lon="6.62492">
        <ele>428.4</ele>
        <time>2025-01-11T11:00:10Z</time>
      </trkpt>
      <trkpt lat="48.21098" lon="6.6249">
        <ele>428.9</ele>
        <time>2025-01-11T11:00:18Z</time>
      </trkpt>
      <trkpt lat="48.21088" lon="6.62488">
        <ele>429.1</ele>
        <time>2025-01-11T11:00:27Z</time>
      </trkpt>
      <trkpt lat="48.21079" lon="6.62485">
        <ele>429.7</ele>
        <time>2025-01-11T11:00:37Z</time>
      </trkpt>
      <trkpt lat="48.21069" lon="6.62482">
        <ele>430.1</ele>
        <time>2025-01-11T11:00:47Z</time>
      </trkpt>
      <trkpt lat="48.21061" lon="6.62476">
        <ele>430.6</ele>
        <time>2025-01-11T11:00:56Z</time>
      </trkpt>
      <trkpt lat="48.21052" lon="6.62471">
        <ele>431.2</ele>
        <time>2025-01-11T11:01:05Z</time>
      </trkpt>
      <trkpt lat="48.21043" lon="6.62465">
        <ele>431.7</ele>
        <time>2025-01-11T11:01:15Z</time>
      </trkpt>
      <trkpt lat="48.21034" lon="6.62459">
        <ele>432.2</ele>
        <time>2025-01-11T11:01:24Z</time>
      </trkpt>
      <trkpt lat="48.21026" lon="6.62451">
        <ele>432.5</ele>
        <time>2025-01-11T11:01:33Z</time>
      </trkpt>
      <trkpt lat="48.21018" lon="6.62445">
        <ele>432.7</ele>
        <time>2025-01-11T11:01:42Z</time>
      </trkpt>
      <trkpt lat="48.21009" lon="6.62442">
        <ele>432.6</ele>
        <time>2025-01-11T11:01:51Z</time>
      </trkpt>
      <trkpt lat="48.20999" lon="6.62439">
        <ele>432.1</ele>
        <time>2025-01-11T11:01:59Z</time>
      </trkpt>
      <trkpt lat="48.20989" lon="6.62436">
        <ele>431.6</ele>
        <time>2025-01-11T11:02:07Z</time>
      </trkpt>
      <trkpt lat="48.2098" lon="6.62435">
        <ele>431.1</ele>
        <time>2025-01-11T11:02:20Z</time>
      </trkpt>
      <trkpt lat="48.20971" lon="6.62431">
        <ele>430.6</ele>
        <time>2025-01-11T11:02:30Z</time>
      </trkpt>
      <trkpt lat="48.20963" lon="6.62426">
        <ele>430.2</ele>
        <time>2025-01-11T11:02:38Z</time>
      </trkpt>
      <trkpt lat="48.20953" lon="6.62421">
        <ele>429.8</ele>
        <time>2025-01-11T11:02:47Z</time>
      </trkpt>
      <trkpt lat="48.20945" lon="6.62417">
        <ele>429.4</ele>
        <time>2025-01-11T11:02:56Z</time>
      </trkpt>
      <trkpt lat="48.20936" lon="6.62412">
        <ele>429.1</ele>
        <time>2025-01-11T11:03:05Z</time>
      </trkpt>
      <trkpt lat="48.20927" lon="6.62408">
        <ele>428.9</ele>
        <time>2025-01-11T11:03:15Z</time>
      </trkpt>
      <trkpt lat="48.20918" lon="6.62404">
        <ele>428.9</ele>
        <time>2025-01-11T11:03:29Z</time>
      </trkpt>
      <trkpt lat="48.20925" lon="6.62414">
        <ele>429.2</ele>
        <time>2025-01-11T11:03:46Z</time>
      </trkpt>
      <trkpt lat="48.20933" lon="6.62421">
        <ele>429.6</ele>
        <time>2025-01-11T11:03:53Z</time>
      </trkpt>
      <trkpt lat="48.20942" lon="6.62427">
        <ele>429.9</ele>
        <time>2025-01-11T11:04:01Z</time>
      </trkpt>
      <trkpt lat="48.20951" lon="6.62431">
        <ele>430.3</ele>
        <time>2025-01-11T11:04:09Z</time>
      </trkpt>
      <trkpt lat="48.20961" lon="6.62436">
        <ele>430.7</ele>
        <time>2025-01-11T11:04:18Z</time>
      </trkpt>
      <trkpt lat="48.2097" lon="6.62441">
        <ele>431.2</ele>
        <time>2025-01-11T11:04:27Z</time>
      </trkpt>
      <trkpt lat="48.20979" lon="6.62444">
        <ele>431.6</ele>
        <time>2025-01-11T11:04:37Z</time>
      </trkpt>
      <trkpt lat="48.20983" lon="6.62445">
        <ele>431.8</ele>
        <time>2025-01-11T11:04:43Z</time>
      </trkpt>
      <trkpt lat="48.20984" lon="6.62445">
        <ele>431.9</ele>
        <time>2025-01-11T11:04:44Z</time>
      </trkpt>
      <trkpt lat="48.20985" lon="6.62446">
        <ele>432</ele>
        <time>2025-01-11T11:04:45Z</time>
      </trkpt>
      <trkpt lat="48.20986" lon="6.62446">
        <ele>432</ele>
        <time>2025-01-11T11:04:46Z</time>
      </trkpt>
      <trkpt lat="48.20987" lon="6.62446">
        <ele>432.2</ele>
        <time>2025-01-11T11:04:47Z</time>
      </trkpt>
      <trkpt lat="48.20996" lon="6.6245">
        <ele>432.7</ele>
        <time>2025-01-11T11:04:55Z</time>
      </trkpt>
      <trkpt lat="48.21005" lon="6.6245">
        <ele>433.1</ele>
        <time>2025-01-11T11:05:03Z</time>
      </trkpt>
      <trkpt lat="48.21015" lon="6.62453">
        <ele>433.4</ele>
        <time>2025-01-11T11:05:12Z</time>
      </trkpt>
      <trkpt lat="48.21024" lon="6.62457">
        <ele>433.3</ele>
        <time>2025-01-11T11:05:20Z</time>
      </trkpt>
      <trkpt lat="48.21032" lon="6.62464">
        <ele>433</ele>
        <time>2025-01-11T11:05:29Z</time>
      </trkpt>
      <trkpt lat="48.21042" lon="6.62469">
        <ele>432.5</ele>
        <time>2025-01-11T11:05:37Z</time>
      </trkpt>
      <trkpt lat="48.2105" lon="6.62474">
        <ele>432</ele>
        <time>2025-01-11T11:05:45Z</time>
      </trkpt>
      <trkpt lat="48.21058" lon="6.62481">
        <ele>431.8</ele>
        <time>2025-01-11T11:05:54Z</time>
      </trkpt>
      <trkpt lat="48.21067" lon="6.62487">
        <ele>431.4</ele>
        <time>2025-01-11T11:06:03Z</time>
      </trkpt>
      <trkpt lat="48.21076" lon="6.6249">
        <ele>431</ele>
        <time>2025-01-11T11:06:15Z</time>
      </trkpt>
      <trkpt lat="48.21083" lon="6.625">
        <ele>430.8</ele>
        <time>2025-01-11T11:06:28Z</time>
      </trkpt>
      <trkpt lat="48.21086" lon="6.62513">
        <ele>431.4</ele>
        <time>2025-01-11T11:06:35Z</time>
      </trkpt>
      <trkpt lat="48.21088" lon="6.62527">
        <ele>431.9</ele>
        <time>2025-01-11T11:06:43Z</time>
      </trkpt>
      <trkpt lat="48.21094" lon="6.62539">
        <ele>432.3</ele>
        <time>2025-01-11T11:06:51Z</time>
      </trkpt>
      <trkpt lat="48.21099" lon="6.62551">
        <ele>432.6</ele>
        <time>2025-01-11T11:07:00Z</time>
      </trkpt>
      <trkpt lat="48.21104" lon="6.62564">
        <ele>432.7</ele>
        <time>2025-01-11T11:07:09Z</time>
      </trkpt>
      <trkpt lat="48.21108" lon="6.62577">
        <ele>432.7</ele>
        <time>2025-01-11T11:07:17Z</time>
      </trkpt>
      <trkpt lat="48.21114" lon="6.62588">
        <ele>432.7</ele>
        <time>2025-01-11T11:07:25Z</time>
      </trkpt>
      <trkpt lat="48.21116" lon="6.62602">
        <ele>432.7</ele>
        <time>2025-01-11T11:07:34Z</time>
      </trkpt>
      <trkpt lat="48.21122" lon="6.62613">
        <ele>432.7</ele>
        <time>2025-01-11T11:07:43Z</time>
      </trkpt>
      <trkpt lat="48.21127" lon="6.62625">
        <ele>432.5</ele>
        <time>2025-01-11T11:07:54Z</time>
      </trkpt>
      <trkpt lat="48.21129" lon="6.62639">
        <ele>432.4</ele>
        <time>2025-01-11T11:08:01Z</time>
      </trkpt>
      <trkpt lat="48.21133" lon="6.62651">
        <ele>432</ele>
        <time>2025-01-11T11:08:11Z</time>
      </trkpt>
      <trkpt lat="48.2114" lon="6.62662">
        <ele>431.5</ele>
        <time>2025-01-11T11:08:24Z</time>
      </trkpt>
      <trkpt lat="48.21149" lon="6.62666">
        <ele>431.3</ele>
        <time>2025-01-11T11:08:32Z</time>
      </trkpt>
      <trkpt lat="48.21158" lon="6.62675">
        <ele>430.7</ele>
        <time>2025-01-11T11:08:42Z</time>
      </trkpt>
      <trkpt lat="48.21165" lon="6.62685">
        <ele>429.8</ele>
        <time>2025-01-11T11:08:52Z</time>
      </trkpt>
      <trkpt lat="48.21171" lon="6.62695">
        <ele>428.4</ele>
        <time>2025-01-11T11:09:02Z</time>
      </trkpt>
      <trkpt lat="48.21175" lon="6.62708">
        <ele>427.2</ele>
        <time>2025-01-11T11:09:13Z</time>
      </trkpt>
      <trkpt lat="48.2118" lon="6.62719">
        <ele>426.5</ele>
        <time>2025-01-11T11:09:21Z</time>
      </trkpt>
      <trkpt lat="48.21187" lon="6.6273">
        <ele>425.5</ele>
        <time>2025-01-11T11:09:30Z</time>
      </trkpt>
      <trkpt lat="48.21192" lon="6.62742">
        <ele>424.4</ele>
        <time>2025-01-11T11:09:37Z</time>
      </trkpt>
      <trkpt lat="48.21199" lon="6.62753">
        <ele>423.3</ele>
        <time>2025-01-11T11:09:45Z</time>
      </trkpt>
      <trkpt lat="48.21207" lon="6.62759">
        <ele>422.3</ele>
        <time>2025-01-11T11:09:53Z</time>
      </trkpt>
      <trkpt lat="48.21214" lon="6.62768">
        <ele>421.4</ele>
        <time>2025-01-11T11:10:01Z</time>
      </trkpt>
      <trkpt lat="48.21222" lon="6.62777">
        <ele>420.4</ele>
        <time>2025-01-11T11:10:10Z</time>
      </trkpt>
      <trkpt lat="48.2123" lon="6.62784">
        <ele>419.7</ele>
        <time>2025-01-11T11:10:20Z</time>
      </trkpt>
      <trkpt lat="48.21239" lon="6.6279">
        <ele>418.7</ele>
        <time>2025-01-11T11:10:29Z</time>
      </trkpt>
      <trkpt lat="48.21242" lon="6.6279">
        <ele>418.6</ele>
        <time>2025-01-11T11:10:35Z</time>
      </trkpt>
      <trkpt lat="48.21242" lon="6.6279">
        <ele>418.6</ele>
        <time>2025-01-11T11:10:36Z</time>
      </trkpt>
      <trkpt lat="48.21242" lon="6.62791">
        <ele>418.6</ele>
        <time>2025-01-11T11:10:37Z</time>
      </trkpt>
      <trkpt lat="48.21243" lon="6.62792">
        <ele>418.6</ele>
        <time>2025-01-11T11:10:38Z</time>
      </trkpt>
      <trkpt lat="48.21243" lon="6.62793">
        <ele>418.6</ele>
        <time>2025-01-11T11:10:39Z</time>
      </trkpt>
      <trkpt lat="48.21244" lon="6.62794">
        <ele>418.2</ele>
        <time>2025-01-11T11:10:40Z</time>
      </trkpt>
      <trkpt lat="48.21246" lon="6.62799">
        <ele>417.8</ele>
        <time>2025-01-11T11:10:53Z</time>
      </trkpt>
      <trkpt lat="48.21247" lon="6.62799">
        <ele>417.8</ele>
        <time>2025-01-11T11:10:54Z</time>
      </trkpt>
      <trkpt lat="48.21247" lon="6.628">
        <ele>417.8</ele>
        <time>2025-01-11T11:10:55Z</time>
      </trkpt>
      <trkpt lat="48.21248" lon="6.628">
        <ele>417.8</ele>
        <time>2025-01-11T11:10:56Z</time>
      </trkpt>
      <trkpt lat="48.21249" lon="6.62801">
        <ele>417.9</ele>
        <time>2025-01-11T11:10:57Z</time>
      </trkpt>
      <trkpt lat="48.21258" lon="6.62807">
        <ele>416.9</ele>
        <time>2025-01-11T11:11:19Z</time>
      </trkpt>
      <trkpt lat="48.21266" lon="6.62814">
        <ele>416.5</ele>
        <time>2025-01-11T11:11:29Z</time>
      </trkpt>
      <trkpt lat="48.21275" lon="6.6282">
        <ele>416.5</ele>
        <time>2025-01-11T11:11:38Z</time>
      </trkpt>
      <trkpt lat="48.21284" lon="6.62824">
        <ele>416.7</ele>
        <time>2025-01-11T11:11:49Z</time>
      </trkpt>
      <trkpt lat="48.21292" lon="6.62831">
        <ele>416.9</ele>
        <time>2025-01-11T11:11:57Z</time>
      </trkpt>
      <trkpt lat="48.213" lon="6.62837">
        <ele>416.9</ele>
        <time>2025-01-11T11:12:05Z</time>
      </trkpt>
      <trkpt lat="48.21309" lon="6.62845">
        <ele>416.8</ele>
        <time>2025-01-11T11:12:13Z</time>
      </trkpt>
      <trkpt lat="48.21317" lon="6.62852">
        <ele>417</ele>
        <time>2025-01-11T11:12:20Z</time>
      </trkpt>
      <trkpt lat="48.21325" lon="6.6286">
        <ele>417.2</ele>
        <time>2025-01-11T11:12:28Z</time>
      </trkpt>
      <trkpt lat="48.21333" lon="6.62868">
        <ele>417.3</ele>
        <time>2025-01-11T11:12:36Z</time>
      </trkpt>
      <trkpt lat="48.21342" lon="6.62877">
        <ele>417.1</ele>
        <time>2025-01-11T11:12:44Z</time>
      </trkpt>
      <trkpt lat="48.21349" lon="6.62884">
        <ele>416.8</ele>
        <time>2025-01-11T11:12:51Z</time>
      </trkpt>
      <trkpt lat="48.21358" lon="6.62892">
        <ele>416.4</ele>
        <time>2025-01-11T11:12:59Z</time>
      </trkpt>
      <trkpt lat="48.21366" lon="6.62899">
        <ele>416.1</ele>
        <time>2025-01-11T11:13:07Z</time>
      </trkpt>
      <trkpt lat="48.21374" lon="6.62906">
        <ele>415.6</ele>
        <time>2025-01-11T11:13:15Z</time>
      </trkpt>
      <trkpt lat="48.21382" lon="6.62912">
        <ele>415.4</ele>
        <time>2025-01-11T11:13:23Z</time>
      </trkpt>
      <trkpt lat="48.21391" lon="6.62919">
        <ele>415</ele>
        <time>2025-01-11T11:13:31Z</time>
      </trkpt>
      <trkpt lat="48.214" lon="6.62926">
        <ele>414.7</ele>
        <time>2025-01-11T11:13:39Z</time>
      </trkpt>
      <trkpt lat="48.21409" lon="6.62932">
        <ele>414.1</ele>
        <time>2025-01-11T11:13:47Z</time>
      </trkpt>
      <trkpt lat="48.21418" lon="6.62937">
        <ele>413.5</ele>
        <time>2025-01-11T11:13:55Z</time>
      </trkpt>
      <trkpt lat="48.21428" lon="6.62942">
        <ele>412.9</ele>
        <time>2025-01-11T11:14:03Z</time>
      </trkpt>
      <trkpt lat="48.21438" lon="6.62947">
        <ele>412.4</ele>
        <time>2025-01-11T11:14:11Z</time>
      </trkpt>
      <trkpt lat="48.21447" lon="6.62949">
        <ele>411.9</ele>
        <time>2025-01-11T11:14:19Z</time>
      </trkpt>
      <trkpt lat="48.21456" lon="6.62952">
        <ele>411.6</ele>
        <time>2025-01-11T11:14:27Z</time>
      </trkpt>
      <trkpt lat="48.21465" lon="6.62953">
        <ele>411.3</ele>
        <time>2025-01-11T11:14:35Z</time>
      </trkpt>
      <trkpt lat="48.21474" lon="6.62954">
        <ele>411.1</ele>
        <time>2025-01-11T11:14:43Z</time>
      </trkpt>
      <trkpt lat="48.21483" lon="6.62955">
        <ele>410.9</ele>
        <time>2025-01-11T11:14:52Z</time>
      </trkpt>
      <trkpt lat="48.21493" lon="6.62957">
        <ele>410.6</ele>
        <time>2025-01-11T11:15:01Z</time>
      </trkpt>
      <trkpt lat="48.21498" lon="6.62957">
        <ele>410.6</ele>
        <time>2025-01-11T11:15:14Z</time>
      </trkpt>
      <trkpt lat="48.21498" lon="6.62957">
        <ele>410.6</ele>
        <time>2025-01-11T11:15:15Z</time>
      </trkpt>
      <trkpt lat="48.21501" lon="6.62958">
        <ele>410.6</ele>
        <time>2025-01-11T11:15:20Z</time>
      </trkpt>
      <trkpt lat="48.21501" lon="6.62959">
        <ele>410.6</ele>
        <time>2025-01-11T11:15:21Z</time>
      </trkpt>
      <trkpt lat="48.21502" lon="6.6296">
        <ele>410.6</ele>
        <time>2025-01-11T11:15:22Z</time>
      </trkpt>
      <trkpt lat="48.21502" lon="6.62974">
        <ele>410.1</ele>
        <time>2025-01-11T11:15:31Z</time>
      </trkpt>
      <trkpt lat="48.21502" lon="6.62977">
        <ele>410.1</ele>
        <time>2025-01-11T11:15:38Z</time>
      </trkpt>
      <trkpt lat="48.21502" lon="6.62977">
        <ele>410.1</ele>
        <time>2025-01-11T11:15:39Z</time>
      </trkpt>
      <trkpt lat="48.21502" lon="6.62977">
        <ele>410.1</ele>
        <time>2025-01-11T11:15:40Z</time>
      </trkpt>
      <trkpt lat="48.215" lon="6.62963">
        <ele>410.6</ele>
        <time>2025-01-11T11:15:52Z</time>
      </trkpt>
      <trkpt lat="48.21491" lon="6.62957">
        <ele>410.9</ele>
        <time>2025-01-11T11:16:01Z</time>
      </trkpt>
      <trkpt lat="48.21482" lon="6.62958">
        <ele>411</ele>
        <time>2025-01-11T11:16:09Z</time>
      </trkpt>
      <trkpt lat="48.21472" lon="6.62954">
        <ele>411.4</ele>
        <time>2025-01-11T11:16:17Z</time>
      </trkpt>
      <trkpt lat="48.21463" lon="6.62952">
        <ele>411.8</ele>
        <time>2025-01-11T11:16:25Z</time>
      </trkpt>
      <trkpt lat="48.21453" lon="6.62951">
        <ele>412.2</ele>
        <time>2025-01-11T11:16:33Z</time>
      </trkpt>
      <trkpt lat="48.21443" lon="6.62948">
        <ele>412.5</ele>
        <time>2025-01-11T11:16:41Z</time>
      </trkpt>
      <trkpt lat="48.21434" lon="6.62944">
        <ele>413.1</ele>
        <time>2025-01-11T11:16:49Z</time>
      </trkpt>
      <trkpt lat="48.21425" lon="6.6294">
        <ele>413.6</ele>
        <time>2025-01-11T11:16:57Z</time>
      </trkpt>
      <trkpt lat="48.21416" lon="6.62935">
        <ele>414.2</ele>
        <time>2025-01-11T11:17:05Z</time>
      </trkpt>
      <trkpt lat="48.21407" lon="6.6293">
        <ele>415</ele>
        <time>2025-01-11T11:17:13Z</time>
      </trkpt>
      <trkpt lat="48.21398" lon="6.62923">
        <ele>415.4</ele>
        <time>2025-01-11T11:17:21Z</time>
      </trkpt>
      <trkpt lat="48.21389" lon="6.62917">
        <ele>415.9</ele>
        <time>2025-01-11T11:17:29Z</time>
      </trkpt>
      <trkpt lat="48.21381" lon="6.62912">
        <ele>416.2</ele>
        <time>2025-01-11T11:17:37Z</time>
      </trkpt>
      <trkpt lat="48.21373" lon="6.62905">
        <ele>416.6</ele>
        <time>2025-01-11T11:17:45Z</time>
      </trkpt>
      <trkpt lat="48.21365" lon="6.62898">
        <ele>417</ele>
        <time>2025-01-11T11:17:53Z</time>
      </trkpt>
      <trkpt lat="48.21356" lon="6.62891">
        <ele>417.5</ele>
        <time>2025-01-11T11:18:02Z</time>
      </trkpt>
      <trkpt lat="48.21348" lon="6.62883">
        <ele>418</ele>
        <time>2025-01-11T11:18:10Z</time>
      </trkpt>
      <trkpt lat="48.21341" lon="6.62875">
        <ele>418.2</ele>
        <time>2025-01-11T11:18:18Z</time>
      </trkpt>
      <trkpt lat="48.21333" lon="6.62867">
        <ele>418.4</ele>
        <time>2025-01-11T11:18:25Z</time>
      </trkpt>
      <trkpt lat="48.21324" lon="6.62858">
        <ele>418.4</ele>
        <time>2025-01-11T11:18:33Z</time>
      </trkpt>
      <trkpt lat="48.21316" lon="6.62851">
        <ele>418.2</ele>
        <time>2025-01-11T11:18:40Z</time>
      </trkpt>
      <trkpt lat="48.21308" lon="6.62844">
        <ele>418.2</ele>
        <time>2025-01-11T11:18:48Z</time>
      </trkpt>
      <trkpt lat="48.21299" lon="6.62837">
        <ele>418.2</ele>
        <time>2025-01-11T11:18:56Z</time>
      </trkpt>
      <trkpt lat="48.21291" lon="6.62832">
        <ele>418.2</ele>
        <time>2025-01-11T11:19:04Z</time>
      </trkpt>
      <trkpt lat="48.21282" lon="6.62823">
        <ele>418</ele>
        <time>2025-01-11T11:19:11Z</time>
      </trkpt>
      <trkpt lat="48.21274" lon="6.62817">
        <ele>417.9</ele>
        <time>2025-01-11T11:19:18Z</time>
      </trkpt>
      <trkpt lat="48.21265" lon="6.62812">
        <ele>418</ele>
        <time>2025-01-11T11:19:26Z</time>
      </trkpt>
      <trkpt lat="48.21257" lon="6.62806">
        <ele>418.4</ele>
        <time>2025-01-11T11:19:34Z</time>
      </trkpt>
      <trkpt lat="48.21247" lon="6.62805">
        <ele>419.2</ele>
        <time>2025-01-11T11:19:43Z</time>
      </trkpt>
      <trkpt lat="48.21239" lon="6.62812">
        <ele>419.2</ele>
        <time>2025-01-11T11:19:51Z</time>
      </trkpt>
      <trkpt lat="48.21231" lon="6.62822">
        <ele>419.4</ele>
        <time>2025-01-11T11:19:59Z</time>
      </trkpt>
      <trkpt lat="48.21222" lon="6.62828">
        <ele>419.8</ele>
        <time>2025-01-11T11:20:06Z</time>
      </trkpt>
      <trkpt lat="48.21214" lon="6.62834">
        <ele>420.3</ele>
        <time>2025-01-11T11:20:13Z</time>
      </trkpt>
      <trkpt lat="48.21206" lon="6.62842">
        <ele>420.5</ele>
        <time>2025-01-11T11:20:22Z</time>
      </trkpt>
      <trkpt lat="48.21198" lon="6.6285">
        <ele>420.5</ele>
        <time>2025-01-11T11:20:30Z</time>
      </trkpt>
      <trkpt lat="48.2119" lon="6.6286">
        <ele>420.7</ele>
        <time>2025-01-11T11:20:38Z</time>
      </trkpt>
      <trkpt lat="48.21183" lon="6.62869">
        <ele>421.1</ele>
        <time>2025-01-11T11:20:46Z</time>
      </trkpt>
      <trkpt lat="48.21177" lon="6.62879">
        <ele>421.5</ele>
        <time>2025-01-11T11:20:54Z</time>
      </trkpt>
      <trkpt lat="48.2117" lon="6.62889">
        <ele>422</ele>
        <time>2025-01-11T11:21:03Z</time>
      </trkpt>
      <trkpt lat="48.21162" lon="6.62898">
        <ele>422.5</ele>
        <time>2025-01-11T11:21:11Z</time>
      </trkpt>
      <trkpt lat="48.21155" lon="6.62908">
        <ele>422.7</ele>
        <time>2025-01-11T11:21:19Z</time>
      </trkpt>
      <trkpt lat="48.21149" lon="6.62918">
        <ele>422.8</ele>
        <time>2025-01-11T11:21:27Z</time>
      </trkpt>
      <trkpt lat="48.21142" lon="6.62927">
        <ele>422.9</ele>
        <time>2025-01-11T11:21:35Z</time>
      </trkpt>
      <trkpt lat="48.21133" lon="6.62935">
        <ele>423</ele>
        <time>2025-01-11T11:21:43Z</time>
      </trkpt>
      <trkpt lat="48.21126" lon="6.62944">
        <ele>423</ele>
        <time>2025-01-11T11:21:51Z</time>
      </trkpt>
      <trkpt lat="48.21121" lon="6.62955">
        <ele>422.9</ele>
        <time>2025-01-11T11:21:59Z</time>
      </trkpt>
      <trkpt lat="48.2112" lon="6.62969">
        <ele>422.6</ele>
        <time>2025-01-11T11:22:07Z</time>
      </trkpt>
      <trkpt lat="48.2112" lon="6.62984">
        <ele>422.2</ele>
        <time>2025-01-11T11:22:15Z</time>
      </trkpt>
      <trkpt lat="48.21123" lon="6.62997">
        <ele>421.8</ele>
        <time>2025-01-11T11:22:22Z</time>
      </trkpt>
      <trkpt lat="48.21127" lon="6.63012">
        <ele>421.2</ele>
        <time>2025-01-11T11:22:30Z</time>
      </trkpt>
      <trkpt lat="48.2113" lon="6.63026">
        <ele>420</ele>
        <time>2025-01-11T11:22:38Z</time>
      </trkpt>
      <trkpt lat="48.21132" lon="6.63039">
        <ele>419.1</ele>
        <time>2025-01-11T11:22:46Z</time>
      </trkpt>
      <trkpt lat="48.21134" lon="6.63054">
        <ele>418.4</ele>
        <time>2025-01-11T11:22:55Z</time>
      </trkpt>
      <trkpt lat="48.21133" lon="6.63069">
        <ele>417.4</ele>
        <time>2025-01-11T11:23:04Z</time>
      </trkpt>
      <trkpt lat="48.21131" lon="6.63083">
        <ele>416.5</ele>
        <time>2025-01-11T11:23:12Z</time>
      </trkpt>
      <trkpt lat="48.21129" lon="6.63097">
        <ele>415.4</ele>
        <time>2025-01-11T11:23:20Z</time>
      </trkpt>
      <trkpt lat="48.21127" lon="6.6311">
        <ele>414.5</ele>
        <time>2025-01-11T11:23:27Z</time>
      </trkpt>
      <trkpt lat="48.21124" lon="6.63125">
        <ele>413.3</ele>
        <time>2025-01-11T11:23:35Z</time>
      </trkpt>
      <trkpt lat="48.21122" lon="6.63139">
        <ele>412.7</ele>
        <time>2025-01-11T11:23:43Z</time>
      </trkpt>
      <trkpt lat="48.21119" lon="6.63153">
        <ele>412.3</ele>
        <time>2025-01-11T11:23:51Z</time>
      </trkpt>
      <trkpt lat="48.21116" lon="6.63167">
        <ele>412</ele>
        <time>2025-01-11T11:23:59Z</time>
      </trkpt>
      <trkpt lat="48.21116" lon="6.63167">
        <ele>412.1</ele>
        <time>2025-01-11T11:24:04Z</time>
      </trkpt>
      <trkpt lat="48.21117" lon="6.63166">
        <ele>412.2</ele>
        <time>2025-01-11T11:24:05Z</time>
      </trkpt>
      <trkpt lat="48.21117" lon="6.63166">
        <ele>412.2</ele>
        <time>2025-01-11T11:24:06Z</time>
      </trkpt>
      <trkpt lat="48.21117" lon="6.63166">
        <ele>412.2</ele>
        <time>2025-01-11T11:24:07Z</time>
      </trkpt>
      <trkpt lat="48.21117" lon="6.63166">
        <ele>412.2</ele>
        <time>2025-01-11T11:24:08Z</time>
      </trkpt>
      <trkpt lat="48.21117" lon="6.63166">
        <ele>412.3</ele>
        <time>2025-01-11T11:24:09Z</time>
      </trkpt>
      <trkpt lat="48.21117" lon="6.63166">
        <ele>412.3</ele>
        <time>2025-01-11T11:24:10Z</time>
      </trkpt>
      <trkpt lat="48.21115" lon="6.6317">
        <ele>412.2</ele>
        <time>2025-01-11T11:24:19Z</time>
      </trkpt>
      <trkpt lat="48.21115" lon="6.63171">
        <ele>412.2</ele>
        <time>2025-01-11T11:24:20Z</time>
      </trkpt>
      <trkpt lat="48.21111" lon="6.63184">
        <ele>412.1</ele>
        <time>2025-01-11T11:24:27Z</time>
      </trkpt>
      <trkpt lat="48.21108" lon="6.63197">
        <ele>411.9</ele>
        <time>2025-01-11T11:24:36Z</time>
      </trkpt>
      <trkpt lat="48.21104" lon="6.63209">
        <ele>411.7</ele>
        <time>2025-01-11T11:24:44Z</time>
      </trkpt>
      <trkpt lat="48.21099" lon="6.63222">
        <ele>411.4</ele>
        <time>2025-01-11T11:24:52Z</time>
      </trkpt>
      <trkpt lat="48.21096" lon="6.63235">
        <ele>410.6</ele>
        <time>2025-01-11T11:25:10Z</time>
      </trkpt>
      <trkpt lat="48.21091" lon="6.63248">
        <ele>410</ele>
        <time>2025-01-11T11:25:18Z</time>
      </trkpt>
      <trkpt lat="48.21085" lon="6.6326">
        <ele>409.8</ele>
        <time>2025-01-11T11:25:26Z</time>
      </trkpt>
      <trkpt lat="48.2108" lon="6.63272">
        <ele>409.4</ele>
        <time>2025-01-11T11:25:34Z</time>
      </trkpt>
      <trkpt lat="48.21073" lon="6.63283">
        <ele>409</ele>
        <time>2025-01-11T11:25:42Z</time>
      </trkpt>
      <trkpt lat="48.21067" lon="6.63293">
        <ele>408.8</ele>
        <time>2025-01-11T11:25:50Z</time>
      </trkpt>
      <trkpt lat="48.2106" lon="6.63303">
        <ele>409.2</ele>
        <time>2025-01-11T11:25:58Z</time>
      </trkpt>
      <trkpt lat="48.21053" lon="6.63314">
        <ele>409.3</ele>
        <time>2025-01-11T11:26:06Z</time>
      </trkpt>
      <trkpt lat="48.21049" lon="6.63327">
        <ele>409.9</ele>
        <time>2025-01-11T11:26:14Z</time>
      </trkpt>
      <trkpt lat="48.21046" lon="6.6334">
        <ele>410.4</ele>
        <time>2025-01-11T11:26:22Z</time>
      </trkpt>
      <trkpt lat="48.21041" lon="6.63353">
        <ele>410.8</ele>
        <time>2025-01-11T11:26:29Z</time>
      </trkpt>
      <trkpt lat="48.21036" lon="6.63366">
        <ele>411.6</ele>
        <time>2025-01-11T11:26:38Z</time>
      </trkpt>
      <trkpt lat="48.21035" lon="6.6338">
        <ele>411.7</ele>
        <time>2025-01-11T11:26:46Z</time>
      </trkpt>
      <trkpt lat="48.21041" lon="6.63391">
        <ele>411.6</ele>
        <time>2025-01-11T11:26:53Z</time>
      </trkpt>
      <trkpt lat="48.21044" lon="6.63395">
        <ele>411.6</ele>
        <time>2025-01-11T11:27:03Z</time>
      </trkpt>
      <trkpt lat="48.21044" lon="6.63395">
        <ele>411.6</ele>
        <time>2025-01-11T11:27:04Z</time>
      </trkpt>
      <trkpt lat="48.21044" lon="6.63394">
        <ele>411.6</ele>
        <time>2025-01-11T11:27:08Z</time>
      </trkpt>
      <trkpt lat="48.21044" lon="6.63395">
        <ele>411.6</ele>
        <time>2025-01-11T11:27:09Z</time>
      </trkpt>
      <trkpt lat="48.21049" lon="6.63405">
        <ele>411.6</ele>
        <time>2025-01-11T11:27:16Z</time>
      </trkpt>
      <trkpt lat="48.21056" lon="6.63415">
        <ele>411.7</ele>
        <time>2025-01-11T11:27:23Z</time>
      </trkpt>
      <trkpt lat="48.21064" lon="6.63425">
        <ele>412</ele>
        <time>2025-01-11T11:27:30Z</time>
      </trkpt>
      <trkpt lat="48.2107" lon="6.63435">
        <ele>412.3</ele>
        <time>2025-01-11T11:27:39Z</time>
      </trkpt>
      <trkpt lat="48.21078" lon="6.63444">
        <ele>412.7</ele>
        <time>2025-01-11T11:27:47Z</time>
      </trkpt>
      <trkpt lat="48.21087" lon="6.63449">
        <ele>413.1</ele>
        <time>2025-01-11T11:27:54Z</time>
      </trkpt>
      <trkpt lat="48.21096" lon="6.63453">
        <ele>413.6</ele>
        <time>2025-01-11T11:28:00Z</time>
      </trkpt>
      <trkpt lat="48.21105" lon="6.63459">
        <ele>414.1</ele>
        <time>2025-01-11T11:28:07Z</time>
      </trkpt>
      <trkpt lat="48.21114" lon="6.63464">
        <ele>414.7</ele>
        <time>2025-01-11T11:28:14Z</time>
      </trkpt>
      <trkpt lat="48.2112" lon="6.63469">
        <ele>415.1</ele>
        <time>2025-01-11T11:28:26Z</time>
      </trkpt>
      <trkpt lat="48.2112" lon="6.63469">
        <ele>415.1</ele>
        <time>2025-01-11T11:28:27Z</time>
      </trkpt>
      <trkpt lat="48.21122" lon="6.63468">
        <ele>415.2</ele>
        <time>2025-01-11T11:28:45Z</time>
      </trkpt>
      <trkpt lat="48.21123" lon="6.63469">
        <ele>415.2</ele>
        <time>2025-01-11T11:28:46Z</time>
      </trkpt>
      <trkpt lat="48.21125" lon="6.63469">
        <ele>415.3</ele>
        <time>2025-01-11T11:28:47Z</time>
      </trkpt>
      <trkpt lat="48.21134" lon="6.63474">
        <ele>415.8</ele>
        <time>2025-01-11T11:28:56Z</time>
      </trkpt>
      <trkpt lat="48.21144" lon="6.63477">
        <ele>416.2</ele>
        <time>2025-01-11T11:29:05Z</time>
      </trkpt>
      <trkpt lat="48.21153" lon="6.63479">
        <ele>415</ele>
        <time>2025-01-11T11:29:12Z</time>
      </trkpt>
      <trkpt lat="48.21163" lon="6.6348">
        <ele>411.8</ele>
        <time>2025-01-11T11:29:18Z</time>
      </trkpt>
      <trkpt lat="48.21172" lon="6.63479">
        <ele>408.5</ele>
        <time>2025-01-11T11:29:24Z</time>
      </trkpt>
      <trkpt lat="48.21181" lon="6.63477">
        <ele>407.1</ele>
        <time>2025-01-11T11:29:31Z</time>
      </trkpt>
      <trkpt lat="48.21189" lon="6.63468">
        <ele>407.1</ele>
        <time>2025-01-11T11:29:40Z</time>
      </trkpt>
      <trkpt lat="48.21199" lon="6.63461">
        <ele>407.2</ele>
        <time>2025-01-11T11:29:53Z</time>
      </trkpt>
      <trkpt lat="48.21208" lon="6.63455">
        <ele>407.3</ele>
        <time>2025-01-11T11:30:00Z</time>
      </trkpt>
      <trkpt lat="48.21217" lon="6.6345">
        <ele>407.5</ele>
        <time>2025-01-11T11:30:08Z</time>
      </trkpt>
      <trkpt lat="48.21227" lon="6.63447">
        <ele>407.6</ele>
        <time>2025-01-11T11:30:16Z</time>
      </trkpt>
      <trkpt lat="48.21236" lon="6.63447">
        <ele>407.5</ele>
        <time>2025-01-11T11:30:25Z</time>
      </trkpt>
      <trkpt lat="48.21246" lon="6.63448">
        <ele>407.5</ele>
        <time>2025-01-11T11:30:34Z</time>
      </trkpt>
      <trkpt lat="48.21255" lon="6.63445">
        <ele>407.3</ele>
        <time>2025-01-11T11:30:40Z</time>
      </trkpt>
      <trkpt lat="48.21265" lon="6.63441">
        <ele>407.2</ele>
        <time>2025-01-11T11:30:47Z</time>
      </trkpt>
      <trkpt lat="48.21275" lon="6.63437">
        <ele>406.9</ele>
        <time>2025-01-11T11:30:55Z</time>
      </trkpt>
      <trkpt lat="48.21285" lon="6.63435">
        <ele>406.6</ele>
        <time>2025-01-11T11:31:04Z</time>
      </trkpt>
      <trkpt lat="48.21295" lon="6.63437">
        <ele>406.1</ele>
        <time>2025-01-11T11:31:12Z</time>
      </trkpt>
      <trkpt lat="48.21305" lon="6.63434">
        <ele>405.7</ele>
        <time>2025-01-11T11:31:20Z</time>
      </trkpt>
      <trkpt lat="48.21315" lon="6.63434">
        <ele>405.4</ele>
        <time>2025-01-11T11:31:28Z</time>
      </trkpt>
      <trkpt lat="48.21326" lon="6.63436">
        <ele>405</ele>
        <time>2025-01-11T11:31:36Z</time>
      </trkpt>
      <trkpt lat="48.21335" lon="6.63435">
        <ele>404.6</ele>
        <time>2025-01-11T11:31:42Z</time>
      </trkpt>
      <trkpt lat="48.21344" lon="6.63434">
        <ele>404.3</ele>
        <time>2025-01-11T11:31:50Z</time>
      </trkpt>
      <trkpt lat="48.21353" lon="6.6344">
        <ele>404</ele>
        <time>2025-01-11T11:31:58Z</time>
      </trkpt>
      <trkpt lat="48.21362" lon="6.63443">
        <ele>403.8</ele>
        <time>2025-01-11T11:32:06Z</time>
      </trkpt>
      <trkpt lat="48.21371" lon="6.63447">
        <ele>403.6</ele>
        <time>2025-01-11T11:32:14Z</time>
      </trkpt>
      <trkpt lat="48.2138" lon="6.63453">
        <ele>403.6</ele>
        <time>2025-01-11T11:32:22Z</time>
      </trkpt>
      <trkpt lat="48.2139" lon="6.63454">
        <ele>403.5</ele>
        <time>2025-01-11T11:32:30Z</time>
      </trkpt>
      <trkpt lat="48.214" lon="6.63451">
        <ele>403.6</ele>
        <time>2025-01-11T11:32:38Z</time>
      </trkpt>
      <trkpt lat="48.21408" lon="6.63444">
        <ele>403.7</ele>
        <time>2025-01-11T11:32:44Z</time>
      </trkpt>
      <trkpt lat="48.21417" lon="6.63441">
        <ele>404</ele>
        <time>2025-01-11T11:32:50Z</time>
      </trkpt>
      <trkpt lat="48.21427" lon="6.63439">
        <ele>404.3</ele>
        <time>2025-01-11T11:32:59Z</time>
      </trkpt>
      <trkpt lat="48.21436" lon="6.63436">
        <ele>404.7</ele>
        <time>2025-01-11T11:33:06Z</time>
      </trkpt>
      <trkpt lat="48.21445" lon="6.63436">
        <ele>405</ele>
        <time>2025-01-11T11:33:15Z</time>
      </trkpt>
      <trkpt lat="48.21454" lon="6.63438">
        <ele>405.2</ele>
        <time>2025-01-11T11:33:27Z</time>
      </trkpt>
      <trkpt lat="48.21463" lon="6.63435">
        <ele>405.3</ele>
        <time>2025-01-11T11:33:34Z</time>
      </trkpt>
      <trkpt lat="48.21472" lon="6.6343">
        <ele>405.1</ele>
        <time>2025-01-11T11:33:38Z</time>
      </trkpt>
      <trkpt lat="48.21481" lon="6.63428">
        <ele>404.9</ele>
        <time>2025-01-11T11:33:46Z</time>
      </trkpt>
      <trkpt lat="48.21492" lon="6.63428">
        <ele>404.5</ele>
        <time>2025-01-11T11:33:55Z</time>
      </trkpt>
      <trkpt lat="48.21501" lon="6.63426">
        <ele>404.2</ele>
        <time>2025-01-11T11:33:59Z</time>
      </trkpt>
      <trkpt lat="48.2151" lon="6.63425">
        <ele>403.8</ele>
        <time>2025-01-11T11:34:04Z</time>
      </trkpt>
      <trkpt lat="48.2152" lon="6.63421">
        <ele>403.4</ele>
        <time>2025-01-11T11:34:11Z</time>
      </trkpt>
      <trkpt lat="48.21529" lon="6.6342">
        <ele>403.1</ele>
        <time>2025-01-11T11:34:18Z</time>
      </trkpt>
      <trkpt lat="48.21538" lon="6.63418">
        <ele>402.8</ele>
        <time>2025-01-11T11:34:24Z</time>
      </trkpt>
      <trkpt lat="48.21548" lon="6.63418">
        <ele>402.5</ele>
        <time>2025-01-11T11:34:33Z</time>
      </trkpt>
      <trkpt lat="48.21558" lon="6.63415">
        <ele>402.3</ele>
        <time>2025-01-11T11:34:40Z</time>
      </trkpt>
      <trkpt lat="48.21567" lon="6.63413">
        <ele>402</ele>
        <time>2025-01-11T11:34:50Z</time>
      </trkpt>
      <trkpt lat="48.21577" lon="6.63415">
        <ele>401.7</ele>
        <time>2025-01-11T11:35:00Z</time>
      </trkpt>
      <trkpt lat="48.21586" lon="6.63416">
        <ele>401.4</ele>
        <time>2025-01-11T11:35:07Z</time>
      </trkpt>
      <trkpt lat="48.21596" lon="6.63416">
        <ele>401.1</ele>
        <time>2025-01-11T11:35:14Z</time>
      </trkpt>
      <trkpt lat="48.21605" lon="6.63418">
        <ele>400.9</ele>
        <time>2025-01-11T11:35:21Z</time>
      </trkpt>
      <trkpt lat="48.21614" lon="6.63419">
        <ele>400.7</ele>
        <time>2025-01-11T11:35:27Z</time>
      </trkpt>
      <trkpt lat="48.21624" lon="6.63418">
        <ele>400.4</ele>
        <time>2025-01-11T11:35:33Z</time>
      </trkpt>
      <trkpt lat="48.21634" lon="6.6342">
        <ele>399.9</ele>
        <time>2025-01-11T11:35:42Z</time>
      </trkpt>
      <trkpt lat="48.21644" lon="6.63422">
        <ele>399.5</ele>
        <time>2025-01-11T11:35:53Z</time>
      </trkpt>
      <trkpt lat="48.21653" lon="6.63422">
        <ele>399.2</ele>
        <time>2025-01-11T11:36:00Z</time>
      </trkpt>
      <trkpt lat="48.21662" lon="6.63427">
        <ele>398.9</ele>
        <time>2025-01-11T11:36:10Z</time>
      </trkpt>
      <trkpt lat="48.21673" lon="6.63428">
        <ele>398.7</ele>
        <time>2025-01-11T11:36:16Z</time>
      </trkpt>
      <trkpt lat="48.21682" lon="6.63427">
        <ele>398.5</ele>
        <time>2025-01-11T11:36:21Z</time>
      </trkpt>
      <trkpt lat="48.21691" lon="6.63426">
        <ele>398.4</ele>
        <time>2025-01-11T11:36:27Z</time>
      </trkpt>
      <trkpt lat="48.217" lon="6.63421">
        <ele>398.3</ele>
        <time>2025-01-11T11:36:33Z</time>
      </trkpt>
      <trkpt lat="48.2171" lon="6.63417">
        <ele>398.4</ele>
        <time>2025-01-11T11:36:44Z</time>
      </trkpt>
      <trkpt lat="48.2172" lon="6.63415">
        <ele>398.4</ele>
        <time>2025-01-11T11:36:56Z</time>
      </trkpt>
      <trkpt lat="48.21729" lon="6.63413">
        <ele>398.6</ele>
        <time>2025-01-11T11:37:03Z</time>
      </trkpt>
      <trkpt lat="48.21738" lon="6.6341">
        <ele>398.8</ele>
        <time>2025-01-11T11:37:09Z</time>
      </trkpt>
      <trkpt lat="48.21747" lon="6.63405">
        <ele>399</ele>
        <time>2025-01-11T11:37:16Z</time>
      </trkpt>
      <trkpt lat="48.21756" lon="6.63402">
        <ele>399.3</ele>
        <time>2025-01-11T11:37:24Z</time>
      </trkpt>
      <trkpt lat="48.21765" lon="6.63398">
        <ele>399.7</ele>
        <time>2025-01-11T11:37:32Z</time>
      </trkpt>
      <trkpt lat="48.21775" lon="6.63395">
        <ele>400.2</ele>
        <time>2025-01-11T11:37:40Z</time>
      </trkpt>
      <trkpt lat="48.21785" lon="6.63392">
        <ele>400.8</ele>
        <time>2025-01-11T11:37:47Z</time>
      </trkpt>
      <trkpt lat="48.21795" lon="6.63389">
        <ele>401.2</ele>
        <time>2025-01-11T11:37:55Z</time>
      </trkpt>
      <trkpt lat="48.21804" lon="6.63386">
        <ele>401.6</ele>
        <time>2025-01-11T11:38:03Z</time>
      </trkpt>
      <trkpt lat="48.21813" lon="6.63388">
        <ele>401.9</ele>
        <time>2025-01-11T11:38:10Z</time>
      </trkpt>
      <trkpt lat="48.21823" lon="6.63389">
        <ele>402</ele>
        <time>2025-01-11T11:38:18Z</time>
      </trkpt>
      <trkpt lat="48.21832" lon="6.63387">
        <ele>402.1</ele>
        <time>2025-01-11T11:38:25Z</time>
      </trkpt>
      <trkpt lat="48.21841" lon="6.63384">
        <ele>402</ele>
        <time>2025-01-11T11:38:32Z</time>
      </trkpt>
      <trkpt lat="48.21851" lon="6.63382">
        <ele>401.8</ele>
        <time>2025-01-11T11:38:39Z</time>
      </trkpt>
      <trkpt lat="48.2186" lon="6.63381">
        <ele>401.6</ele>
        <time>2025-01-11T11:38:46Z</time>
      </trkpt>
      <trkpt lat="48.21869" lon="6.63379">
        <ele>401.4</ele>
        <time>2025-01-11T11:38:51Z</time>
      </trkpt>
      <trkpt lat="48.2188" lon="6.63379">
        <ele>401.2</ele>
        <time>2025-01-11T11:38:56Z</time>
      </trkpt>
      <trkpt lat="48.21889" lon="6.6338">
        <ele>401</ele>
        <time>2025-01-11T11:39:05Z</time>
      </trkpt>
      <trkpt lat="48.21899" lon="6.63383">
        <ele>400.8</ele>
        <time>2025-01-11T11:39:13Z</time>
      </trkpt>
      <trkpt lat="48.21908" lon="6.63388">
        <ele>400.7</ele>
        <time>2025-01-11T11:39:21Z</time>
      </trkpt>
      <trkpt lat="48.21917" lon="6.63392">
        <ele>400.6</ele>
        <time>2025-01-11T11:39:28Z</time>
      </trkpt>
      <trkpt lat="48.21925" lon="6.63397">
        <ele>400.5</ele>
        <time>2025-01-11T11:39:36Z</time>
      </trkpt>
      <trkpt lat="48.21934" lon="6.63398">
        <ele>400.3</ele>
        <time>2025-01-11T11:39:43Z</time>
      </trkpt>
      <trkpt lat="48.21944" lon="6.63396">
        <ele>400</ele>
        <time>2025-01-11T11:39:49Z</time>
      </trkpt>
      <trkpt lat="48.21954" lon="6.63395">
        <ele>399.7</ele>
        <time>2025-01-11T11:39:59Z</time>
      </trkpt>
      <trkpt lat="48.21963" lon="6.63399">
        <ele>399.4</ele>
        <time>2025-01-11T11:40:12Z</time>
      </trkpt>
      <trkpt lat="48.21973" lon="6.63399">
        <ele>399.1</ele>
        <time>2025-01-11T11:40:20Z</time>
      </trkpt>
      <trkpt lat="48.21983" lon="6.63397">
        <ele>398.8</ele>
        <time>2025-01-11T11:40:27Z</time>
      </trkpt>
      <trkpt lat="48.21993" lon="6.63396">
        <ele>398.5</ele>
        <time>2025-01-11T11:40:32Z</time>
      </trkpt>
      <trkpt lat="48.22002" lon="6.63393">
        <ele>398.1</ele>
        <time>2025-01-11T11:40:39Z</time>
      </trkpt>
      <trkpt lat="48.22011" lon="6.63398">
        <ele>397.7</ele>
        <time>2025-01-11T11:40:50Z</time>
      </trkpt>
      <trkpt lat="48.22012" lon="6.63399">
        <ele>397.6</ele>
        <time>2025-01-11T11:40:56Z</time>
      </trkpt>
      <trkpt lat="48.22012" lon="6.63399">
        <ele>397.6</ele>
        <time>2025-01-11T11:40:57Z</time>
      </trkpt>
      <trkpt lat="48.22013" lon="6.63398">
        <ele>397.6</ele>
        <time>2025-01-11T11:41:08Z</time>
      </trkpt>
      <trkpt lat="48.22014" lon="6.63398">
        <ele>397.5</ele>
        <time>2025-01-11T11:41:09Z</time>
      </trkpt>
      <trkpt lat="48.22014" lon="6.63397">
        <ele>397.5</ele>
        <time>2025-01-11T11:41:10Z</time>
      </trkpt>
      <trkpt lat="48.22024" lon="6.63395">
        <ele>397.1</ele>
        <time>2025-01-11T11:41:18Z</time>
      </trkpt>
      <trkpt lat="48.22035" lon="6.63392">
        <ele>396.7</ele>
        <time>2025-01-11T11:41:27Z</time>
      </trkpt>
      <trkpt lat="48.22045" lon="6.63395">
        <ele>396.4</ele>
        <time>2025-01-11T11:41:36Z</time>
      </trkpt>
      <trkpt lat="48.22046" lon="6.63394">
        <ele>396.3</ele>
        <time>2025-01-11T11:41:40Z</time>
      </trkpt>
      <trkpt lat="48.22046" lon="6.63394">
        <ele>396.3</ele>
        <time>2025-01-11T11:41:41Z</time>
      </trkpt>
      <trkpt lat="48.22046" lon="6.63394">
        <ele>396.3</ele>
        <time>2025-01-11T11:41:42Z</time>
      </trkpt>
      <trkpt lat="48.22048" lon="6.63395">
        <ele>396.2</ele>
        <time>2025-01-11T11:41:46Z</time>
      </trkpt>
      <trkpt lat="48.22049" lon="6.63395">
        <ele>396.2</ele>
        <time>2025-01-11T11:41:47Z</time>
      </trkpt>
      <trkpt lat="48.22049" lon="6.63396">
        <ele>396.2</ele>
        <time>2025-01-11T11:41:50Z</time>
      </trkpt>
      <trkpt lat="48.22049" lon="6.63396">
        <ele>396.2</ele>
        <time>2025-01-11T11:41:51Z</time>
      </trkpt>
      <trkpt lat="48.22049" lon="6.63396">
        <ele>396.2</ele>
        <time>2025-01-11T11:41:52Z</time>
      </trkpt>
      <trkpt lat="48.2205" lon="6.63396">
        <ele>396.2</ele>
        <time>2025-01-11T11:41:53Z</time>
      </trkpt>
      <trkpt lat="48.22051" lon="6.63396">
        <ele>396.1</ele>
        <time>2025-01-11T11:41:54Z</time>
      </trkpt>
      <trkpt lat="48.22061" lon="6.63397">
        <ele>395.5</ele>
        <time>2025-01-11T11:42:02Z</time>
      </trkpt>
      <trkpt lat="48.22071" lon="6.63392">
        <ele>394.9</ele>
        <time>2025-01-11T11:42:10Z</time>
      </trkpt>
      <trkpt lat="48.22077" lon="6.63383">
        <ele>394.5</ele>
        <time>2025-01-11T11:42:18Z</time>
      </trkpt>
      <trkpt lat="48.22077" lon="6.63383">
        <ele>394.5</ele>
        <time>2025-01-11T11:42:19Z</time>
      </trkpt>
      <trkpt lat="48.22081" lon="6.63381">
        <ele>394.3</ele>
        <time>2025-01-11T11:42:31Z</time>
      </trkpt>
      <trkpt lat="48.22081" lon="6.63381">
        <ele>394.3</ele>
        <time>2025-01-11T11:42:32Z</time>
      </trkpt>
      <trkpt lat="48.22082" lon="6.63381">
        <ele>394.2</ele>
        <time>2025-01-11T11:42:39Z</time>
      </trkpt>
      <trkpt lat="48.22082" lon="6.63381">
        <ele>394.2</ele>
        <time>2025-01-11T11:42:40Z</time>
      </trkpt>
      <trkpt lat="48.22082" lon="6.6338">
        <ele>394.2</ele>
        <time>2025-01-11T11:42:53Z</time>
      </trkpt>
      <trkpt lat="48.22083" lon="6.63379">
        <ele>394.2</ele>
        <time>2025-01-11T11:42:54Z</time>
      </trkpt>
      <trkpt lat="48.22083" lon="6.63379">
        <ele>394.2</ele>
        <time>2025-01-11T11:42:55Z</time>
      </trkpt>
      <trkpt lat="48.22083" lon="6.63379">
        <ele>394.2</ele>
        <time>2025-01-11T11:42:56Z</time>
      </trkpt>
      <trkpt lat="48.22083" lon="6.63379">
        <ele>394.2</ele>
        <time>2025-01-11T11:42:57Z</time>
      </trkpt>
      <trkpt lat="48.22084" lon="6.6338">
        <ele>394.1</ele>
        <time>2025-01-11T11:43:15Z</time>
      </trkpt>
      <trkpt lat="48.22085" lon="6.6338">
        <ele>394.1</ele>
        <time>2025-01-11T11:43:16Z</time>
      </trkpt>
      <trkpt lat="48.22086" lon="6.6338">
        <ele>394.1</ele>
        <time>2025-01-11T11:43:17Z</time>
      </trkpt>
      <trkpt lat="48.22095" lon="6.63375">
        <ele>393.9</ele>
        <time>2025-01-11T11:43:28Z</time>
      </trkpt>
      <trkpt lat="48.22105" lon="6.63372">
        <ele>393.8</ele>
        <time>2025-01-11T11:43:35Z</time>
      </trkpt>
      <trkpt lat="48.22114" lon="6.63367">
        <ele>393.6</ele>
        <time>2025-01-11T11:43:41Z</time>
      </trkpt>
      <trkpt lat="48.22124" lon="6.6336">
        <ele>393.3</ele>
        <time>2025-01-11T11:43:47Z</time>
      </trkpt>
      <trkpt lat="48.22133" lon="6.63356">
        <ele>392.9</ele>
        <time>2025-01-11T11:43:53Z</time>
      </trkpt>
      <trkpt lat="48.22143" lon="6.63356">
        <ele>392.5</ele>
        <time>2025-01-11T11:44:08Z</time>
      </trkpt>
      <trkpt lat="48.22152" lon="6.63357">
        <ele>392.1</ele>
        <time>2025-01-11T11:44:16Z</time>
      </trkpt>
      <trkpt lat="48.22156" lon="6.63359">
        <ele>391.8</ele>
        <time>2025-01-11T11:44:30Z</time>
      </trkpt>
      <trkpt lat="48.22156" lon="6.63359">
        <ele>391.8</ele>
        <time>2025-01-11T11:44:31Z</time>
      </trkpt>
      <trkpt lat="48.22156" lon="6.63358">
        <ele>391.8</ele>
        <time>2025-01-11T11:44:32Z</time>
      </trkpt>
      <trkpt lat="48.22156" lon="6.63358">
        <ele>391.8</ele>
        <time>2025-01-11T11:44:33Z</time>
      </trkpt>
      <trkpt lat="48.22156" lon="6.63358">
        <ele>391.8</ele>
        <time>2025-01-11T11:44:34Z</time>
      </trkpt>
      <trkpt lat="48.22156" lon="6.63358">
        <ele>391.8</ele>
        <time>2025-01-11T11:44:35Z</time>
      </trkpt>
      <trkpt lat="48.22157" lon="6.63356">
        <ele>391.8</ele>
        <time>2025-01-11T11:44:40Z</time>
      </trkpt>
      <trkpt lat="48.22158" lon="6.63356">
        <ele>391.8</ele>
        <time>2025-01-11T11:44:41Z</time>
      </trkpt>
      <trkpt lat="48.22158" lon="6.63356">
        <ele>391.8</ele>
        <time>2025-01-11T11:44:42Z</time>
      </trkpt>
      <trkpt lat="48.22158" lon="6.63356">
        <ele>391.8</ele>
        <time>2025-01-11T11:44:43Z</time>
      </trkpt>
      <trkpt lat="48.22158" lon="6.63356">
        <ele>391.8</ele>
        <time>2025-01-11T11:44:44Z</time>
      </trkpt>
      <trkpt lat="48.22158" lon="6.63356">
        <ele>391.8</ele>
        <time>2025-01-11T11:44:45Z</time>
      </trkpt>
      <trkpt lat="48.22158" lon="6.63356">
        <ele>391.8</ele>
        <time>2025-01-11T11:44:46Z</time>
      </trkpt>
      <trkpt lat="48.22158" lon="6.63356">
        <ele>391.8</ele>
        <time>2025-01-11T11:44:47Z</time>
      </trkpt>
      <trkpt lat="48.22159" lon="6.63355">
        <ele>391.8</ele>
        <time>2025-01-11T11:44:56Z</time>
      </trkpt>
      <trkpt lat="48.22159" lon="6.63355">
        <ele>391.8</ele>
        <time>2025-01-11T11:44:57Z</time>
      </trkpt>
      <trkpt lat="48.22159" lon="6.63355">
        <ele>391.8</ele>
        <time>2025-01-11T11:44:58Z</time>
      </trkpt>
      <trkpt lat="48.22159" lon="6.63355">
        <ele>391.8</ele>
        <time>2025-01-11T11:44:59Z</time>
      </trkpt>
      <trkpt lat="48.22159" lon="6.63355">
        <ele>391.8</ele>
        <time>2025-01-11T11:45:00Z</time>
      </trkpt>
      <trkpt lat="48.22159" lon="6.63355">
        <ele>391.8</ele>
        <time>2025-01-11T11:45:01Z</time>
      </trkpt>
      <trkpt lat="48.22159" lon="6.63355">
        <ele>391.8</ele>
        <time>2025-01-11T11:45:02Z</time>
      </trkpt>
      <trkpt lat="48.2216" lon="6.63355">
        <ele>391.8</ele>
        <time>2025-01-11T11:45:03Z</time>
      </trkpt>
      <trkpt lat="48.2216" lon="6.63355">
        <ele>391.8</ele>
        <time>2025-01-11T11:45:04Z</time>
      </trkpt>
      <trkpt lat="48.2216" lon="6.63355">
        <ele>391.8</ele>
        <time>2025-01-11T11:45:05Z</time>
      </trkpt>
      <trkpt lat="48.2216" lon="6.63355">
        <ele>391.8</ele>
        <time>2025-01-11T11:45:08Z</time>
      </trkpt>
      <trkpt lat="48.2216" lon="6.63355">
        <ele>391.8</ele>
        <time>2025-01-11T11:45:09Z</time>
      </trkpt>
      <trkpt lat="48.2216" lon="6.63355">
        <ele>391.8</ele>
        <time>2025-01-11T11:45:10Z</time>
      </trkpt>
      <trkpt lat="48.2216" lon="6.63355">
        <ele>391.8</ele>
        <time>2025-01-11T11:45:11Z</time>
      </trkpt>
      <trkpt lat="48.2216" lon="6.63355">
        <ele>391.8</ele>
        <time>2025-01-11T11:45:12Z</time>
      </trkpt>
      <trkpt lat="48.22158" lon="6.63356">
        <ele>391.8</ele>
        <time>2025-01-11T11:45:38Z</time>
      </trkpt>
      <trkpt lat="48.22157" lon="6.63357">
        <ele>391.9</ele>
        <time>2025-01-11T11:45:39Z</time>
      </trkpt>
      <trkpt lat="48.22148" lon="6.63364">
        <ele>392.2</ele>
        <time>2025-01-11T11:45:49Z</time>
      </trkpt>
      <trkpt lat="48.2214" lon="6.63371">
        <ele>392.5</ele>
        <time>2025-01-11T11:45:56Z</time>
      </trkpt>
      <trkpt lat="48.22132" lon="6.63379">
        <ele>392.8</ele>
        <time>2025-01-11T11:46:04Z</time>
      </trkpt>
      <trkpt lat="48.22124" lon="6.63387">
        <ele>393.2</ele>
        <time>2025-01-11T11:46:12Z</time>
      </trkpt>
      <trkpt lat="48.22118" lon="6.63398">
        <ele>393.8</ele>
        <time>2025-01-11T11:46:19Z</time>
      </trkpt>
      <trkpt lat="48.22111" lon="6.63409">
        <ele>394.3</ele>
        <time>2025-01-11T11:46:26Z</time>
      </trkpt>
      <trkpt lat="48.22104" lon="6.63419">
        <ele>394.8</ele>
        <time>2025-01-11T11:46:33Z</time>
      </trkpt>
      <trkpt lat="48.22098" lon="6.63429">
        <ele>395.4</ele>
        <time>2025-01-11T11:46:43Z</time>
      </trkpt>
      <trkpt lat="48.22092" lon="6.6344">
        <ele>396</ele>
        <time>2025-01-11T11:46:51Z</time>
      </trkpt>
      <trkpt lat="48.22086" lon="6.63452">
        <ele>396.7</ele>
        <time>2025-01-11T11:47:00Z</time>
      </trkpt>
      <trkpt lat="48.22081" lon="6.63465">
        <ele>397.4</ele>
        <time>2025-01-11T11:47:08Z</time>
      </trkpt>
      <trkpt lat="48.22075" lon="6.63476">
        <ele>398</ele>
        <time>2025-01-11T11:47:15Z</time>
      </trkpt>
      <trkpt lat="48.22069" lon="6.63487">
        <ele>398.6</ele>
        <time>2025-01-11T11:47:23Z</time>
      </trkpt>
      <trkpt lat="48.22063" lon="6.63499">
        <ele>399.3</ele>
        <time>2025-01-11T11:47:30Z</time>
      </trkpt>
      <trkpt lat="48.22057" lon="6.63511">
        <ele>399.9</ele>
        <time>2025-01-11T11:47:39Z</time>
      </trkpt>
      <trkpt lat="48.22051" lon="6.63522">
        <ele>400.5</ele>
        <time>2025-01-11T11:47:47Z</time>
      </trkpt>
      <trkpt lat="48.22046" lon="6.63535">
        <ele>401.2</ele>
        <time>2025-01-11T11:47:56Z</time>
      </trkpt>
      <trkpt lat="48.2204" lon="6.63546">
        <ele>401.7</ele>
        <time>2025-01-11T11:48:03Z</time>
      </trkpt>
      <trkpt lat="48.22033" lon="6.63556">
        <ele>402.2</ele>
        <time>2025-01-11T11:48:11Z</time>
      </trkpt>
      <trkpt lat="48.22027" lon="6.63568">
        <ele>402.7</ele>
        <time>2025-01-11T11:48:19Z</time>
      </trkpt>
      <trkpt lat="48.22021" lon="6.63581">
        <ele>403.1</ele>
        <time>2025-01-11T11:48:27Z</time>
      </trkpt>
      <trkpt lat="48.22015" lon="6.6359">
        <ele>403.6</ele>
        <time>2025-01-11T11:48:34Z</time>
      </trkpt>
      <trkpt lat="48.22009" lon="6.63601">
        <ele>404</ele>
        <time>2025-01-11T11:48:42Z</time>
      </trkpt>
      <trkpt lat="48.22003" lon="6.63612">
        <ele>404.5</ele>
        <time>2025-01-11T11:48:49Z</time>
      </trkpt>
      <trkpt lat="48.21997" lon="6.63624">
        <ele>405</ele>
        <time>2025-01-11T11:48:57Z</time>
      </trkpt>
      <trkpt lat="48.2199" lon="6.63634">
        <ele>405.4</ele>
        <time>2025-01-11T11:49:05Z</time>
      </trkpt>
      <trkpt lat="48.21983" lon="6.63645">
        <ele>405.9</ele>
        <time>2025-01-11T11:49:13Z</time>
      </trkpt>
      <trkpt lat="48.21975" lon="6.63653">
        <ele>406.4</ele>
        <time>2025-01-11T11:49:21Z</time>
      </trkpt>
      <trkpt lat="48.21967" lon="6.63663">
        <ele>406.9</ele>
        <time>2025-01-11T11:49:29Z</time>
      </trkpt>
      <trkpt lat="48.2196" lon="6.63672">
        <ele>407.5</ele>
        <time>2025-01-11T11:49:37Z</time>
      </trkpt>
      <trkpt lat="48.21952" lon="6.63681">
        <ele>408</ele>
        <time>2025-01-11T11:49:45Z</time>
      </trkpt>
      <trkpt lat="48.21945" lon="6.6369">
        <ele>408.6</ele>
        <time>2025-01-11T11:49:53Z</time>
      </trkpt>
      <trkpt lat="48.21937" lon="6.63699">
        <ele>409.2</ele>
        <time>2025-01-11T11:50:01Z</time>
      </trkpt>
      <trkpt lat="48.21929" lon="6.63708">
        <ele>409.8</ele>
        <time>2025-01-11T11:50:09Z</time>
      </trkpt>
      <trkpt lat="48.21922" lon="6.63716">
        <ele>410.4</ele>
        <time>2025-01-11T11:50:17Z</time>
      </trkpt>
      <trkpt lat="48.21914" lon="6.63725">
        <ele>411.1</ele>
        <time>2025-01-11T11:50:25Z</time>
      </trkpt>
      <trkpt lat="48.21907" lon="6.63735">
        <ele>411.7</ele>
        <time>2025-01-11T11:50:34Z</time>
      </trkpt>
      <trkpt lat="48.21899" lon="6.63743">
        <ele>412.4</ele>
        <time>2025-01-11T11:50:42Z</time>
      </trkpt>
      <trkpt lat="48.21891" lon="6.63751">
        <ele>413</ele>
        <time>2025-01-11T11:50:50Z</time>
      </trkpt>
      <trkpt lat="48.21884" lon="6.63761">
        <ele>413.6</ele>
        <time>2025-01-11T11:50:58Z</time>
      </trkpt>
      <trkpt lat="48.21877" lon="6.63772">
        <ele>414.3</ele>
        <time>2025-01-11T11:51:06Z</time>
      </trkpt>
      <trkpt lat="48.2187" lon="6.63782">
        <ele>414.9</ele>
        <time>2025-01-11T11:51:14Z</time>
      </trkpt>
      <trkpt lat="48.21864" lon="6.63795">
        <ele>415.6</ele>
        <time>2025-01-11T11:51:23Z</time>
      </trkpt>
      <trkpt lat="48.21861" lon="6.63809">
        <ele>416.2</ele>
        <time>2025-01-11T11:51:32Z</time>
      </trkpt>
      <trkpt lat="48.21857" lon="6.63823">
        <ele>416.9</ele>
        <time>2025-01-11T11:51:41Z</time>
      </trkpt>
      <trkpt lat="48.21856" lon="6.63838">
        <ele>417.5</ele>
        <time>2025-01-11T11:51:50Z</time>
      </trkpt>
      <trkpt lat="48.21854" lon="6.63852">
        <ele>417.9</ele>
        <time>2025-01-11T11:51:59Z</time>
      </trkpt>
      <trkpt lat="48.21851" lon="6.63865">
        <ele>418.2</ele>
        <time>2025-01-11T11:52:06Z</time>
      </trkpt>
      <trkpt lat="48.21848" lon="6.63879">
        <ele>418.5</ele>
        <time>2025-01-11T11:52:13Z</time>
      </trkpt>
      <trkpt lat="48.21847" lon="6.63893">
        <ele>418.8</ele>
        <time>2025-01-11T11:52:21Z</time>
      </trkpt>
      <trkpt lat="48.21849" lon="6.63908">
        <ele>419</ele>
        <time>2025-01-11T11:52:30Z</time>
      </trkpt>
      <trkpt lat="48.2185" lon="6.63923">
        <ele>419.2</ele>
        <time>2025-01-11T11:52:39Z</time>
      </trkpt>
      <trkpt lat="48.21848" lon="6.63937">
        <ele>419.4</ele>
        <time>2025-01-11T11:52:47Z</time>
      </trkpt>
      <trkpt lat="48.21845" lon="6.6395">
        <ele>419.5</ele>
        <time>2025-01-11T11:52:56Z</time>
      </trkpt>
      <trkpt lat="48.21843" lon="6.63963">
        <ele>419.7</ele>
        <time>2025-01-11T11:53:04Z</time>
      </trkpt>
      <trkpt lat="48.2184" lon="6.63978">
        <ele>419.8</ele>
        <time>2025-01-11T11:53:12Z</time>
      </trkpt>
      <trkpt lat="48.21837" lon="6.63991">
        <ele>420</ele>
        <time>2025-01-11T11:53:20Z</time>
      </trkpt>
      <trkpt lat="48.21835" lon="6.64005">
        <ele>420.1</ele>
        <time>2025-01-11T11:53:27Z</time>
      </trkpt>
      <trkpt lat="48.21833" lon="6.6402">
        <ele>420.3</ele>
        <time>2025-01-11T11:53:35Z</time>
      </trkpt>
      <trkpt lat="48.21831" lon="6.64034">
        <ele>420.4</ele>
        <time>2025-01-11T11:53:43Z</time>
      </trkpt>
      <trkpt lat="48.21828" lon="6.64048">
        <ele>420.4</ele>
        <time>2025-01-11T11:53:51Z</time>
      </trkpt>
      <trkpt lat="48.21825" lon="6.64062">
        <ele>420.4</ele>
        <time>2025-01-11T11:53:59Z</time>
      </trkpt>
      <trkpt lat="48.21822" lon="6.64075">
        <ele>420.4</ele>
        <time>2025-01-11T11:54:08Z</time>
      </trkpt>
      <trkpt lat="48.2182" lon="6.64089">
        <ele>420.3</ele>
        <time>2025-01-11T11:54:16Z</time>
      </trkpt>
      <trkpt lat="48.21817" lon="6.64103">
        <ele>420.2</ele>
        <time>2025-01-11T11:54:25Z</time>
      </trkpt>
      <trkpt lat="48.21813" lon="6.64117">
        <ele>419.9</ele>
        <time>2025-01-11T11:54:33Z</time>
      </trkpt>
      <trkpt lat="48.21811" lon="6.64131">
        <ele>419.5</ele>
        <time>2025-01-11T11:54:41Z</time>
      </trkpt>
      <trkpt lat="48.21809" lon="6.64144">
        <ele>419.2</ele>
        <time>2025-01-11T11:54:49Z</time>
      </trkpt>
      <trkpt lat="48.21806" lon="6.64157">
        <ele>418.8</ele>
        <time>2025-01-11T11:54:57Z</time>
      </trkpt>
      <trkpt lat="48.21803" lon="6.64172">
        <ele>418.3</ele>
        <time>2025-01-11T11:55:06Z</time>
      </trkpt>
      <trkpt lat="48.21801" lon="6.64185">
        <ele>417.9</ele>
        <time>2025-01-11T11:55:14Z</time>
      </trkpt>
      <trkpt lat="48.21799" lon="6.64198">
        <ele>417.5</ele>
        <time>2025-01-11T11:55:22Z</time>
      </trkpt>
      <trkpt lat="48.21796" lon="6.64212">
        <ele>417.1</ele>
        <time>2025-01-11T11:55:30Z</time>
      </trkpt>
      <trkpt lat="48.21793" lon="6.64226">
        <ele>416.7</ele>
        <time>2025-01-11T11:55:38Z</time>
      </trkpt>
      <trkpt lat="48.21789" lon="6.64238">
        <ele>416.2</ele>
        <time>2025-01-11T11:55:46Z</time>
      </trkpt>
      <trkpt lat="48.21787" lon="6.64253">
        <ele>415.6</ele>
        <time>2025-01-11T11:55:54Z</time>
      </trkpt>
      <trkpt lat="48.21786" lon="6.64266">
        <ele>415.1</ele>
        <time>2025-01-11T11:56:02Z</time>
      </trkpt>
      <trkpt lat="48.21783" lon="6.6428">
        <ele>414.6</ele>
        <time>2025-01-11T11:56:11Z</time>
      </trkpt>
      <trkpt lat="48.21781" lon="6.64295">
        <ele>413.9</ele>
        <time>2025-01-11T11:56:20Z</time>
      </trkpt>
      <trkpt lat="48.21778" lon="6.6431">
        <ele>413.3</ele>
        <time>2025-01-11T11:56:29Z</time>
      </trkpt>
      <trkpt lat="48.21775" lon="6.64323">
        <ele>412.6</ele>
        <time>2025-01-11T11:56:37Z</time>
      </trkpt>
      <trkpt lat="48.21771" lon="6.64337">
        <ele>412</ele>
        <time>2025-01-11T11:56:45Z</time>
      </trkpt>
      <trkpt lat="48.21768" lon="6.64351">
        <ele>411.3</ele>
        <time>2025-01-11T11:56:54Z</time>
      </trkpt>
      <trkpt lat="48.21764" lon="6.64363">
        <ele>410.7</ele>
        <time>2025-01-11T11:57:02Z</time>
      </trkpt>
      <trkpt lat="48.21762" lon="6.64378">
        <ele>410</ele>
        <time>2025-01-11T11:57:11Z</time>
      </trkpt>
      <trkpt lat="48.21759" lon="6.64392">
        <ele>409.3</ele>
        <time>2025-01-11T11:57:18Z</time>
      </trkpt>
      <trkpt lat="48.21757" lon="6.64405">
        <ele>408.6</ele>
        <time>2025-01-11T11:57:25Z</time>
      </trkpt>
      <trkpt lat="48.21755" lon="6.6442">
        <ele>407.9</ele>
        <time>2025-01-11T11:57:33Z</time>
      </trkpt>
      <trkpt lat="48.21751" lon="6.64434">
        <ele>407.1</ele>
        <time>2025-01-11T11:57:41Z</time>
      </trkpt>
      <trkpt lat="48.2175" lon="6.64447">
        <ele>406.5</ele>
        <time>2025-01-11T11:57:49Z</time>
      </trkpt>
      <trkpt lat="48.21747" lon="6.64461">
        <ele>405.8</ele>
        <time>2025-01-11T11:57:57Z</time>
      </trkpt>
      <trkpt lat="48.21744" lon="6.64474">
        <ele>405.3</ele>
        <time>2025-01-11T11:58:05Z</time>
      </trkpt>
      <trkpt lat="48.21742" lon="6.64487">
        <ele>404.7</ele>
        <time>2025-01-11T11:58:13Z</time>
      </trkpt>
      <trkpt lat="48.21738" lon="6.64501">
        <ele>404.2</ele>
        <time>2025-01-11T11:58:22Z</time>
      </trkpt>
      <trkpt lat="48.21736" lon="6.64516">
        <ele>403.7</ele>
        <time>2025-01-11T11:58:30Z</time>
      </trkpt>
      <trkpt lat="48.21735" lon="6.6453">
        <ele>403.2</ele>
        <time>2025-01-11T11:58:38Z</time>
      </trkpt>
      <trkpt lat="48.21733" lon="6.64543">
        <ele>402.7</ele>
        <time>2025-01-11T11:58:46Z</time>
      </trkpt>
      <trkpt lat="48.21731" lon="6.64558">
        <ele>402.2</ele>
        <time>2025-01-11T11:58:54Z</time>
      </trkpt>
      <trkpt lat="48.21728" lon="6.64571">
        <ele>402</ele>
        <time>2025-01-11T11:59:02Z</time>
      </trkpt>
      <trkpt lat="48.21724" lon="6.64584">
        <ele>401.8</ele>
        <time>2025-01-11T11:59:10Z</time>
      </trkpt>
      <trkpt lat="48.2172" lon="6.64596">
        <ele>401.7</ele>
        <time>2025-01-11T11:59:18Z</time>
      </trkpt>
      <trkpt lat="48.21714" lon="6.64607">
        <ele>401.7</ele>
        <time>2025-01-11T11:59:26Z</time>
      </trkpt>
      <trkpt lat="48.21709" lon="6.64618">
        <ele>401.7</ele>
        <time>2025-01-11T11:59:35Z</time>
      </trkpt>
      <trkpt lat="48.21704" lon="6.6463">
        <ele>401.7</ele>
        <time>2025-01-11T11:59:43Z</time>
      </trkpt>
      <trkpt lat="48.21697" lon="6.64638">
        <ele>401.7</ele>
        <time>2025-01-11T11:59:51Z</time>
      </trkpt>
      <trkpt lat="48.21689" lon="6.64646">
        <ele>401.7</ele>
        <time>2025-01-11T12:00:00Z</time>
      </trkpt>
      <trkpt lat="48.21682" lon="6.64654">
        <ele>401.8</ele>
        <time>2025-01-11T12:00:09Z</time>
      </trkpt>
      <trkpt lat="48.21675" lon="6.64664">
        <ele>401.8</ele>
        <time>2025-01-11T12:00:17Z</time>
      </trkpt>
      <trkpt lat="48.21671" lon="6.64677">
        <ele>401.8</ele>
        <time>2025-01-11T12:00:25Z</time>
      </trkpt>
      <trkpt lat="48.21665" lon="6.64688">
        <ele>401.9</ele>
        <time>2025-01-11T12:00:33Z</time>
      </trkpt>
      <trkpt lat="48.2166" lon="6.647">
        <ele>402</ele>
        <time>2025-01-11T12:00:42Z</time>
      </trkpt>
      <trkpt lat="48.21658" lon="6.64715">
        <ele>401.9</ele>
        <time>2025-01-11T12:00:49Z</time>
      </trkpt>
      <trkpt lat="48.21656" lon="6.64729">
        <ele>401.8</ele>
        <time>2025-01-11T12:00:54Z</time>
      </trkpt>
      <trkpt lat="48.21655" lon="6.64744">
        <ele>401.8</ele>
        <time>2025-01-11T12:01:00Z</time>
      </trkpt>
      <trkpt lat="48.21653" lon="6.64757">
        <ele>401.8</ele>
        <time>2025-01-11T12:01:06Z</time>
      </trkpt>
      <trkpt lat="48.21651" lon="6.64771">
        <ele>401.8</ele>
        <time>2025-01-11T12:01:13Z</time>
      </trkpt>
      <trkpt lat="48.21651" lon="6.64786">
        <ele>401.9</ele>
        <time>2025-01-11T12:01:21Z</time>
      </trkpt>
      <trkpt lat="48.21652" lon="6.648">
        <ele>402</ele>
        <time>2025-01-11T12:01:28Z</time>
      </trkpt>
      <trkpt lat="48.21652" lon="6.64814">
        <ele>402.2</ele>
        <time>2025-01-11T12:01:35Z</time>
      </trkpt>
      <trkpt lat="48.21651" lon="6.64828">
        <ele>402.3</ele>
        <time>2025-01-11T12:01:42Z</time>
      </trkpt>
      <trkpt lat="48.21652" lon="6.64842">
        <ele>402.5</ele>
        <time>2025-01-11T12:01:49Z</time>
      </trkpt>
      <trkpt lat="48.21653" lon="6.64857">
        <ele>402.6</ele>
        <time>2025-01-11T12:01:57Z</time>
      </trkpt>
      <trkpt lat="48.21654" lon="6.64871">
        <ele>402.8</ele>
        <time>2025-01-11T12:02:05Z</time>
      </trkpt>
      <trkpt lat="48.21656" lon="6.64884">
        <ele>403</ele>
        <time>2025-01-11T12:02:12Z</time>
      </trkpt>
      <trkpt lat="48.2166" lon="6.64898">
        <ele>403.1</ele>
        <time>2025-01-11T12:02:20Z</time>
      </trkpt>
      <trkpt lat="48.21665" lon="6.6491">
        <ele>403.3</ele>
        <time>2025-01-11T12:02:26Z</time>
      </trkpt>
      <trkpt lat="48.2167" lon="6.64922">
        <ele>403.6</ele>
        <time>2025-01-11T12:02:33Z</time>
      </trkpt>
      <trkpt lat="48.21675" lon="6.64934">
        <ele>404</ele>
        <time>2025-01-11T12:02:41Z</time>
      </trkpt>
      <trkpt lat="48.21678" lon="6.64947">
        <ele>404.6</ele>
        <time>2025-01-11T12:02:50Z</time>
      </trkpt>
      <trkpt lat="48.21682" lon="6.6496">
        <ele>405.3</ele>
        <time>2025-01-11T12:02:57Z</time>
      </trkpt>
      <trkpt lat="48.21682" lon="6.64975">
        <ele>406.1</ele>
        <time>2025-01-11T12:03:06Z</time>
      </trkpt>
      <trkpt lat="48.21686" lon="6.64987">
        <ele>406.9</ele>
        <time>2025-01-11T12:03:15Z</time>
      </trkpt>
      <trkpt lat="48.21688" lon="6.65001">
        <ele>407.9</ele>
        <time>2025-01-11T12:03:26Z</time>
      </trkpt>
      <trkpt lat="48.21691" lon="6.65015">
        <ele>409</ele>
        <time>2025-01-11T12:03:35Z</time>
      </trkpt>
      <trkpt lat="48.21692" lon="6.65029">
        <ele>410.3</ele>
        <time>2025-01-11T12:03:41Z</time>
      </trkpt>
      <trkpt lat="48.21696" lon="6.65041">
        <ele>411.7</ele>
        <time>2025-01-11T12:03:48Z</time>
      </trkpt>
      <trkpt lat="48.21698" lon="6.65056">
        <ele>413.2</ele>
        <time>2025-01-11T12:03:57Z</time>
      </trkpt>
      <trkpt lat="48.21699" lon="6.65071">
        <ele>414.6</ele>
        <time>2025-01-11T12:04:05Z</time>
      </trkpt>
      <trkpt lat="48.21699" lon="6.65086">
        <ele>415.9</ele>
        <time>2025-01-11T12:04:12Z</time>
      </trkpt>
      <trkpt lat="48.21696" lon="6.65101">
        <ele>417.2</ele>
        <time>2025-01-11T12:04:21Z</time>
      </trkpt>
      <trkpt lat="48.21695" lon="6.65114">
        <ele>418.3</ele>
        <time>2025-01-11T12:04:28Z</time>
      </trkpt>
      <trkpt lat="48.21696" lon="6.65128">
        <ele>419.2</ele>
        <time>2025-01-11T12:04:37Z</time>
      </trkpt>
      <trkpt lat="48.21697" lon="6.65143">
        <ele>420</ele>
        <time>2025-01-11T12:04:45Z</time>
      </trkpt>
      <trkpt lat="48.21695" lon="6.65157">
        <ele>420.7</ele>
        <time>2025-01-11T12:04:53Z</time>
      </trkpt>
      <trkpt lat="48.21691" lon="6.65171">
        <ele>421.1</ele>
        <time>2025-01-11T12:05:01Z</time>
      </trkpt>
      <trkpt lat="48.21686" lon="6.65183">
        <ele>421.5</ele>
        <time>2025-01-11T12:05:08Z</time>
      </trkpt>
      <trkpt lat="48.2168" lon="6.65193">
        <ele>421.7</ele>
        <time>2025-01-11T12:05:16Z</time>
      </trkpt>
      <trkpt lat="48.21673" lon="6.65204">
        <ele>421.9</ele>
        <time>2025-01-11T12:05:25Z</time>
      </trkpt>
      <trkpt lat="48.21667" lon="6.65214">
        <ele>422</ele>
        <time>2025-01-11T12:05:32Z</time>
      </trkpt>
      <trkpt lat="48.21659" lon="6.65224">
        <ele>422.2</ele>
        <time>2025-01-11T12:05:40Z</time>
      </trkpt>
      <trkpt lat="48.21651" lon="6.65233">
        <ele>422.2</ele>
        <time>2025-01-11T12:05:47Z</time>
      </trkpt>
      <trkpt lat="48.21645" lon="6.65244">
        <ele>422.3</ele>
        <time>2025-01-11T12:05:55Z</time>
      </trkpt>
      <trkpt lat="48.21638" lon="6.65254">
        <ele>422.4</ele>
        <time>2025-01-11T12:06:03Z</time>
      </trkpt>
      <trkpt lat="48.21632" lon="6.65264">
        <ele>422.6</ele>
        <time>2025-01-11T12:06:10Z</time>
      </trkpt>
      <trkpt lat="48.21632" lon="6.65263">
        <ele>422.6</ele>
        <time>2025-01-11T12:06:13Z</time>
      </trkpt>
      <trkpt lat="48.21632" lon="6.65263">
        <ele>422.6</ele>
        <time>2025-01-11T12:06:14Z</time>
      </trkpt>
      <trkpt lat="48.21631" lon="6.65266">
        <ele>422.6</ele>
        <time>2025-01-11T12:06:23Z</time>
      </trkpt>
      <trkpt lat="48.2163" lon="6.65267">
        <ele>422.6</ele>
        <time>2025-01-11T12:06:24Z</time>
      </trkpt>
      <trkpt lat="48.21624" lon="6.65278">
        <ele>422.8</ele>
        <time>2025-01-11T12:06:32Z</time>
      </trkpt>
      <trkpt lat="48.21617" lon="6.65288">
        <ele>423</ele>
        <time>2025-01-11T12:06:40Z</time>
      </trkpt>
      <trkpt lat="48.2161" lon="6.65298">
        <ele>423.3</ele>
        <time>2025-01-11T12:06:48Z</time>
      </trkpt>
      <trkpt lat="48.21603" lon="6.6531">
        <ele>423.6</ele>
        <time>2025-01-11T12:06:56Z</time>
      </trkpt>
      <trkpt lat="48.21597" lon="6.6532">
        <ele>423.9</ele>
        <time>2025-01-11T12:07:04Z</time>
      </trkpt>
      <trkpt lat="48.21591" lon="6.65331">
        <ele>424.3</ele>
        <time>2025-01-11T12:07:12Z</time>
      </trkpt>
      <trkpt lat="48.21584" lon="6.65341">
        <ele>424.7</ele>
        <time>2025-01-11T12:07:25Z</time>
      </trkpt>
      <trkpt lat="48.21579" lon="6.65353">
        <ele>425.2</ele>
        <time>2025-01-11T12:07:33Z</time>
      </trkpt>
      <trkpt lat="48.21573" lon="6.65365">
        <ele>425.7</ele>
        <time>2025-01-11T12:07:41Z</time>
      </trkpt>
      <trkpt lat="48.21566" lon="6.65376">
        <ele>426.2</ele>
        <time>2025-01-11T12:07:49Z</time>
      </trkpt>
      <trkpt lat="48.2156" lon="6.65386">
        <ele>426.7</ele>
        <time>2025-01-11T12:07:56Z</time>
      </trkpt>
      <trkpt lat="48.21552" lon="6.65394">
        <ele>427.2</ele>
        <time>2025-01-11T12:08:03Z</time>
      </trkpt>
      <trkpt lat="48.21545" lon="6.65403">
        <ele>427.7</ele>
        <time>2025-01-11T12:08:10Z</time>
      </trkpt>
      <trkpt lat="48.21539" lon="6.65415">
        <ele>428.3</ele>
        <time>2025-01-11T12:08:18Z</time>
      </trkpt>
      <trkpt lat="48.21532" lon="6.65426">
        <ele>429</ele>
        <time>2025-01-11T12:08:26Z</time>
      </trkpt>
      <trkpt lat="48.21525" lon="6.65436">
        <ele>429.8</ele>
        <time>2025-01-11T12:08:34Z</time>
      </trkpt>
      <trkpt lat="48.21519" lon="6.65447">
        <ele>430.5</ele>
        <time>2025-01-11T12:08:42Z</time>
      </trkpt>
      <trkpt lat="48.21512" lon="6.65458">
        <ele>431.3</ele>
        <time>2025-01-11T12:08:50Z</time>
      </trkpt>
      <trkpt lat="48.21506" lon="6.65468">
        <ele>432.2</ele>
        <time>2025-01-11T12:08:58Z</time>
      </trkpt>
      <trkpt lat="48.215" lon="6.65479">
        <ele>433.2</ele>
        <time>2025-01-11T12:09:06Z</time>
      </trkpt>
      <trkpt lat="48.21493" lon="6.65491">
        <ele>434.3</ele>
        <time>2025-01-11T12:09:14Z</time>
      </trkpt>
      <trkpt lat="48.21488" lon="6.65502">
        <ele>435.2</ele>
        <time>2025-01-11T12:09:21Z</time>
      </trkpt>
      <trkpt lat="48.21483" lon="6.65514">
        <ele>436.3</ele>
        <time>2025-01-11T12:09:28Z</time>
      </trkpt>
      <trkpt lat="48.21479" lon="6.65529">
        <ele>437.3</ele>
        <time>2025-01-11T12:09:35Z</time>
      </trkpt>
      <trkpt lat="48.21474" lon="6.65542">
        <ele>438.2</ele>
        <time>2025-01-11T12:09:42Z</time>
      </trkpt>
      <trkpt lat="48.21468" lon="6.65554">
        <ele>439.1</ele>
        <time>2025-01-11T12:09:50Z</time>
      </trkpt>
      <trkpt lat="48.21463" lon="6.65565">
        <ele>439.8</ele>
        <time>2025-01-11T12:09:57Z</time>
      </trkpt>
      <trkpt lat="48.21458" lon="6.65577">
        <ele>440.7</ele>
        <time>2025-01-11T12:10:04Z</time>
      </trkpt>
      <trkpt lat="48.21454" lon="6.65591">
        <ele>441.7</ele>
        <time>2025-01-11T12:10:12Z</time>
      </trkpt>
      <trkpt lat="48.21448" lon="6.65601">
        <ele>442.5</ele>
        <time>2025-01-11T12:10:19Z</time>
      </trkpt>
      <trkpt lat="48.21442" lon="6.65612">
        <ele>443.2</ele>
        <time>2025-01-11T12:10:26Z</time>
      </trkpt>
      <trkpt lat="48.21437" lon="6.65623">
        <ele>443.7</ele>
        <time>2025-01-11T12:10:33Z</time>
      </trkpt>
      <trkpt lat="48.2143" lon="6.65634">
        <ele>444.1</ele>
        <time>2025-01-11T12:10:40Z</time>
      </trkpt>
      <trkpt lat="48.21423" lon="6.65645">
        <ele>444.3</ele>
        <time>2025-01-11T12:10:48Z</time>
      </trkpt>
      <trkpt lat="48.21415" lon="6.65655">
        <ele>444.2</ele>
        <time>2025-01-11T12:10:56Z</time>
      </trkpt>
      <trkpt lat="48.21407" lon="6.65662">
        <ele>444</ele>
        <time>2025-01-11T12:11:05Z</time>
      </trkpt>
      <trkpt lat="48.21398" lon="6.65668">
        <ele>443.8</ele>
        <time>2025-01-11T12:11:13Z</time>
      </trkpt>
      <trkpt lat="48.2139" lon="6.65673">
        <ele>443.6</ele>
        <time>2025-01-11T12:11:20Z</time>
      </trkpt>
      <trkpt lat="48.21381" lon="6.65677">
        <ele>443.4</ele>
        <time>2025-01-11T12:11:27Z</time>
      </trkpt>
      <trkpt lat="48.2137" lon="6.65679">
        <ele>443.3</ele>
        <time>2025-01-11T12:11:34Z</time>
      </trkpt>
      <trkpt lat="48.2136" lon="6.65681">
        <ele>443.3</ele>
        <time>2025-01-11T12:11:41Z</time>
      </trkpt>
      <trkpt lat="48.21351" lon="6.65682">
        <ele>443.3</ele>
        <time>2025-01-11T12:11:49Z</time>
      </trkpt>
      <trkpt lat="48.21341" lon="6.65688">
        <ele>443.3</ele>
        <time>2025-01-11T12:12:01Z</time>
      </trkpt>
      <trkpt lat="48.21332" lon="6.65693">
        <ele>443.3</ele>
        <time>2025-01-11T12:12:09Z</time>
      </trkpt>
      <trkpt lat="48.21323" lon="6.65698">
        <ele>443.3</ele>
        <time>2025-01-11T12:12:16Z</time>
      </trkpt>
      <trkpt lat="48.21314" lon="6.65704">
        <ele>443.4</ele>
        <time>2025-01-11T12:12:23Z</time>
      </trkpt>
      <trkpt lat="48.21304" lon="6.65709">
        <ele>443.4</ele>
        <time>2025-01-11T12:12:31Z</time>
      </trkpt>
      <trkpt lat="48.21295" lon="6.65713">
        <ele>443.5</ele>
        <time>2025-01-11T12:12:38Z</time>
      </trkpt>
      <trkpt lat="48.21286" lon="6.6572">
        <ele>443.6</ele>
        <time>2025-01-11T12:12:46Z</time>
      </trkpt>
      <trkpt lat="48.21277" lon="6.65724">
        <ele>443.8</ele>
        <time>2025-01-11T12:12:55Z</time>
      </trkpt>
      <trkpt lat="48.21267" lon="6.65728">
        <ele>443.9</ele>
        <time>2025-01-11T12:13:14Z</time>
      </trkpt>
      <trkpt lat="48.21257" lon="6.65733">
        <ele>443.9</ele>
        <time>2025-01-11T12:13:20Z</time>
      </trkpt>
      <trkpt lat="48.21249" lon="6.65737">
        <ele>443.9</ele>
        <time>2025-01-11T12:13:27Z</time>
      </trkpt>
      <trkpt lat="48.21239" lon="6.65741">
        <ele>444</ele>
        <time>2025-01-11T12:13:34Z</time>
      </trkpt>
      <trkpt lat="48.21229" lon="6.65743">
        <ele>444.1</ele>
        <time>2025-01-11T12:13:42Z</time>
      </trkpt>
      <trkpt lat="48.2122" lon="6.65748">
        <ele>444.3</ele>
        <time>2025-01-11T12:13:52Z</time>
      </trkpt>
      <trkpt lat="48.21211" lon="6.65755">
        <ele>444.5</ele>
        <time>2025-01-11T12:13:59Z</time>
      </trkpt>
      <trkpt lat="48.21203" lon="6.65763">
        <ele>444.8</ele>
        <time>2025-01-11T12:14:05Z</time>
      </trkpt>
      <trkpt lat="48.21196" lon="6.65773">
        <ele>445.2</ele>
        <time>2025-01-11T12:14:12Z</time>
      </trkpt>
      <trkpt lat="48.2119" lon="6.65784">
        <ele>445.5</ele>
        <time>2025-01-11T12:14:18Z</time>
      </trkpt>
      <trkpt lat="48.21184" lon="6.65796">
        <ele>445.7</ele>
        <time>2025-01-11T12:14:25Z</time>
      </trkpt>
      <trkpt lat="48.21178" lon="6.65806">
        <ele>445.8</ele>
        <time>2025-01-11T12:14:32Z</time>
      </trkpt>
      <trkpt lat="48.21171" lon="6.65817">
        <ele>445.8</ele>
        <time>2025-01-11T12:14:39Z</time>
      </trkpt>
      <trkpt lat="48.21164" lon="6.65829">
        <ele>445.6</ele>
        <time>2025-01-11T12:14:46Z</time>
      </trkpt>
      <trkpt lat="48.21158" lon="6.6584">
        <ele>445.4</ele>
        <time>2025-01-11T12:14:52Z</time>
      </trkpt>
      <trkpt lat="48.21152" lon="6.65851">
        <ele>445.3</ele>
        <time>2025-01-11T12:14:59Z</time>
      </trkpt>
      <trkpt lat="48.21153" lon="6.65866">
        <ele>445.1</ele>
        <time>2025-01-11T12:15:05Z</time>
      </trkpt>
      <trkpt lat="48.21152" lon="6.6588">
        <ele>445</ele>
        <time>2025-01-11T12:15:11Z</time>
      </trkpt>
      <trkpt lat="48.21154" lon="6.65894">
        <ele>444.8</ele>
        <time>2025-01-11T12:15:18Z</time>
      </trkpt>
      <trkpt lat="48.21155" lon="6.65909">
        <ele>444.6</ele>
        <time>2025-01-11T12:15:26Z</time>
      </trkpt>
      <trkpt lat="48.21157" lon="6.65923">
        <ele>444.4</ele>
        <time>2025-01-11T12:15:34Z</time>
      </trkpt>
      <trkpt lat="48.21159" lon="6.65939">
        <ele>444.2</ele>
        <time>2025-01-11T12:15:42Z</time>
      </trkpt>
      <trkpt lat="48.2116" lon="6.65953">
        <ele>444.1</ele>
        <time>2025-01-11T12:15:49Z</time>
      </trkpt>
      <trkpt lat="48.21157" lon="6.65968">
        <ele>444.1</ele>
        <time>2025-01-11T12:15:56Z</time>
      </trkpt>
      <trkpt lat="48.21154" lon="6.6598">
        <ele>444.2</ele>
        <time>2025-01-11T12:16:04Z</time>
      </trkpt>
      <trkpt lat="48.21154" lon="6.65995">
        <ele>444.3</ele>
        <time>2025-01-11T12:16:14Z</time>
      </trkpt>
      <trkpt lat="48.21152" lon="6.66009">
        <ele>444.5</ele>
        <time>2025-01-11T12:16:21Z</time>
      </trkpt>
      <trkpt lat="48.2115" lon="6.66024">
        <ele>444.8</ele>
        <time>2025-01-11T12:16:29Z</time>
      </trkpt>
      <trkpt lat="48.21148" lon="6.66037">
        <ele>445.2</ele>
        <time>2025-01-11T12:16:36Z</time>
      </trkpt>
      <trkpt lat="48.21146" lon="6.66051">
        <ele>445.8</ele>
        <time>2025-01-11T12:16:45Z</time>
      </trkpt>
      <trkpt lat="48.21144" lon="6.66065">
        <ele>446.5</ele>
        <time>2025-01-11T12:16:54Z</time>
      </trkpt>
      <trkpt lat="48.21143" lon="6.66079">
        <ele>447.1</ele>
        <time>2025-01-11T12:17:02Z</time>
      </trkpt>
      <trkpt lat="48.2114" lon="6.66093">
        <ele>447.8</ele>
        <time>2025-01-11T12:17:10Z</time>
      </trkpt>
      <trkpt lat="48.21135" lon="6.66106">
        <ele>448.4</ele>
        <time>2025-01-11T12:17:16Z</time>
      </trkpt>
      <trkpt lat="48.21129" lon="6.66119">
        <ele>449</ele>
        <time>2025-01-11T12:17:23Z</time>
      </trkpt>
      <trkpt lat="48.21122" lon="6.66129">
        <ele>449.6</ele>
        <time>2025-01-11T12:17:30Z</time>
      </trkpt>
      <trkpt lat="48.21117" lon="6.66141">
        <ele>450.2</ele>
        <time>2025-01-11T12:17:37Z</time>
      </trkpt>
      <trkpt lat="48.21111" lon="6.66154">
        <ele>450.8</ele>
        <time>2025-01-11T12:17:45Z</time>
      </trkpt>
      <trkpt lat="48.21106" lon="6.66166">
        <ele>451.3</ele>
        <time>2025-01-11T12:17:52Z</time>
      </trkpt>
      <trkpt lat="48.21103" lon="6.66178">
        <ele>451.8</ele>
        <time>2025-01-11T12:17:59Z</time>
      </trkpt>
      <trkpt lat="48.21097" lon="6.66191">
        <ele>452.3</ele>
        <time>2025-01-11T12:18:06Z</time>
      </trkpt>
      <trkpt lat="48.21091" lon="6.66202">
        <ele>452.8</ele>
        <time>2025-01-11T12:18:13Z</time>
      </trkpt>
      <trkpt lat="48.21088" lon="6.66216">
        <ele>453.4</ele>
        <time>2025-01-11T12:18:20Z</time>
      </trkpt>
      <trkpt lat="48.21083" lon="6.66229">
        <ele>453.9</ele>
        <time>2025-01-11T12:18:27Z</time>
      </trkpt>
      <trkpt lat="48.2108" lon="6.66243">
        <ele>454.5</ele>
        <time>2025-01-11T12:18:35Z</time>
      </trkpt>
      <trkpt lat="48.21075" lon="6.66256">
        <ele>455.1</ele>
        <time>2025-01-11T12:18:41Z</time>
      </trkpt>
      <trkpt lat="48.2107" lon="6.66268">
        <ele>455.6</ele>
        <time>2025-01-11T12:18:47Z</time>
      </trkpt>
      <trkpt lat="48.21065" lon="6.6628">
        <ele>456.2</ele>
        <time>2025-01-11T12:18:54Z</time>
      </trkpt>
      <trkpt lat="48.21061" lon="6.66293">
        <ele>456.7</ele>
        <time>2025-01-11T12:19:01Z</time>
      </trkpt>
      <trkpt lat="48.21061" lon="6.66307">
        <ele>457.2</ele>
        <time>2025-01-11T12:19:08Z</time>
      </trkpt>
      <trkpt lat="48.21061" lon="6.66322">
        <ele>457.7</ele>
        <time>2025-01-11T12:19:15Z</time>
      </trkpt>
      <trkpt lat="48.21063" lon="6.66337">
        <ele>458.3</ele>
        <time>2025-01-11T12:19:22Z</time>
      </trkpt>
      <trkpt lat="48.21069" lon="6.66347">
        <ele>458.8</ele>
        <time>2025-01-11T12:19:27Z</time>
      </trkpt>
      <trkpt lat="48.21076" lon="6.66356">
        <ele>459.3</ele>
        <time>2025-01-11T12:19:32Z</time>
      </trkpt>
      <trkpt lat="48.21086" lon="6.66362">
        <ele>459.8</ele>
        <time>2025-01-11T12:19:40Z</time>
      </trkpt>
      <trkpt lat="48.21096" lon="6.66364">
        <ele>460.3</ele>
        <time>2025-01-11T12:19:48Z</time>
      </trkpt>
      <trkpt lat="48.21105" lon="6.66366">
        <ele>460.7</ele>
        <time>2025-01-11T12:19:56Z</time>
      </trkpt>
      <trkpt lat="48.21114" lon="6.66374">
        <ele>461.1</ele>
        <time>2025-01-11T12:20:02Z</time>
      </trkpt>
      <trkpt lat="48.2112" lon="6.66384">
        <ele>461.5</ele>
        <time>2025-01-11T12:20:09Z</time>
      </trkpt>
      <trkpt lat="48.21123" lon="6.66397">
        <ele>461.9</ele>
        <time>2025-01-11T12:20:16Z</time>
      </trkpt>
      <trkpt lat="48.21127" lon="6.6641">
        <ele>462.3</ele>
        <time>2025-01-11T12:20:23Z</time>
      </trkpt>
      <trkpt lat="48.21135" lon="6.66421">
        <ele>462.7</ele>
        <time>2025-01-11T12:20:30Z</time>
      </trkpt>
      <trkpt lat="48.21138" lon="6.66434">
        <ele>463.2</ele>
        <time>2025-01-11T12:20:36Z</time>
      </trkpt>
      <trkpt lat="48.21141" lon="6.66448">
        <ele>463.6</ele>
        <time>2025-01-11T12:20:43Z</time>
      </trkpt>
      <trkpt lat="48.21144" lon="6.66462">
        <ele>464.1</ele>
        <time>2025-01-11T12:20:51Z</time>
      </trkpt>
      <trkpt lat="48.21148" lon="6.66475">
        <ele>464.5</ele>
        <time>2025-01-11T12:20:58Z</time>
      </trkpt>
      <trkpt lat="48.21151" lon="6.66489">
        <ele>465</ele>
        <time>2025-01-11T12:21:05Z</time>
      </trkpt>
      <trkpt lat="48.21152" lon="6.66504">
        <ele>465.6</ele>
        <time>2025-01-11T12:21:12Z</time>
      </trkpt>
      <trkpt lat="48.21152" lon="6.66518">
        <ele>466.2</ele>
        <time>2025-01-11T12:21:19Z</time>
      </trkpt>
      <trkpt lat="48.21148" lon="6.66531">
        <ele>466.8</ele>
        <time>2025-01-11T12:21:27Z</time>
      </trkpt>
      <trkpt lat="48.21142" lon="6.66543">
        <ele>467.3</ele>
        <time>2025-01-11T12:21:35Z</time>
      </trkpt>
      <trkpt lat="48.21136" lon="6.66554">
        <ele>467.7</ele>
        <time>2025-01-11T12:21:43Z</time>
      </trkpt>
      <trkpt lat="48.21128" lon="6.66563">
        <ele>468.2</ele>
        <time>2025-01-11T12:21:51Z</time>
      </trkpt>
      <trkpt lat="48.21122" lon="6.66574">
        <ele>468.6</ele>
        <time>2025-01-11T12:21:59Z</time>
      </trkpt>
      <trkpt lat="48.21115" lon="6.66586">
        <ele>469.1</ele>
        <time>2025-01-11T12:22:07Z</time>
      </trkpt>
      <trkpt lat="48.21109" lon="6.66597">
        <ele>469.6</ele>
        <time>2025-01-11T12:22:15Z</time>
      </trkpt>
      <trkpt lat="48.21103" lon="6.66608">
        <ele>470.1</ele>
        <time>2025-01-11T12:22:23Z</time>
      </trkpt>
      <trkpt lat="48.211" lon="6.66622">
        <ele>470.6</ele>
        <time>2025-01-11T12:22:30Z</time>
      </trkpt>
      <trkpt lat="48.21097" lon="6.66635">
        <ele>471</ele>
        <time>2025-01-11T12:22:37Z</time>
      </trkpt>
      <trkpt lat="48.21094" lon="6.66648">
        <ele>471.5</ele>
        <time>2025-01-11T12:22:44Z</time>
      </trkpt>
      <trkpt lat="48.21093" lon="6.66663">
        <ele>471.9</ele>
        <time>2025-01-11T12:22:51Z</time>
      </trkpt>
      <trkpt lat="48.21094" lon="6.66677">
        <ele>472.4</ele>
        <time>2025-01-11T12:22:58Z</time>
      </trkpt>
      <trkpt lat="48.21097" lon="6.66691">
        <ele>472.9</ele>
        <time>2025-01-11T12:23:06Z</time>
      </trkpt>
      <trkpt lat="48.21102" lon="6.66702">
        <ele>473.3</ele>
        <time>2025-01-11T12:23:14Z</time>
      </trkpt>
      <trkpt lat="48.2111" lon="6.66708">
        <ele>473.6</ele>
        <time>2025-01-11T12:23:22Z</time>
      </trkpt>
      <trkpt lat="48.21119" lon="6.66713">
        <ele>474</ele>
        <time>2025-01-11T12:23:29Z</time>
      </trkpt>
      <trkpt lat="48.21128" lon="6.66717">
        <ele>474.3</ele>
        <time>2025-01-11T12:23:35Z</time>
      </trkpt>
      <trkpt lat="48.21137" lon="6.6672">
        <ele>474.7</ele>
        <time>2025-01-11T12:23:42Z</time>
      </trkpt>
      <trkpt lat="48.21146" lon="6.66722">
        <ele>475.1</ele>
        <time>2025-01-11T12:23:49Z</time>
      </trkpt>
      <trkpt lat="48.21156" lon="6.66722">
        <ele>475.6</ele>
        <time>2025-01-11T12:23:57Z</time>
      </trkpt>
      <trkpt lat="48.21166" lon="6.66725">
        <ele>476.2</ele>
        <time>2025-01-11T12:24:04Z</time>
      </trkpt>
      <trkpt lat="48.21175" lon="6.66728">
        <ele>476.8</ele>
        <time>2025-01-11T12:24:12Z</time>
      </trkpt>
      <trkpt lat="48.21184" lon="6.66731">
        <ele>477.4</ele>
        <time>2025-01-11T12:24:20Z</time>
      </trkpt>
      <trkpt lat="48.21193" lon="6.66734">
        <ele>477.9</ele>
        <time>2025-01-11T12:24:29Z</time>
      </trkpt>
      <trkpt lat="48.21204" lon="6.66733">
        <ele>478.4</ele>
        <time>2025-01-11T12:24:37Z</time>
      </trkpt>
      <trkpt lat="48.21212" lon="6.66736">
        <ele>478.8</ele>
        <time>2025-01-11T12:24:43Z</time>
      </trkpt>
      <trkpt lat="48.21222" lon="6.66739">
        <ele>479.3</ele>
        <time>2025-01-11T12:24:51Z</time>
      </trkpt>
      <trkpt lat="48.21231" lon="6.66742">
        <ele>479.8</ele>
        <time>2025-01-11T12:25:00Z</time>
      </trkpt>
      <trkpt lat="48.2124" lon="6.66745">
        <ele>480.3</ele>
        <time>2025-01-11T12:25:07Z</time>
      </trkpt>
      <trkpt lat="48.2125" lon="6.66748">
        <ele>480.8</ele>
        <time>2025-01-11T12:25:15Z</time>
      </trkpt>
      <trkpt lat="48.21259" lon="6.66751">
        <ele>481.3</ele>
        <time>2025-01-11T12:25:24Z</time>
      </trkpt>
      <trkpt lat="48.21268" lon="6.66753">
        <ele>481.8</ele>
        <time>2025-01-11T12:25:30Z</time>
      </trkpt>
      <trkpt lat="48.21278" lon="6.66755">
        <ele>482.3</ele>
        <time>2025-01-11T12:25:36Z</time>
      </trkpt>
      <trkpt lat="48.21286" lon="6.66761">
        <ele>482.9</ele>
        <time>2025-01-11T12:25:44Z</time>
      </trkpt>
      <trkpt lat="48.21294" lon="6.6677">
        <ele>483.3</ele>
        <time>2025-01-11T12:25:51Z</time>
      </trkpt>
      <trkpt lat="48.21296" lon="6.66784">
        <ele>483.8</ele>
        <time>2025-01-11T12:26:00Z</time>
      </trkpt>
      <trkpt lat="48.21293" lon="6.66798">
        <ele>484.2</ele>
        <time>2025-01-11T12:26:07Z</time>
      </trkpt>
      <trkpt lat="48.21289" lon="6.66811">
        <ele>484.6</ele>
        <time>2025-01-11T12:26:15Z</time>
      </trkpt>
      <trkpt lat="48.21283" lon="6.66823">
        <ele>485</ele>
        <time>2025-01-11T12:26:24Z</time>
      </trkpt>
      <trkpt lat="48.21277" lon="6.66836">
        <ele>485.5</ele>
        <time>2025-01-11T12:26:33Z</time>
      </trkpt>
      <trkpt lat="48.21272" lon="6.66848">
        <ele>485.9</ele>
        <time>2025-01-11T12:26:41Z</time>
      </trkpt>
      <trkpt lat="48.21265" lon="6.66857">
        <ele>486.3</ele>
        <time>2025-01-11T12:26:49Z</time>
      </trkpt>
      <trkpt lat="48.21257" lon="6.66866">
        <ele>486.8</ele>
        <time>2025-01-11T12:26:57Z</time>
      </trkpt>
      <trkpt lat="48.21248" lon="6.66873">
        <ele>487.3</ele>
        <time>2025-01-11T12:27:04Z</time>
      </trkpt>
      <trkpt lat="48.21239" lon="6.66879">
        <ele>487.7</ele>
        <time>2025-01-11T12:27:12Z</time>
      </trkpt>
      <trkpt lat="48.2123" lon="6.66885">
        <ele>488.1</ele>
        <time>2025-01-11T12:27:20Z</time>
      </trkpt>
      <trkpt lat="48.21221" lon="6.66889">
        <ele>488.5</ele>
        <time>2025-01-11T12:27:27Z</time>
      </trkpt>
      <trkpt lat="48.21214" lon="6.66899">
        <ele>488.9</ele>
        <time>2025-01-11T12:27:34Z</time>
      </trkpt>
      <trkpt lat="48.21208" lon="6.6691">
        <ele>489.3</ele>
        <time>2025-01-11T12:27:42Z</time>
      </trkpt>
      <trkpt lat="48.21203" lon="6.66923">
        <ele>489.6</ele>
        <time>2025-01-11T12:27:50Z</time>
      </trkpt>
      <trkpt lat="48.21201" lon="6.66938">
        <ele>490.1</ele>
        <time>2025-01-11T12:27:57Z</time>
      </trkpt>
      <trkpt lat="48.21197" lon="6.66952">
        <ele>490.5</ele>
        <time>2025-01-11T12:28:06Z</time>
      </trkpt>
      <trkpt lat="48.21194" lon="6.66966">
        <ele>490.9</ele>
        <time>2025-01-11T12:28:14Z</time>
      </trkpt>
      <trkpt lat="48.21191" lon="6.66979">
        <ele>491.3</ele>
        <time>2025-01-11T12:28:21Z</time>
      </trkpt>
      <trkpt lat="48.21188" lon="6.66993">
        <ele>491.7</ele>
        <time>2025-01-11T12:28:28Z</time>
      </trkpt>
      <trkpt lat="48.21186" lon="6.67006">
        <ele>492.1</ele>
        <time>2025-01-11T12:28:35Z</time>
      </trkpt>
      <trkpt lat="48.21185" lon="6.67021">
        <ele>492.5</ele>
        <time>2025-01-11T12:28:43Z</time>
      </trkpt>
      <trkpt lat="48.21185" lon="6.67035">
        <ele>493</ele>
        <time>2025-01-11T12:28:51Z</time>
      </trkpt>
      <trkpt lat="48.21185" lon="6.6705">
        <ele>493.4</ele>
        <time>2025-01-11T12:28:59Z</time>
      </trkpt>
      <trkpt lat="48.21186" lon="6.67065">
        <ele>493.9</ele>
        <time>2025-01-11T12:29:08Z</time>
      </trkpt>
      <trkpt lat="48.21184" lon="6.67078">
        <ele>494.3</ele>
        <time>2025-01-11T12:29:16Z</time>
      </trkpt>
      <trkpt lat="48.21182" lon="6.67092">
        <ele>494.7</ele>
        <time>2025-01-11T12:29:24Z</time>
      </trkpt>
      <trkpt lat="48.21182" lon="6.67106">
        <ele>495</ele>
        <time>2025-01-11T12:29:32Z</time>
      </trkpt>
      <trkpt lat="48.21179" lon="6.6712">
        <ele>495.4</ele>
        <time>2025-01-11T12:29:40Z</time>
      </trkpt>
      <trkpt lat="48.21177" lon="6.67134">
        <ele>495.8</ele>
        <time>2025-01-11T12:29:48Z</time>
      </trkpt>
      <trkpt lat="48.21176" lon="6.67148">
        <ele>496.1</ele>
        <time>2025-01-11T12:29:57Z</time>
      </trkpt>
      <trkpt lat="48.21177" lon="6.67161">
        <ele>496.4</ele>
        <time>2025-01-11T12:30:04Z</time>
      </trkpt>
      <trkpt lat="48.21178" lon="6.67176">
        <ele>496.7</ele>
        <time>2025-01-11T12:30:12Z</time>
      </trkpt>
      <trkpt lat="48.2118" lon="6.6719">
        <ele>497</ele>
        <time>2025-01-11T12:30:20Z</time>
      </trkpt>
      <trkpt lat="48.21179" lon="6.67205">
        <ele>497.3</ele>
        <time>2025-01-11T12:30:29Z</time>
      </trkpt>
      <trkpt lat="48.21184" lon="6.67218">
        <ele>497.5</ele>
        <time>2025-01-11T12:30:37Z</time>
      </trkpt>
      <trkpt lat="48.21188" lon="6.6723">
        <ele>497.8</ele>
        <time>2025-01-11T12:30:44Z</time>
      </trkpt>
      <trkpt lat="48.21191" lon="6.67243">
        <ele>498.1</ele>
        <time>2025-01-11T12:30:51Z</time>
      </trkpt>
      <trkpt lat="48.21188" lon="6.67257">
        <ele>498.4</ele>
        <time>2025-01-11T12:30:58Z</time>
      </trkpt>
      <trkpt lat="48.21188" lon="6.67271">
        <ele>498.8</ele>
        <time>2025-01-11T12:31:06Z</time>
      </trkpt>
      <trkpt lat="48.21193" lon="6.67282">
        <ele>499.2</ele>
        <time>2025-01-11T12:31:13Z</time>
      </trkpt>
      <trkpt lat="48.21198" lon="6.67294">
        <ele>499.6</ele>
        <time>2025-01-11T12:31:19Z</time>
      </trkpt>
      <trkpt lat="48.21201" lon="6.67307">
        <ele>500</ele>
        <time>2025-01-11T12:31:27Z</time>
      </trkpt>
      <trkpt lat="48.21205" lon="6.6732">
        <ele>500.5</ele>
        <time>2025-01-11T12:31:35Z</time>
      </trkpt>
      <trkpt lat="48.21207" lon="6.67334">
        <ele>501</ele>
        <time>2025-01-11T12:31:44Z</time>
      </trkpt>
      <trkpt lat="48.21212" lon="6.67346">
        <ele>501.5</ele>
        <time>2025-01-11T12:31:51Z</time>
      </trkpt>
      <trkpt lat="48.21218" lon="6.67358">
        <ele>502</ele>
        <time>2025-01-11T12:31:57Z</time>
      </trkpt>
      <trkpt lat="48.21224" lon="6.67368">
        <ele>502.5</ele>
        <time>2025-01-11T12:32:03Z</time>
      </trkpt>
      <trkpt lat="48.21231" lon="6.67377">
        <ele>503</ele>
        <time>2025-01-11T12:32:09Z</time>
      </trkpt>
      <trkpt lat="48.21237" lon="6.67387">
        <ele>503.5</ele>
        <time>2025-01-11T12:32:16Z</time>
      </trkpt>
      <trkpt lat="48.2124" lon="6.67401">
        <ele>504</ele>
        <time>2025-01-11T12:32:24Z</time>
      </trkpt>
      <trkpt lat="48.21244" lon="6.67413">
        <ele>504.5</ele>
        <time>2025-01-11T12:32:32Z</time>
      </trkpt>
      <trkpt lat="48.21248" lon="6.67426">
        <ele>504.9</ele>
        <time>2025-01-11T12:32:39Z</time>
      </trkpt>
      <trkpt lat="48.21252" lon="6.6744">
        <ele>505.4</ele>
        <time>2025-01-11T12:32:47Z</time>
      </trkpt>
      <trkpt lat="48.21257" lon="6.67451">
        <ele>505.7</ele>
        <time>2025-01-11T12:32:54Z</time>
      </trkpt>
      <trkpt lat="48.21256" lon="6.67466">
        <ele>506.1</ele>
        <time>2025-01-11T12:33:01Z</time>
      </trkpt>
      <trkpt lat="48.21261" lon="6.67479">
        <ele>506.5</ele>
        <time>2025-01-11T12:33:09Z</time>
      </trkpt>
      <trkpt lat="48.21262" lon="6.67493">
        <ele>507</ele>
        <time>2025-01-11T12:33:17Z</time>
      </trkpt>
      <trkpt lat="48.21265" lon="6.67506">
        <ele>507.4</ele>
        <time>2025-01-11T12:33:25Z</time>
      </trkpt>
      <trkpt lat="48.21273" lon="6.67516">
        <ele>506.5</ele>
        <time>2025-01-11T12:33:35Z</time>
      </trkpt>
      <trkpt lat="48.21282" lon="6.67513">
        <ele>505.7</ele>
        <time>2025-01-11T12:33:41Z</time>
      </trkpt>
      <trkpt lat="48.21291" lon="6.67518">
        <ele>504.8</ele>
        <time>2025-01-11T12:33:55Z</time>
      </trkpt>
      <trkpt lat="48.21301" lon="6.67519">
        <ele>503.9</ele>
        <time>2025-01-11T12:34:04Z</time>
      </trkpt>
      <trkpt lat="48.21311" lon="6.67521">
        <ele>503.1</ele>
        <time>2025-01-11T12:34:11Z</time>
      </trkpt>
      <trkpt lat="48.2132" lon="6.67524">
        <ele>502.4</ele>
        <time>2025-01-11T12:34:18Z</time>
      </trkpt>
      <trkpt lat="48.2133" lon="6.67529">
        <ele>501.7</ele>
        <time>2025-01-11T12:34:24Z</time>
      </trkpt>
      <trkpt lat="48.21338" lon="6.67534">
        <ele>500.9</ele>
        <time>2025-01-11T12:34:29Z</time>
      </trkpt>
      <trkpt lat="48.21347" lon="6.67541">
        <ele>500</ele>
        <time>2025-01-11T12:34:36Z</time>
      </trkpt>
      <trkpt lat="48.21354" lon="6.67549">
        <ele>498.9</ele>
        <time>2025-01-11T12:34:45Z</time>
      </trkpt>
      <trkpt lat="48.21362" lon="6.67558">
        <ele>497.7</ele>
        <time>2025-01-11T12:34:57Z</time>
      </trkpt>
      <trkpt lat="48.21371" lon="6.67562">
        <ele>496.4</ele>
        <time>2025-01-11T12:35:06Z</time>
      </trkpt>
      <trkpt lat="48.21381" lon="6.67564">
        <ele>495.2</ele>
        <time>2025-01-11T12:35:11Z</time>
      </trkpt>
      <trkpt lat="48.21391" lon="6.67562">
        <ele>493.9</ele>
        <time>2025-01-11T12:35:17Z</time>
      </trkpt>
      <trkpt lat="48.21399" lon="6.67557">
        <ele>492.8</ele>
        <time>2025-01-11T12:35:24Z</time>
      </trkpt>
      <trkpt lat="48.21408" lon="6.67553">
        <ele>491.6</ele>
        <time>2025-01-11T12:35:34Z</time>
      </trkpt>
      <trkpt lat="48.21417" lon="6.67549">
        <ele>490.4</ele>
        <time>2025-01-11T12:35:39Z</time>
      </trkpt>
      <trkpt lat="48.21426" lon="6.67547">
        <ele>489.1</ele>
        <time>2025-01-11T12:35:47Z</time>
      </trkpt>
      <trkpt lat="48.21436" lon="6.67545">
        <ele>487.8</ele>
        <time>2025-01-11T12:35:56Z</time>
      </trkpt>
      <trkpt lat="48.21446" lon="6.67546">
        <ele>486.7</ele>
        <time>2025-01-11T12:36:05Z</time>
      </trkpt>
      <trkpt lat="48.21455" lon="6.67548">
        <ele>485.7</ele>
        <time>2025-01-11T12:36:13Z</time>
      </trkpt>
      <trkpt lat="48.21465" lon="6.67549">
        <ele>484.8</ele>
        <time>2025-01-11T12:36:21Z</time>
      </trkpt>
      <trkpt lat="48.21475" lon="6.67549">
        <ele>484</ele>
        <time>2025-01-11T12:36:26Z</time>
      </trkpt>
      <trkpt lat="48.21485" lon="6.67548">
        <ele>483.3</ele>
        <time>2025-01-11T12:36:32Z</time>
      </trkpt>
      <trkpt lat="48.21494" lon="6.6755">
        <ele>482.7</ele>
        <time>2025-01-11T12:36:38Z</time>
      </trkpt>
      <trkpt lat="48.21503" lon="6.6755">
        <ele>482</ele>
        <time>2025-01-11T12:36:44Z</time>
      </trkpt>
      <trkpt lat="48.21514" lon="6.67549">
        <ele>481.3</ele>
        <time>2025-01-11T12:36:50Z</time>
      </trkpt>
      <trkpt lat="48.21523" lon="6.67551">
        <ele>480.8</ele>
        <time>2025-01-11T12:36:57Z</time>
      </trkpt>
      <trkpt lat="48.21532" lon="6.67554">
        <ele>480.1</ele>
        <time>2025-01-11T12:37:05Z</time>
      </trkpt>
      <trkpt lat="48.21541" lon="6.67558">
        <ele>479.5</ele>
        <time>2025-01-11T12:37:13Z</time>
      </trkpt>
      <trkpt lat="48.21551" lon="6.67562">
        <ele>478.9</ele>
        <time>2025-01-11T12:37:21Z</time>
      </trkpt>
      <trkpt lat="48.2156" lon="6.67566">
        <ele>478.3</ele>
        <time>2025-01-11T12:37:27Z</time>
      </trkpt>
      <trkpt lat="48.21569" lon="6.67572">
        <ele>477.6</ele>
        <time>2025-01-11T12:37:38Z</time>
      </trkpt>
      <trkpt lat="48.21579" lon="6.67572">
        <ele>477</ele>
        <time>2025-01-11T12:37:44Z</time>
      </trkpt>
      <trkpt lat="48.21589" lon="6.67576">
        <ele>476.3</ele>
        <time>2025-01-11T12:37:52Z</time>
      </trkpt>
      <trkpt lat="48.21598" lon="6.67581">
        <ele>475.7</ele>
        <time>2025-01-11T12:38:02Z</time>
      </trkpt>
      <trkpt lat="48.21606" lon="6.67586">
        <ele>475.2</ele>
        <time>2025-01-11T12:38:13Z</time>
      </trkpt>
      <trkpt lat="48.21616" lon="6.6759">
        <ele>474.6</ele>
        <time>2025-01-11T12:38:21Z</time>
      </trkpt>
      <trkpt lat="48.21626" lon="6.67589">
        <ele>474.1</ele>
        <time>2025-01-11T12:38:50Z</time>
      </trkpt>
      <trkpt lat="48.21636" lon="6.67591">
        <ele>473.8</ele>
        <time>2025-01-11T12:38:58Z</time>
      </trkpt>
      <trkpt lat="48.21645" lon="6.67591">
        <ele>473.6</ele>
        <time>2025-01-11T12:39:04Z</time>
      </trkpt>
      <trkpt lat="48.21655" lon="6.67592">
        <ele>473.4</ele>
        <time>2025-01-11T12:39:10Z</time>
      </trkpt>
      <trkpt lat="48.21664" lon="6.67589">
        <ele>473.1</ele>
        <time>2025-01-11T12:39:21Z</time>
      </trkpt>
      <trkpt lat="48.21673" lon="6.67591">
        <ele>472.8</ele>
        <time>2025-01-11T12:39:31Z</time>
      </trkpt>
      <trkpt lat="48.21683" lon="6.67593">
        <ele>472.5</ele>
        <time>2025-01-11T12:39:39Z</time>
      </trkpt>
      <trkpt lat="48.21693" lon="6.67591">
        <ele>472.1</ele>
        <time>2025-01-11T12:39:46Z</time>
      </trkpt>
      <trkpt lat="48.21703" lon="6.67591">
        <ele>471.6</ele>
        <time>2025-01-11T12:39:52Z</time>
      </trkpt>
      <trkpt lat="48.21712" lon="6.67591">
        <ele>471.2</ele>
        <time>2025-01-11T12:39:58Z</time>
      </trkpt>
      <trkpt lat="48.21721" lon="6.67595">
        <ele>470.8</ele>
        <time>2025-01-11T12:40:08Z</time>
      </trkpt>
      <trkpt lat="48.21731" lon="6.67596">
        <ele>470.3</ele>
        <time>2025-01-11T12:40:15Z</time>
      </trkpt>
      <trkpt lat="48.2174" lon="6.67598">
        <ele>469.9</ele>
        <time>2025-01-11T12:40:25Z</time>
      </trkpt>
      <trkpt lat="48.2175" lon="6.67603">
        <ele>469.4</ele>
        <time>2025-01-11T12:40:33Z</time>
      </trkpt>
      <trkpt lat="48.21759" lon="6.67606">
        <ele>468.8</ele>
        <time>2025-01-11T12:40:40Z</time>
      </trkpt>
      <trkpt lat="48.21768" lon="6.67609">
        <ele>468.3</ele>
        <time>2025-01-11T12:40:48Z</time>
      </trkpt>
      <trkpt lat="48.21777" lon="6.67613">
        <ele>467.8</ele>
        <time>2025-01-11T12:40:56Z</time>
      </trkpt>
      <trkpt lat="48.21787" lon="6.67619">
        <ele>467.2</ele>
        <time>2025-01-11T12:41:02Z</time>
      </trkpt>
      <trkpt lat="48.21797" lon="6.67624">
        <ele>466.7</ele>
        <time>2025-01-11T12:41:10Z</time>
      </trkpt>
      <trkpt lat="48.21806" lon="6.67628">
        <ele>466.2</ele>
        <time>2025-01-11T12:41:19Z</time>
      </trkpt>
      <trkpt lat="48.21815" lon="6.67633">
        <ele>465.7</ele>
        <time>2025-01-11T12:41:26Z</time>
      </trkpt>
      <trkpt lat="48.21824" lon="6.67636">
        <ele>465.2</ele>
        <time>2025-01-11T12:41:31Z</time>
      </trkpt>
      <trkpt lat="48.21833" lon="6.6764">
        <ele>464.8</ele>
        <time>2025-01-11T12:41:38Z</time>
      </trkpt>
      <trkpt lat="48.21842" lon="6.67641">
        <ele>464.4</ele>
        <time>2025-01-11T12:41:44Z</time>
      </trkpt>
      <trkpt lat="48.21851" lon="6.67644">
        <ele>464</ele>
        <time>2025-01-11T12:41:52Z</time>
      </trkpt>
      <trkpt lat="48.21861" lon="6.67649">
        <ele>463.6</ele>
        <time>2025-01-11T12:41:59Z</time>
      </trkpt>
      <trkpt lat="48.21869" lon="6.67655">
        <ele>463.3</ele>
        <time>2025-01-11T12:42:06Z</time>
      </trkpt>
      <trkpt lat="48.21879" lon="6.67658">
        <ele>463</ele>
        <time>2025-01-11T12:42:11Z</time>
      </trkpt>
      <trkpt lat="48.21888" lon="6.67662">
        <ele>462.8</ele>
        <time>2025-01-11T12:42:16Z</time>
      </trkpt>
      <trkpt lat="48.21895" lon="6.6767">
        <ele>462.6</ele>
        <time>2025-01-11T12:42:25Z</time>
      </trkpt>
      <trkpt lat="48.21902" lon="6.67681">
        <ele>462.5</ele>
        <time>2025-01-11T12:42:36Z</time>
      </trkpt>
      <trkpt lat="48.2191" lon="6.67686">
        <ele>462.3</ele>
        <time>2025-01-11T12:42:46Z</time>
      </trkpt>
      <trkpt lat="48.21919" lon="6.67685">
        <ele>462.1</ele>
        <time>2025-01-11T12:42:51Z</time>
      </trkpt>
      <trkpt lat="48.21929" lon="6.67687">
        <ele>461.9</ele>
        <time>2025-01-11T12:42:58Z</time>
      </trkpt>
      <trkpt lat="48.21938" lon="6.6769">
        <ele>461.7</ele>
        <time>2025-01-11T12:43:05Z</time>
      </trkpt>
      <trkpt lat="48.21948" lon="6.67692">
        <ele>461.5</ele>
        <time>2025-01-11T12:43:11Z</time>
      </trkpt>
      <trkpt lat="48.21957" lon="6.67696">
        <ele>461.2</ele>
        <time>2025-01-11T12:43:22Z</time>
      </trkpt>
      <trkpt lat="48.21966" lon="6.67699">
        <ele>461</ele>
        <time>2025-01-11T12:43:30Z</time>
      </trkpt>
      <trkpt lat="48.21976" lon="6.67702">
        <ele>460.6</ele>
        <time>2025-01-11T12:43:38Z</time>
      </trkpt>
      <trkpt lat="48.21987" lon="6.67703">
        <ele>460.3</ele>
        <time>2025-01-11T12:43:46Z</time>
      </trkpt>
      <trkpt lat="48.21996" lon="6.67704">
        <ele>460.1</ele>
        <time>2025-01-11T12:43:52Z</time>
      </trkpt>
      <trkpt lat="48.22006" lon="6.67709">
        <ele>459.7</ele>
        <time>2025-01-11T12:44:01Z</time>
      </trkpt>
      <trkpt lat="48.22015" lon="6.67712">
        <ele>459.4</ele>
        <time>2025-01-11T12:44:07Z</time>
      </trkpt>
      <trkpt lat="48.22024" lon="6.6771">
        <ele>459.1</ele>
        <time>2025-01-11T12:44:13Z</time>
      </trkpt>
      <trkpt lat="48.22034" lon="6.67714">
        <ele>458.7</ele>
        <time>2025-01-11T12:44:21Z</time>
      </trkpt>
      <trkpt lat="48.22043" lon="6.6772">
        <ele>458.3</ele>
        <time>2025-01-11T12:44:30Z</time>
      </trkpt>
      <trkpt lat="48.22052" lon="6.67724">
        <ele>458.1</ele>
        <time>2025-01-11T12:44:38Z</time>
      </trkpt>
      <trkpt lat="48.2206" lon="6.67731">
        <ele>457.8</ele>
        <time>2025-01-11T12:44:46Z</time>
      </trkpt>
      <trkpt lat="48.22069" lon="6.67738">
        <ele>457.6</ele>
        <time>2025-01-11T12:44:54Z</time>
      </trkpt>
      <trkpt lat="48.22077" lon="6.67745">
        <ele>457.4</ele>
        <time>2025-01-11T12:45:02Z</time>
      </trkpt>
      <trkpt lat="48.22085" lon="6.67754">
        <ele>457.1</ele>
        <time>2025-01-11T12:45:10Z</time>
      </trkpt>
      <trkpt lat="48.22093" lon="6.67761">
        <ele>456.9</ele>
        <time>2025-01-11T12:45:15Z</time>
      </trkpt>
      <trkpt lat="48.221" lon="6.6777">
        <ele>456.7</ele>
        <time>2025-01-11T12:45:25Z</time>
      </trkpt>
      <trkpt lat="48.22109" lon="6.67776">
        <ele>456.5</ele>
        <time>2025-01-11T12:45:35Z</time>
      </trkpt>
      <trkpt lat="48.22118" lon="6.67778">
        <ele>456.3</ele>
        <time>2025-01-11T12:45:41Z</time>
      </trkpt>
      <trkpt lat="48.22127" lon="6.67783">
        <ele>456.1</ele>
        <time>2025-01-11T12:45:47Z</time>
      </trkpt>
      <trkpt lat="48.22137" lon="6.67788">
        <ele>455.8</ele>
        <time>2025-01-11T12:45:54Z</time>
      </trkpt>
      <trkpt lat="48.22146" lon="6.67791">
        <ele>455.6</ele>
        <time>2025-01-11T12:46:01Z</time>
      </trkpt>
      <trkpt lat="48.22156" lon="6.67796">
        <ele>455.3</ele>
        <time>2025-01-11T12:46:09Z</time>
      </trkpt>
      <trkpt lat="48.22164" lon="6.67802">
        <ele>455.1</ele>
        <time>2025-01-11T12:46:18Z</time>
      </trkpt>
      <trkpt lat="48.22173" lon="6.67805">
        <ele>454.8</ele>
        <time>2025-01-11T12:46:24Z</time>
      </trkpt>
      <trkpt lat="48.22182" lon="6.67808">
        <ele>454.4</ele>
        <time>2025-01-11T12:46:33Z</time>
      </trkpt>
      <trkpt lat="48.22193" lon="6.67809">
        <ele>453.9</ele>
        <time>2025-01-11T12:46:40Z</time>
      </trkpt>
      <trkpt lat="48.22203" lon="6.67809">
        <ele>453.5</ele>
        <time>2025-01-11T12:46:46Z</time>
      </trkpt>
      <trkpt lat="48.22211" lon="6.67814">
        <ele>453</ele>
        <time>2025-01-11T12:46:56Z</time>
      </trkpt>
      <trkpt lat="48.2222" lon="6.67821">
        <ele>452.5</ele>
        <time>2025-01-11T12:47:04Z</time>
      </trkpt>
      <trkpt lat="48.22229" lon="6.67826">
        <ele>452</ele>
        <time>2025-01-11T12:47:09Z</time>
      </trkpt>
      <trkpt lat="48.22237" lon="6.67834">
        <ele>451.5</ele>
        <time>2025-01-11T12:47:15Z</time>
      </trkpt>
      <trkpt lat="48.22245" lon="6.67842">
        <ele>450.8</ele>
        <time>2025-01-11T12:47:22Z</time>
      </trkpt>
      <trkpt lat="48.22252" lon="6.67849">
        <ele>450.2</ele>
        <time>2025-01-11T12:47:29Z</time>
      </trkpt>
      <trkpt lat="48.22259" lon="6.67859">
        <ele>449.4</ele>
        <time>2025-01-11T12:47:37Z</time>
      </trkpt>
      <trkpt lat="48.22268" lon="6.67867">
        <ele>448.6</ele>
        <time>2025-01-11T12:47:46Z</time>
      </trkpt>
      <trkpt lat="48.22275" lon="6.67878">
        <ele>447.6</ele>
        <time>2025-01-11T12:47:57Z</time>
      </trkpt>
      <trkpt lat="48.22283" lon="6.67885">
        <ele>446.7</ele>
        <time>2025-01-11T12:48:05Z</time>
      </trkpt>
      <trkpt lat="48.22292" lon="6.67891">
        <ele>445.6</ele>
        <time>2025-01-11T12:48:13Z</time>
      </trkpt>
      <trkpt lat="48.22301" lon="6.67898">
        <ele>444.4</ele>
        <time>2025-01-11T12:48:21Z</time>
      </trkpt>
      <trkpt lat="48.22308" lon="6.67907">
        <ele>443.2</ele>
        <time>2025-01-11T12:48:30Z</time>
      </trkpt>
      <trkpt lat="48.22316" lon="6.67916">
        <ele>442.1</ele>
        <time>2025-01-11T12:48:37Z</time>
      </trkpt>
      <trkpt lat="48.22322" lon="6.67926">
        <ele>441.1</ele>
        <time>2025-01-11T12:48:47Z</time>
      </trkpt>
      <trkpt lat="48.22331" lon="6.67934">
        <ele>439.8</ele>
        <time>2025-01-11T12:48:55Z</time>
      </trkpt>
      <trkpt lat="48.2234" lon="6.67941">
        <ele>438.5</ele>
        <time>2025-01-11T12:49:01Z</time>
      </trkpt>
      <trkpt lat="48.22347" lon="6.6795">
        <ele>437.3</ele>
        <time>2025-01-11T12:49:12Z</time>
      </trkpt>
      <trkpt lat="48.22355" lon="6.67958">
        <ele>436.3</ele>
        <time>2025-01-11T12:49:22Z</time>
      </trkpt>
      <trkpt lat="48.22362" lon="6.67966">
        <ele>435.3</ele>
        <time>2025-01-11T12:49:28Z</time>
      </trkpt>
      <trkpt lat="48.22369" lon="6.67977">
        <ele>434.4</ele>
        <time>2025-01-11T12:49:45Z</time>
      </trkpt>
      <trkpt lat="48.22377" lon="6.67982">
        <ele>433.5</ele>
        <time>2025-01-11T12:49:51Z</time>
      </trkpt>
      <trkpt lat="48.22386" lon="6.67986">
        <ele>432.6</ele>
        <time>2025-01-11T12:49:58Z</time>
      </trkpt>
      <trkpt lat="48.22395" lon="6.67991">
        <ele>431.7</ele>
        <time>2025-01-11T12:50:06Z</time>
      </trkpt>
      <trkpt lat="48.22403" lon="6.67998">
        <ele>430.8</ele>
        <time>2025-01-11T12:50:15Z</time>
      </trkpt>
      <trkpt lat="48.22409" lon="6.68007">
        <ele>429.9</ele>
        <time>2025-01-11T12:50:24Z</time>
      </trkpt>
      <trkpt lat="48.22418" lon="6.68014">
        <ele>428.9</ele>
        <time>2025-01-11T12:50:30Z</time>
      </trkpt>
      <trkpt lat="48.22425" lon="6.68023">
        <ele>428</ele>
        <time>2025-01-11T12:50:42Z</time>
      </trkpt>
      <trkpt lat="48.22434" lon="6.68026">
        <ele>427.2</ele>
        <time>2025-01-11T12:50:52Z</time>
      </trkpt>
      <trkpt lat="48.22443" lon="6.68034">
        <ele>426.4</ele>
        <time>2025-01-11T12:51:06Z</time>
      </trkpt>
      <trkpt lat="48.22451" lon="6.68042">
        <ele>425.7</ele>
        <time>2025-01-11T12:51:16Z</time>
      </trkpt>
      <trkpt lat="48.22459" lon="6.68049">
        <ele>425</ele>
        <time>2025-01-11T12:51:25Z</time>
      </trkpt>
      <trkpt lat="48.22468" lon="6.68054">
        <ele>424.4</ele>
        <time>2025-01-11T12:51:33Z</time>
      </trkpt>
      <trkpt lat="48.22477" lon="6.68059">
        <ele>423.8</ele>
        <time>2025-01-11T12:51:40Z</time>
      </trkpt>
      <trkpt lat="48.22487" lon="6.68064">
        <ele>423.2</ele>
        <time>2025-01-11T12:51:48Z</time>
      </trkpt>
      <trkpt lat="48.22495" lon="6.68071">
        <ele>422.4</ele>
        <time>2025-01-11T12:51:56Z</time>
      </trkpt>
      <trkpt lat="48.22503" lon="6.68078">
        <ele>421.6</ele>
        <time>2025-01-11T12:52:05Z</time>
      </trkpt>
      <trkpt lat="48.22512" lon="6.68086">
        <ele>420.6</ele>
        <time>2025-01-11T12:52:14Z</time>
      </trkpt>
      <trkpt lat="48.22519" lon="6.68094">
        <ele>419.6</ele>
        <time>2025-01-11T12:52:24Z</time>
      </trkpt>
      <trkpt lat="48.22528" lon="6.68102">
        <ele>418.5</ele>
        <time>2025-01-11T12:52:31Z</time>
      </trkpt>
      <trkpt lat="48.22534" lon="6.68111">
        <ele>417.5</ele>
        <time>2025-01-11T12:52:39Z</time>
      </trkpt>
      <trkpt lat="48.22544" lon="6.68116">
        <ele>416.4</ele>
        <time>2025-01-11T12:52:46Z</time>
      </trkpt>
      <trkpt lat="48.22551" lon="6.68126">
        <ele>415.4</ele>
        <time>2025-01-11T12:52:54Z</time>
      </trkpt>
      <trkpt lat="48.22561" lon="6.68132">
        <ele>414.5</ele>
        <time>2025-01-11T12:53:03Z</time>
      </trkpt>
      <trkpt lat="48.2257" lon="6.68129">
        <ele>413.6</ele>
        <time>2025-01-11T12:53:08Z</time>
      </trkpt>
      <trkpt lat="48.22579" lon="6.6813">
        <ele>412.7</ele>
        <time>2025-01-11T12:53:16Z</time>
      </trkpt>
      <trkpt lat="48.22589" lon="6.68133">
        <ele>411.7</ele>
        <time>2025-01-11T12:53:27Z</time>
      </trkpt>
      <trkpt lat="48.22598" lon="6.68139">
        <ele>410.7</ele>
        <time>2025-01-11T12:53:36Z</time>
      </trkpt>
      <trkpt lat="48.22607" lon="6.68144">
        <ele>409.6</ele>
        <time>2025-01-11T12:53:47Z</time>
      </trkpt>
      <trkpt lat="48.22617" lon="6.68146">
        <ele>408.4</ele>
        <time>2025-01-11T12:53:56Z</time>
      </trkpt>
      <trkpt lat="48.22627" lon="6.68143">
        <ele>407.1</ele>
        <time>2025-01-11T12:54:01Z</time>
      </trkpt>
      <trkpt lat="48.22637" lon="6.68145">
        <ele>405.9</ele>
        <time>2025-01-11T12:54:08Z</time>
      </trkpt>
      <trkpt lat="48.22646" lon="6.68146">
        <ele>404.8</ele>
        <time>2025-01-11T12:54:15Z</time>
      </trkpt>
      <trkpt lat="48.22656" lon="6.68146">
        <ele>403.6</ele>
        <time>2025-01-11T12:54:20Z</time>
      </trkpt>
      <trkpt lat="48.22666" lon="6.68146">
        <ele>402.5</ele>
        <time>2025-01-11T12:54:46Z</time>
      </trkpt>
      <trkpt lat="48.22675" lon="6.68147">
        <ele>401.7</ele>
        <time>2025-01-11T12:54:52Z</time>
      </trkpt>
      <trkpt lat="48.22684" lon="6.68145">
        <ele>401.1</ele>
        <time>2025-01-11T12:55:02Z</time>
      </trkpt>
      <trkpt lat="48.22694" lon="6.68145">
        <ele>400.7</ele>
        <time>2025-01-11T12:55:12Z</time>
      </trkpt>
      <trkpt lat="48.22703" lon="6.68143">
        <ele>400.4</ele>
        <time>2025-01-11T12:55:18Z</time>
      </trkpt>
      <trkpt lat="48.22713" lon="6.6814">
        <ele>400.3</ele>
        <time>2025-01-11T12:55:27Z</time>
      </trkpt>
      <trkpt lat="48.22722" lon="6.68135">
        <ele>400.3</ele>
        <time>2025-01-11T12:55:35Z</time>
      </trkpt>
      <trkpt lat="48.22729" lon="6.68127">
        <ele>400.4</ele>
        <time>2025-01-11T12:55:44Z</time>
      </trkpt>
      <trkpt lat="48.22737" lon="6.68117">
        <ele>400.5</ele>
        <time>2025-01-11T12:55:53Z</time>
      </trkpt>
      <trkpt lat="48.22744" lon="6.68109">
        <ele>400.6</ele>
        <time>2025-01-11T12:56:03Z</time>
      </trkpt>
      <trkpt lat="48.22752" lon="6.681">
        <ele>400.5</ele>
        <time>2025-01-11T12:56:11Z</time>
      </trkpt>
      <trkpt lat="48.2276" lon="6.68092">
        <ele>400.3</ele>
        <time>2025-01-11T12:56:22Z</time>
      </trkpt>
      <trkpt lat="48.22769" lon="6.68085">
        <ele>400.1</ele>
        <time>2025-01-11T12:56:31Z</time>
      </trkpt>
      <trkpt lat="48.22778" lon="6.68083">
        <ele>399.9</ele>
        <time>2025-01-11T12:56:38Z</time>
      </trkpt>
      <trkpt lat="48.22788" lon="6.6808">
        <ele>399.6</ele>
        <time>2025-01-11T12:56:51Z</time>
      </trkpt>
      <trkpt lat="48.22797" lon="6.68077">
        <ele>399.3</ele>
        <time>2025-01-11T12:56:57Z</time>
      </trkpt>
      <trkpt lat="48.22807" lon="6.68073">
        <ele>399</ele>
        <time>2025-01-11T12:57:15Z</time>
      </trkpt>
      <trkpt lat="48.22816" lon="6.6807">
        <ele>398.8</ele>
        <time>2025-01-11T12:57:21Z</time>
      </trkpt>
      <trkpt lat="48.22826" lon="6.68067">
        <ele>398.5</ele>
        <time>2025-01-11T12:57:26Z</time>
      </trkpt>
      <trkpt lat="48.22835" lon="6.68062">
        <ele>398.3</ele>
        <time>2025-01-11T12:57:32Z</time>
      </trkpt>
      <trkpt lat="48.22843" lon="6.68055">
        <ele>398</ele>
        <time>2025-01-11T12:57:40Z</time>
      </trkpt>
      <trkpt lat="48.22853" lon="6.6805">
        <ele>397.8</ele>
        <time>2025-01-11T12:57:53Z</time>
      </trkpt>
      <trkpt lat="48.22863" lon="6.68048">
        <ele>397.5</ele>
        <time>2025-01-11T12:57:59Z</time>
      </trkpt>
      <trkpt lat="48.22873" lon="6.68046">
        <ele>397.2</ele>
        <time>2025-01-11T12:58:07Z</time>
      </trkpt>
      <trkpt lat="48.22881" lon="6.68041">
        <ele>396.9</ele>
        <time>2025-01-11T12:58:15Z</time>
      </trkpt>
      <trkpt lat="48.2289" lon="6.68036">
        <ele>396.7</ele>
        <time>2025-01-11T12:58:22Z</time>
      </trkpt>
      <trkpt lat="48.22899" lon="6.68031">
        <ele>396.4</ele>
        <time>2025-01-11T12:58:30Z</time>
      </trkpt>
      <trkpt lat="48.22908" lon="6.68026">
        <ele>396.2</ele>
        <time>2025-01-11T12:58:36Z</time>
      </trkpt>
      <trkpt lat="48.22919" lon="6.68022">
        <ele>396.1</ele>
        <time>2025-01-11T12:58:44Z</time>
      </trkpt>
      <trkpt lat="48.22928" lon="6.68019">
        <ele>396</ele>
        <time>2025-01-11T12:58:51Z</time>
      </trkpt>
      <trkpt lat="48.22938" lon="6.68017">
        <ele>395.9</ele>
        <time>2025-01-11T12:59:05Z</time>
      </trkpt>
      <trkpt lat="48.22947" lon="6.68012">
        <ele>395.7</ele>
        <time>2025-01-11T12:59:13Z</time>
      </trkpt>
      <trkpt lat="48.22956" lon="6.68009">
        <ele>395.4</ele>
        <time>2025-01-11T12:59:19Z</time>
      </trkpt>
      <trkpt lat="48.22966" lon="6.68007">
        <ele>395.1</ele>
        <time>2025-01-11T12:59:26Z</time>
      </trkpt>
      <trkpt lat="48.22974" lon="6.68001">
        <ele>394.8</ele>
        <time>2025-01-11T12:59:33Z</time>
      </trkpt>
      <trkpt lat="48.22983" lon="6.67998">
        <ele>394.6</ele>
        <time>2025-01-11T12:59:42Z</time>
      </trkpt>
      <trkpt lat="48.22993" lon="6.67996">
        <ele>394.4</ele>
        <time>2025-01-11T12:59:49Z</time>
      </trkpt>
      <trkpt lat="48.23003" lon="6.6799">
        <ele>394.2</ele>
        <time>2025-01-11T12:59:59Z</time>
      </trkpt>
      <trkpt lat="48.23013" lon="6.67988">
        <ele>394.1</ele>
        <time>2025-01-11T13:00:07Z</time>
      </trkpt>
      <trkpt lat="48.23021" lon="6.67981">
        <ele>394</ele>
        <time>2025-01-11T13:00:14Z</time>
      </trkpt>
      <trkpt lat="48.2303" lon="6.67977">
        <ele>393.9</ele>
        <time>2025-01-11T13:00:23Z</time>
      </trkpt>
      <trkpt lat="48.23038" lon="6.67969">
        <ele>393.9</ele>
        <time>2025-01-11T13:00:30Z</time>
      </trkpt>
      <trkpt lat="48.23047" lon="6.67961">
        <ele>393.8</ele>
        <time>2025-01-11T13:00:40Z</time>
      </trkpt>
      <trkpt lat="48.23055" lon="6.67953">
        <ele>393.7</ele>
        <time>2025-01-11T13:00:49Z</time>
      </trkpt>
      <trkpt lat="48.23065" lon="6.67949">
        <ele>393.5</ele>
        <time>2025-01-11T13:00:55Z</time>
      </trkpt>
      <trkpt lat="48.23074" lon="6.67947">
        <ele>393.3</ele>
        <time>2025-01-11T13:01:01Z</time>
      </trkpt>
      <trkpt lat="48.23079" lon="6.67935">
        <ele>392.8</ele>
        <time>2025-01-11T13:01:12Z</time>
      </trkpt>
      <trkpt lat="48.23088" lon="6.67929">
        <ele>392.3</ele>
        <time>2025-01-11T13:01:22Z</time>
      </trkpt>
      <trkpt lat="48.23098" lon="6.67929">
        <ele>391.6</ele>
        <time>2025-01-11T13:01:27Z</time>
      </trkpt>
      <trkpt lat="48.23107" lon="6.67932">
        <ele>391</ele>
        <time>2025-01-11T13:01:34Z</time>
      </trkpt>
      <trkpt lat="48.23117" lon="6.6793">
        <ele>390.3</ele>
        <time>2025-01-11T13:02:02Z</time>
      </trkpt>
      <trkpt lat="48.23126" lon="6.6793">
        <ele>389.7</ele>
        <time>2025-01-11T13:02:11Z</time>
      </trkpt>
      <trkpt lat="48.23136" lon="6.67931">
        <ele>389.3</ele>
        <time>2025-01-11T13:02:18Z</time>
      </trkpt>
      <trkpt lat="48.23144" lon="6.67934">
        <ele>388.9</ele>
        <time>2025-01-11T13:02:26Z</time>
      </trkpt>
      <trkpt lat="48.23155" lon="6.67933">
        <ele>388.4</ele>
        <time>2025-01-11T13:02:34Z</time>
      </trkpt>
      <trkpt lat="48.23164" lon="6.67931">
        <ele>387.9</ele>
        <time>2025-01-11T13:02:42Z</time>
      </trkpt>
      <trkpt lat="48.23173" lon="6.67932">
        <ele>387.5</ele>
        <time>2025-01-11T13:02:50Z</time>
      </trkpt>
      <trkpt lat="48.23182" lon="6.67931">
        <ele>387.2</ele>
        <time>2025-01-11T13:02:56Z</time>
      </trkpt>
      <trkpt lat="48.23192" lon="6.6793">
        <ele>386.9</ele>
        <time>2025-01-11T13:03:02Z</time>
      </trkpt>
      <trkpt lat="48.23201" lon="6.67929">
        <ele>386.6</ele>
        <time>2025-01-11T13:03:11Z</time>
      </trkpt>
      <trkpt lat="48.23212" lon="6.67929">
        <ele>386.2</ele>
        <time>2025-01-11T13:03:17Z</time>
      </trkpt>
      <trkpt lat="48.23221" lon="6.67925">
        <ele>385.9</ele>
        <time>2025-01-11T13:03:24Z</time>
      </trkpt>
      <trkpt lat="48.2323" lon="6.67925">
        <ele>385.6</ele>
        <time>2025-01-11T13:03:31Z</time>
      </trkpt>
      <trkpt lat="48.2324" lon="6.67925">
        <ele>385.2</ele>
        <time>2025-01-11T13:03:37Z</time>
      </trkpt>
      <trkpt lat="48.23249" lon="6.67928">
        <ele>384.9</ele>
        <time>2025-01-11T13:03:45Z</time>
      </trkpt>
      <trkpt lat="48.23257" lon="6.67918">
        <ele>384.6</ele>
        <time>2025-01-11T13:03:56Z</time>
      </trkpt>
      <trkpt lat="48.23259" lon="6.67903">
        <ele>384.3</ele>
        <time>2025-01-11T13:04:07Z</time>
      </trkpt>
      <trkpt lat="48.23266" lon="6.67896">
        <ele>384</ele>
        <time>2025-01-11T13:04:14Z</time>
      </trkpt>
      <trkpt lat="48.23275" lon="6.67887">
        <ele>383.7</ele>
        <time>2025-01-11T13:04:21Z</time>
      </trkpt>
      <trkpt lat="48.23284" lon="6.67882">
        <ele>383.4</ele>
        <time>2025-01-11T13:04:26Z</time>
      </trkpt>
      <trkpt lat="48.23293" lon="6.67876">
        <ele>383.2</ele>
        <time>2025-01-11T13:04:31Z</time>
      </trkpt>
      <trkpt lat="48.23301" lon="6.67867">
        <ele>383</ele>
        <time>2025-01-11T13:04:38Z</time>
      </trkpt>
      <trkpt lat="48.23305" lon="6.67855">
        <ele>382.8</ele>
        <time>2025-01-11T13:04:47Z</time>
      </trkpt>
      <trkpt lat="48.23305" lon="6.67841">
        <ele>382.6</ele>
        <time>2025-01-11T13:05:03Z</time>
      </trkpt>
      <trkpt lat="48.23312" lon="6.6783">
        <ele>382.4</ele>
        <time>2025-01-11T13:05:10Z</time>
      </trkpt>
      <trkpt lat="48.23318" lon="6.6782">
        <ele>382.2</ele>
        <time>2025-01-11T13:05:18Z</time>
      </trkpt>
      <trkpt lat="48.23323" lon="6.67807">
        <ele>381.9</ele>
        <time>2025-01-11T13:05:27Z</time>
      </trkpt>
      <trkpt lat="48.23329" lon="6.67796">
        <ele>381.8</ele>
        <time>2025-01-11T13:05:35Z</time>
      </trkpt>
      <trkpt lat="48.23335" lon="6.67785">
        <ele>381.6</ele>
        <time>2025-01-11T13:05:43Z</time>
      </trkpt>
      <trkpt lat="48.23342" lon="6.67775">
        <ele>381.5</ele>
        <time>2025-01-11T13:05:52Z</time>
      </trkpt>
      <trkpt lat="48.23351" lon="6.67767">
        <ele>381.4</ele>
        <time>2025-01-11T13:06:00Z</time>
      </trkpt>
      <trkpt lat="48.23359" lon="6.67759">
        <ele>381.3</ele>
        <time>2025-01-11T13:06:09Z</time>
      </trkpt>
      <trkpt lat="48.23366" lon="6.67748">
        <ele>381.3</ele>
        <time>2025-01-11T13:06:19Z</time>
      </trkpt>
      <trkpt lat="48.23374" lon="6.67741">
        <ele>381.2</ele>
        <time>2025-01-11T13:06:27Z</time>
      </trkpt>
      <trkpt lat="48.23381" lon="6.67731">
        <ele>381.2</ele>
        <time>2025-01-11T13:06:35Z</time>
      </trkpt>
      <trkpt lat="48.23384" lon="6.67718">
        <ele>381.1</ele>
        <time>2025-01-11T13:06:44Z</time>
      </trkpt>
      <trkpt lat="48.23389" lon="6.67706">
        <ele>381</ele>
        <time>2025-01-11T13:06:53Z</time>
      </trkpt>
      <trkpt lat="48.23395" lon="6.67694">
        <ele>380.9</ele>
        <time>2025-01-11T13:07:02Z</time>
      </trkpt>
      <trkpt lat="48.234" lon="6.67684">
        <ele>380.9</ele>
        <time>2025-01-11T13:07:09Z</time>
      </trkpt>
      <trkpt lat="48.23406" lon="6.67671">
        <ele>380.8</ele>
        <time>2025-01-11T13:07:19Z</time>
      </trkpt>
      <trkpt lat="48.23411" lon="6.6766">
        <ele>380.8</ele>
        <time>2025-01-11T13:07:27Z</time>
      </trkpt>
      <trkpt lat="48.23417" lon="6.67648">
        <ele>380.9</ele>
        <time>2025-01-11T13:07:36Z</time>
      </trkpt>
      <trkpt lat="48.23422" lon="6.67637">
        <ele>380.9</ele>
        <time>2025-01-11T13:07:44Z</time>
      </trkpt>
      <trkpt lat="48.23429" lon="6.67626">
        <ele>381</ele>
        <time>2025-01-11T13:07:52Z</time>
      </trkpt>
      <trkpt lat="48.23434" lon="6.67614">
        <ele>381</ele>
        <time>2025-01-11T13:08:01Z</time>
      </trkpt>
      <trkpt lat="48.23437" lon="6.676">
        <ele>381</ele>
        <time>2025-01-11T13:08:09Z</time>
      </trkpt>
      <trkpt lat="48.23442" lon="6.67588">
        <ele>381</ele>
        <time>2025-01-11T13:08:17Z</time>
      </trkpt>
      <trkpt lat="48.23444" lon="6.67574">
        <ele>381</ele>
        <time>2025-01-11T13:08:25Z</time>
      </trkpt>
      <trkpt lat="48.23446" lon="6.6756">
        <ele>380.9</ele>
        <time>2025-01-11T13:08:33Z</time>
      </trkpt>
      <trkpt lat="48.23451" lon="6.67548">
        <ele>380.8</ele>
        <time>2025-01-11T13:08:40Z</time>
      </trkpt>
      <trkpt lat="48.23453" lon="6.67534">
        <ele>380.6</ele>
        <time>2025-01-11T13:08:48Z</time>
      </trkpt>
      <trkpt lat="48.23456" lon="6.67519">
        <ele>380.4</ele>
        <time>2025-01-11T13:08:56Z</time>
      </trkpt>
      <trkpt lat="48.23455" lon="6.67505">
        <ele>380.2</ele>
        <time>2025-01-11T13:09:04Z</time>
      </trkpt>
      <trkpt lat="48.23456" lon="6.67489">
        <ele>380.1</ele>
        <time>2025-01-11T13:09:12Z</time>
      </trkpt>
      <trkpt lat="48.23457" lon="6.67475">
        <ele>380.1</ele>
        <time>2025-01-11T13:09:20Z</time>
      </trkpt>
      <trkpt lat="48.2346" lon="6.67461">
        <ele>380.1</ele>
        <time>2025-01-11T13:09:28Z</time>
      </trkpt>
      <trkpt lat="48.23464" lon="6.67446">
        <ele>380.3</ele>
        <time>2025-01-11T13:09:36Z</time>
      </trkpt>
      <trkpt lat="48.23463" lon="6.67431">
        <ele>380.4</ele>
        <time>2025-01-11T13:09:44Z</time>
      </trkpt>
      <trkpt lat="48.23464" lon="6.67416">
        <ele>380.4</ele>
        <time>2025-01-11T13:09:52Z</time>
      </trkpt>
      <trkpt lat="48.23465" lon="6.67402">
        <ele>380.3</ele>
        <time>2025-01-11T13:10:00Z</time>
      </trkpt>
      <trkpt lat="48.23464" lon="6.67388">
        <ele>380.1</ele>
        <time>2025-01-11T13:10:08Z</time>
      </trkpt>
      <trkpt lat="48.23462" lon="6.67373">
        <ele>379.9</ele>
        <time>2025-01-11T13:10:16Z</time>
      </trkpt>
      <trkpt lat="48.23463" lon="6.67359">
        <ele>379.7</ele>
        <time>2025-01-11T13:10:24Z</time>
      </trkpt>
      <trkpt lat="48.23462" lon="6.67344">
        <ele>379.5</ele>
        <time>2025-01-11T13:10:32Z</time>
      </trkpt>
      <trkpt lat="48.23461" lon="6.6733">
        <ele>379.1</ele>
        <time>2025-01-11T13:10:40Z</time>
      </trkpt>
      <trkpt lat="48.23458" lon="6.67316">
        <ele>378.8</ele>
        <time>2025-01-11T13:10:48Z</time>
      </trkpt>
      <trkpt lat="48.23458" lon="6.67301">
        <ele>378.5</ele>
        <time>2025-01-11T13:10:57Z</time>
      </trkpt>
      <trkpt lat="48.23458" lon="6.67288">
        <ele>378.2</ele>
        <time>2025-01-11T13:11:04Z</time>
      </trkpt>
      <trkpt lat="48.23458" lon="6.67273">
        <ele>378.1</ele>
        <time>2025-01-11T13:11:13Z</time>
      </trkpt>
      <trkpt lat="48.23457" lon="6.67258">
        <ele>377.9</ele>
        <time>2025-01-11T13:11:21Z</time>
      </trkpt>
      <trkpt lat="48.23459" lon="6.67244">
        <ele>377.9</ele>
        <time>2025-01-11T13:11:29Z</time>
      </trkpt>
      <trkpt lat="48.23459" lon="6.67229">
        <ele>377.8</ele>
        <time>2025-01-11T13:11:38Z</time>
      </trkpt>
      <trkpt lat="48.23457" lon="6.67215">
        <ele>377.8</ele>
        <time>2025-01-11T13:11:46Z</time>
      </trkpt>
      <trkpt lat="48.2346" lon="6.67203">
        <ele>377.8</ele>
        <time>2025-01-11T13:11:53Z</time>
      </trkpt>
      <trkpt lat="48.23463" lon="6.67189">
        <ele>377.8</ele>
        <time>2025-01-11T13:12:01Z</time>
      </trkpt>
      <trkpt lat="48.23463" lon="6.67174">
        <ele>377.8</ele>
        <time>2025-01-11T13:12:10Z</time>
      </trkpt>
      <trkpt lat="48.23464" lon="6.67159">
        <ele>377.9</ele>
        <time>2025-01-11T13:12:18Z</time>
      </trkpt>
      <trkpt lat="48.23464" lon="6.67145">
        <ele>378.1</ele>
        <time>2025-01-11T13:12:26Z</time>
      </trkpt>
      <trkpt lat="48.23465" lon="6.67131">
        <ele>378.4</ele>
        <time>2025-01-11T13:12:34Z</time>
      </trkpt>
      <trkpt lat="48.23467" lon="6.67117">
        <ele>378.6</ele>
        <time>2025-01-11T13:12:42Z</time>
      </trkpt>
      <trkpt lat="48.2347" lon="6.67102">
        <ele>379.1</ele>
        <time>2025-01-11T13:12:51Z</time>
      </trkpt>
      <trkpt lat="48.23475" lon="6.67089">
        <ele>379.6</ele>
        <time>2025-01-11T13:12:59Z</time>
      </trkpt>
      <trkpt lat="48.23478" lon="6.67076">
        <ele>380</ele>
        <time>2025-01-11T13:13:07Z</time>
      </trkpt>
      <trkpt lat="48.23483" lon="6.67063">
        <ele>380.2</ele>
        <time>2025-01-11T13:13:26Z</time>
      </trkpt>
      <trkpt lat="48.2349" lon="6.67052">
        <ele>380.2</ele>
        <time>2025-01-11T13:13:34Z</time>
      </trkpt>
      <trkpt lat="48.23494" lon="6.67039">
        <ele>379.7</ele>
        <time>2025-01-11T13:13:43Z</time>
      </trkpt>
      <trkpt lat="48.23498" lon="6.67025">
        <ele>379.1</ele>
        <time>2025-01-11T13:13:52Z</time>
      </trkpt>
      <trkpt lat="48.23502" lon="6.67013">
        <ele>378.5</ele>
        <time>2025-01-11T13:14:00Z</time>
      </trkpt>
      <trkpt lat="48.23508" lon="6.67001">
        <ele>377.8</ele>
        <time>2025-01-11T13:14:08Z</time>
      </trkpt>
      <trkpt lat="48.23514" lon="6.6699">
        <ele>377.2</ele>
        <time>2025-01-11T13:14:17Z</time>
      </trkpt>
      <trkpt lat="48.23521" lon="6.66979">
        <ele>376.7</ele>
        <time>2025-01-11T13:14:26Z</time>
      </trkpt>
      <trkpt lat="48.23527" lon="6.66967">
        <ele>376.4</ele>
        <time>2025-01-11T13:14:35Z</time>
      </trkpt>
      <trkpt lat="48.23533" lon="6.66958">
        <ele>376.1</ele>
        <time>2025-01-11T13:14:43Z</time>
      </trkpt>
      <trkpt lat="48.23542" lon="6.66951">
        <ele>375.8</ele>
        <time>2025-01-11T13:14:51Z</time>
      </trkpt>
      <trkpt lat="48.23549" lon="6.66942">
        <ele>375.3</ele>
        <time>2025-01-11T13:15:00Z</time>
      </trkpt>
      <trkpt lat="48.23558" lon="6.66936">
        <ele>374.8</ele>
        <time>2025-01-11T13:15:10Z</time>
      </trkpt>
      <trkpt lat="48.23567" lon="6.6693">
        <ele>374.1</ele>
        <time>2025-01-11T13:15:19Z</time>
      </trkpt>
      <trkpt lat="48.23576" lon="6.66924">
        <ele>373.5</ele>
        <time>2025-01-11T13:15:28Z</time>
      </trkpt>
      <trkpt lat="48.23585" lon="6.6692">
        <ele>372.9</ele>
        <time>2025-01-11T13:15:36Z</time>
      </trkpt>
      <trkpt lat="48.23593" lon="6.66913">
        <ele>372.2</ele>
        <time>2025-01-11T13:15:46Z</time>
      </trkpt>
      <trkpt lat="48.23603" lon="6.66909">
        <ele>371.5</ele>
        <time>2025-01-11T13:15:54Z</time>
      </trkpt>
      <trkpt lat="48.23612" lon="6.66902">
        <ele>371</ele>
        <time>2025-01-11T13:16:01Z</time>
      </trkpt>
      <trkpt lat="48.23621" lon="6.66897">
        <ele>371</ele>
        <time>2025-01-11T13:16:08Z</time>
      </trkpt>
      <trkpt lat="48.23629" lon="6.66894">
        <ele>370.8</ele>
        <time>2025-01-11T13:16:19Z</time>
      </trkpt>
      <trkpt lat="48.23638" lon="6.66891">
        <ele>370.5</ele>
        <time>2025-01-11T13:16:26Z</time>
      </trkpt>
      <trkpt lat="48.23648" lon="6.66888">
        <ele>370</ele>
        <time>2025-01-11T13:16:34Z</time>
      </trkpt>
      <trkpt lat="48.23657" lon="6.66888">
        <ele>369.4</ele>
        <time>2025-01-11T13:16:43Z</time>
      </trkpt>
      <trkpt lat="48.23667" lon="6.66888">
        <ele>368.7</ele>
        <time>2025-01-11T13:16:51Z</time>
      </trkpt>
      <trkpt lat="48.23676" lon="6.66886">
        <ele>368</ele>
        <time>2025-01-11T13:16:57Z</time>
      </trkpt>
      <trkpt lat="48.23685" lon="6.66881">
        <ele>367.4</ele>
        <time>2025-01-11T13:17:06Z</time>
      </trkpt>
      <trkpt lat="48.23694" lon="6.66876">
        <ele>366.9</ele>
        <time>2025-01-11T13:17:15Z</time>
      </trkpt>
      <trkpt lat="48.23703" lon="6.66871">
        <ele>366.5</ele>
        <time>2025-01-11T13:17:24Z</time>
      </trkpt>
      <trkpt lat="48.23711" lon="6.66863">
        <ele>366</ele>
        <time>2025-01-11T13:17:33Z</time>
      </trkpt>
      <trkpt lat="48.2372" lon="6.66856">
        <ele>365.6</ele>
        <time>2025-01-11T13:17:41Z</time>
      </trkpt>
      <trkpt lat="48.23729" lon="6.66851">
        <ele>365.2</ele>
        <time>2025-01-11T13:17:49Z</time>
      </trkpt>
      <trkpt lat="48.23739" lon="6.66847">
        <ele>364.8</ele>
        <time>2025-01-11T13:17:58Z</time>
      </trkpt>
      <trkpt lat="48.23748" lon="6.66846">
        <ele>364.5</ele>
        <time>2025-01-11T13:18:05Z</time>
      </trkpt>
      <trkpt lat="48.23758" lon="6.66846">
        <ele>364.2</ele>
        <time>2025-01-11T13:18:13Z</time>
      </trkpt>
      <trkpt lat="48.23767" lon="6.66844">
        <ele>364</ele>
        <time>2025-01-11T13:18:21Z</time>
      </trkpt>
      <trkpt lat="48.23777" lon="6.66844">
        <ele>363.7</ele>
        <time>2025-01-11T13:18:30Z</time>
      </trkpt>
      <trkpt lat="48.23786" lon="6.66842">
        <ele>363.6</ele>
        <time>2025-01-11T13:18:36Z</time>
      </trkpt>
      <trkpt lat="48.23795" lon="6.66839">
        <ele>363.4</ele>
        <time>2025-01-11T13:18:43Z</time>
      </trkpt>
      <trkpt lat="48.23804" lon="6.66835">
        <ele>363.4</ele>
        <time>2025-01-11T13:18:52Z</time>
      </trkpt>
      <trkpt lat="48.23814" lon="6.6683">
        <ele>363.4</ele>
        <time>2025-01-11T13:19:00Z</time>
      </trkpt>
      <trkpt lat="48.23823" lon="6.66825">
        <ele>363.4</ele>
        <time>2025-01-11T13:19:08Z</time>
      </trkpt>
      <trkpt lat="48.23832" lon="6.66818">
        <ele>363.4</ele>
        <time>2025-01-11T13:19:16Z</time>
      </trkpt>
      <trkpt lat="48.2384" lon="6.66809">
        <ele>363.4</ele>
        <time>2025-01-11T13:19:24Z</time>
      </trkpt>
      <trkpt lat="48.23846" lon="6.66798">
        <ele>363.3</ele>
        <time>2025-01-11T13:19:32Z</time>
      </trkpt>
      <trkpt lat="48.23852" lon="6.66786">
        <ele>363.3</ele>
        <time>2025-01-11T13:19:40Z</time>
      </trkpt>
      <trkpt lat="48.23857" lon="6.66773">
        <ele>363.3</ele>
        <time>2025-01-11T13:19:48Z</time>
      </trkpt>
      <trkpt lat="48.23863" lon="6.66762">
        <ele>363.3</ele>
        <time>2025-01-11T13:19:56Z</time>
      </trkpt>
      <trkpt lat="48.23869" lon="6.6675">
        <ele>363.3</ele>
        <time>2025-01-11T13:20:04Z</time>
      </trkpt>
      <trkpt lat="48.23875" lon="6.66738">
        <ele>363</ele>
        <time>2025-01-11T13:20:12Z</time>
      </trkpt>
      <trkpt lat="48.2388" lon="6.66725">
        <ele>362.6</ele>
        <time>2025-01-11T13:20:20Z</time>
      </trkpt>
      <trkpt lat="48.2389" lon="6.66721">
        <ele>362.4</ele>
        <time>2025-01-11T13:20:28Z</time>
      </trkpt>
      <trkpt lat="48.23899" lon="6.66721">
        <ele>362</ele>
        <time>2025-01-11T13:20:36Z</time>
      </trkpt>
      <trkpt lat="48.23898" lon="6.66706">
        <ele>361.6</ele>
        <time>2025-01-11T13:20:44Z</time>
      </trkpt>
      <trkpt lat="48.23898" lon="6.66691">
        <ele>361.3</ele>
        <time>2025-01-11T13:20:51Z</time>
      </trkpt>
      <trkpt lat="48.23899" lon="6.66677">
        <ele>360.9</ele>
        <time>2025-01-11T13:20:58Z</time>
      </trkpt>
      <trkpt lat="48.239" lon="6.66662">
        <ele>360.5</ele>
        <time>2025-01-11T13:21:05Z</time>
      </trkpt>
      <trkpt lat="48.23903" lon="6.66649">
        <ele>360.1</ele>
        <time>2025-01-11T13:21:11Z</time>
      </trkpt>
      <trkpt lat="48.23904" lon="6.66634">
        <ele>359.7</ele>
        <time>2025-01-11T13:21:18Z</time>
      </trkpt>
      <trkpt lat="48.23906" lon="6.6662">
        <ele>359.5</ele>
        <time>2025-01-11T13:21:25Z</time>
      </trkpt>
      <trkpt lat="48.23909" lon="6.66607">
        <ele>359.3</ele>
        <time>2025-01-11T13:21:32Z</time>
      </trkpt>
      <trkpt lat="48.2391" lon="6.66593">
        <ele>359.2</ele>
        <time>2025-01-11T13:21:39Z</time>
      </trkpt>
      <trkpt lat="48.23912" lon="6.6658">
        <ele>359.2</ele>
        <time>2025-01-11T13:21:46Z</time>
      </trkpt>
      <trkpt lat="48.23914" lon="6.66566">
        <ele>359.3</ele>
        <time>2025-01-11T13:21:53Z</time>
      </trkpt>
      <trkpt lat="48.23916" lon="6.66552">
        <ele>359.4</ele>
        <time>2025-01-11T13:22:00Z</time>
      </trkpt>
      <trkpt lat="48.23917" lon="6.66538">
        <ele>359.5</ele>
        <time>2025-01-11T13:22:07Z</time>
      </trkpt>
      <trkpt lat="48.23918" lon="6.66525">
        <ele>359.7</ele>
        <time>2025-01-11T13:22:14Z</time>
      </trkpt>
      <trkpt lat="48.2392" lon="6.6651">
        <ele>359.9</ele>
        <time>2025-01-11T13:22:21Z</time>
      </trkpt>
      <trkpt lat="48.23919" lon="6.66496">
        <ele>360.1</ele>
        <time>2025-01-11T13:22:28Z</time>
      </trkpt>
      <trkpt lat="48.2392" lon="6.66482">
        <ele>360.3</ele>
        <time>2025-01-11T13:22:35Z</time>
      </trkpt>
      <trkpt lat="48.23921" lon="6.66468">
        <ele>360.5</ele>
        <time>2025-01-11T13:22:42Z</time>
      </trkpt>
      <trkpt lat="48.23922" lon="6.66454">
        <ele>360.5</ele>
        <time>2025-01-11T13:22:49Z</time>
      </trkpt>
      <trkpt lat="48.23923" lon="6.6644">
        <ele>360.5</ele>
        <time>2025-01-11T13:22:56Z</time>
      </trkpt>
      <trkpt lat="48.23924" lon="6.66425">
        <ele>360.5</ele>
        <time>2025-01-11T13:23:03Z</time>
      </trkpt>
      <trkpt lat="48.23925" lon="6.66411">
        <ele>360.6</ele>
        <time>2025-01-11T13:23:10Z</time>
      </trkpt>
      <trkpt lat="48.23926" lon="6.66398">
        <ele>360.6</ele>
        <time>2025-01-11T13:23:17Z</time>
      </trkpt>
      <trkpt lat="48.23927" lon="6.66383">
        <ele>360.7</ele>
        <time>2025-01-11T13:23:25Z</time>
      </trkpt>
      <trkpt lat="48.23928" lon="6.66369">
        <ele>360.8</ele>
        <time>2025-01-11T13:23:33Z</time>
      </trkpt>
      <trkpt lat="48.23928" lon="6.66355">
        <ele>361</ele>
        <time>2025-01-11T13:23:47Z</time>
      </trkpt>
      <trkpt lat="48.2393" lon="6.6634">
        <ele>361.2</ele>
        <time>2025-01-11T13:23:55Z</time>
      </trkpt>
      <trkpt lat="48.23931" lon="6.66325">
        <ele>361.5</ele>
        <time>2025-01-11T13:24:03Z</time>
      </trkpt>
      <trkpt lat="48.23932" lon="6.66311">
        <ele>361.8</ele>
        <time>2025-01-11T13:24:10Z</time>
      </trkpt>
      <trkpt lat="48.23932" lon="6.66297">
        <ele>362.1</ele>
        <time>2025-01-11T13:24:18Z</time>
      </trkpt>
      <trkpt lat="48.23932" lon="6.66283">
        <ele>362.4</ele>
        <time>2025-01-11T13:24:26Z</time>
      </trkpt>
      <trkpt lat="48.23933" lon="6.66268">
        <ele>362.8</ele>
        <time>2025-01-11T13:24:34Z</time>
      </trkpt>
      <trkpt lat="48.23934" lon="6.66254">
        <ele>363.2</ele>
        <time>2025-01-11T13:24:42Z</time>
      </trkpt>
      <trkpt lat="48.23935" lon="6.66239">
        <ele>363.7</ele>
        <time>2025-01-11T13:24:50Z</time>
      </trkpt>
      <trkpt lat="48.23936" lon="6.66225">
        <ele>364.2</ele>
        <time>2025-01-11T13:24:58Z</time>
      </trkpt>
      <trkpt lat="48.23936" lon="6.6621">
        <ele>364.8</ele>
        <time>2025-01-11T13:25:06Z</time>
      </trkpt>
      <trkpt lat="48.23936" lon="6.66196">
        <ele>365.3</ele>
        <time>2025-01-11T13:25:13Z</time>
      </trkpt>
      <trkpt lat="48.23936" lon="6.66183">
        <ele>365.8</ele>
        <time>2025-01-11T13:25:20Z</time>
      </trkpt>
      <trkpt lat="48.23936" lon="6.66169">
        <ele>366.3</ele>
        <time>2025-01-11T13:25:27Z</time>
      </trkpt>
      <trkpt lat="48.23935" lon="6.66155">
        <ele>366.9</ele>
        <time>2025-01-11T13:25:34Z</time>
      </trkpt>
      <trkpt lat="48.23929" lon="6.66142">
        <ele>367.6</ele>
        <time>2025-01-11T13:25:41Z</time>
      </trkpt>
      <trkpt lat="48.23921" lon="6.66135">
        <ele>368.1</ele>
        <time>2025-01-11T13:25:48Z</time>
      </trkpt>
      <trkpt lat="48.23913" lon="6.66128">
        <ele>368.6</ele>
        <time>2025-01-11T13:25:55Z</time>
      </trkpt>
      <trkpt lat="48.23906" lon="6.66121">
        <ele>369</ele>
        <time>2025-01-11T13:26:04Z</time>
      </trkpt>
      <trkpt lat="48.23898" lon="6.66112">
        <ele>369.5</ele>
        <time>2025-01-11T13:26:11Z</time>
      </trkpt>
      <trkpt lat="48.23891" lon="6.66103">
        <ele>369.9</ele>
        <time>2025-01-11T13:26:18Z</time>
      </trkpt>
      <trkpt lat="48.23884" lon="6.66095">
        <ele>370.3</ele>
        <time>2025-01-11T13:26:25Z</time>
      </trkpt>
      <trkpt lat="48.23876" lon="6.66087">
        <ele>370.7</ele>
        <time>2025-01-11T13:26:32Z</time>
      </trkpt>
      <trkpt lat="48.23868" lon="6.66079">
        <ele>371.2</ele>
        <time>2025-01-11T13:26:40Z</time>
      </trkpt>
      <trkpt lat="48.23859" lon="6.66071">
        <ele>371.7</ele>
        <time>2025-01-11T13:26:48Z</time>
      </trkpt>
      <trkpt lat="48.23851" lon="6.66063">
        <ele>372.1</ele>
        <time>2025-01-11T13:26:55Z</time>
      </trkpt>
      <trkpt lat="48.23843" lon="6.66053">
        <ele>372.6</ele>
        <time>2025-01-11T13:27:02Z</time>
      </trkpt>
      <trkpt lat="48.23836" lon="6.66045">
        <ele>373</ele>
        <time>2025-01-11T13:27:09Z</time>
      </trkpt>
      <trkpt lat="48.23827" lon="6.66036">
        <ele>373.4</ele>
        <time>2025-01-11T13:27:17Z</time>
      </trkpt>
      <trkpt lat="48.2382" lon="6.66029">
        <ele>373.8</ele>
        <time>2025-01-11T13:27:24Z</time>
      </trkpt>
      <trkpt lat="48.23813" lon="6.6602">
        <ele>374.2</ele>
        <time>2025-01-11T13:27:31Z</time>
      </trkpt>
      <trkpt lat="48.23805" lon="6.66012">
        <ele>374.5</ele>
        <time>2025-01-11T13:27:38Z</time>
      </trkpt>
      <trkpt lat="48.23797" lon="6.66004">
        <ele>374.8</ele>
        <time>2025-01-11T13:27:45Z</time>
      </trkpt>
      <trkpt lat="48.23789" lon="6.65997">
        <ele>375.2</ele>
        <time>2025-01-11T13:27:52Z</time>
      </trkpt>
      <trkpt lat="48.23781" lon="6.6599">
        <ele>375.5</ele>
        <time>2025-01-11T13:27:59Z</time>
      </trkpt>
      <trkpt lat="48.23773" lon="6.65984">
        <ele>375.9</ele>
        <time>2025-01-11T13:28:06Z</time>
      </trkpt>
      <trkpt lat="48.23764" lon="6.65978">
        <ele>376.3</ele>
        <time>2025-01-11T13:28:13Z</time>
      </trkpt>
      <trkpt lat="48.23755" lon="6.65973">
        <ele>376.7</ele>
        <time>2025-01-11T13:28:20Z</time>
      </trkpt>
      <trkpt lat="48.23746" lon="6.65968">
        <ele>377.1</ele>
        <time>2025-01-11T13:28:28Z</time>
      </trkpt>
      <trkpt lat="48.23736" lon="6.65964">
        <ele>377.5</ele>
        <time>2025-01-11T13:28:36Z</time>
      </trkpt>
      <trkpt lat="48.23727" lon="6.6596">
        <ele>377.9</ele>
        <time>2025-01-11T13:28:43Z</time>
      </trkpt>
      <trkpt lat="48.23718" lon="6.65958">
        <ele>378.3</ele>
        <time>2025-01-11T13:28:50Z</time>
      </trkpt>
      <trkpt lat="48.23709" lon="6.65955">
        <ele>378.7</ele>
        <time>2025-01-11T13:28:57Z</time>
      </trkpt>
      <trkpt lat="48.23699" lon="6.65952">
        <ele>379.2</ele>
        <time>2025-01-11T13:29:05Z</time>
      </trkpt>
      <trkpt lat="48.23689" lon="6.6595">
        <ele>379.7</ele>
        <time>2025-01-11T13:29:13Z</time>
      </trkpt>
      <trkpt lat="48.2368" lon="6.65947">
        <ele>380.2</ele>
        <time>2025-01-11T13:29:21Z</time>
      </trkpt>
      <trkpt lat="48.23672" lon="6.65943">
        <ele>380.7</ele>
        <time>2025-01-11T13:29:29Z</time>
      </trkpt>
      <trkpt lat="48.23662" lon="6.65937">
        <ele>381.2</ele>
        <time>2025-01-11T13:29:37Z</time>
      </trkpt>
      <trkpt lat="48.23653" lon="6.65932">
        <ele>381.7</ele>
        <time>2025-01-11T13:29:45Z</time>
      </trkpt>
      <trkpt lat="48.23645" lon="6.65924">
        <ele>382.1</ele>
        <time>2025-01-11T13:29:53Z</time>
      </trkpt>
      <trkpt lat="48.23637" lon="6.65916">
        <ele>382.5</ele>
        <time>2025-01-11T13:30:01Z</time>
      </trkpt>
      <trkpt lat="48.2363" lon="6.65905">
        <ele>382.9</ele>
        <time>2025-01-11T13:30:09Z</time>
      </trkpt>
      <trkpt lat="48.23623" lon="6.65895">
        <ele>383.3</ele>
        <time>2025-01-11T13:30:17Z</time>
      </trkpt>
      <trkpt lat="48.23616" lon="6.65885">
        <ele>383.5</ele>
        <time>2025-01-11T13:30:25Z</time>
      </trkpt>
      <trkpt lat="48.23609" lon="6.65877">
        <ele>383.8</ele>
        <time>2025-01-11T13:30:32Z</time>
      </trkpt>
      <trkpt lat="48.23602" lon="6.65868">
        <ele>383.9</ele>
        <time>2025-01-11T13:30:39Z</time>
      </trkpt>
      <trkpt lat="48.23593" lon="6.65859">
        <ele>384.1</ele>
        <time>2025-01-11T13:30:47Z</time>
      </trkpt>
      <trkpt lat="48.23585" lon="6.65851">
        <ele>384.2</ele>
        <time>2025-01-11T13:30:55Z</time>
      </trkpt>
      <trkpt lat="48.23576" lon="6.65844">
        <ele>384.3</ele>
        <time>2025-01-11T13:31:02Z</time>
      </trkpt>
      <trkpt lat="48.23568" lon="6.65838">
        <ele>384.4</ele>
        <time>2025-01-11T13:31:09Z</time>
      </trkpt>
      <trkpt lat="48.2356" lon="6.65831">
        <ele>384.4</ele>
        <time>2025-01-11T13:31:17Z</time>
      </trkpt>
      <trkpt lat="48.2355" lon="6.65825">
        <ele>384.4</ele>
        <time>2025-01-11T13:31:25Z</time>
      </trkpt>
      <trkpt lat="48.23542" lon="6.65818">
        <ele>384.4</ele>
        <time>2025-01-11T13:31:32Z</time>
      </trkpt>
      <trkpt lat="48.23534" lon="6.65809">
        <ele>384.3</ele>
        <time>2025-01-11T13:31:40Z</time>
      </trkpt>
      <trkpt lat="48.23528" lon="6.65799">
        <ele>384.2</ele>
        <time>2025-01-11T13:31:47Z</time>
      </trkpt>
      <trkpt lat="48.23522" lon="6.65788">
        <ele>384</ele>
        <time>2025-01-11T13:31:55Z</time>
      </trkpt>
      <trkpt lat="48.23516" lon="6.65775">
        <ele>383.8</ele>
        <time>2025-01-11T13:32:03Z</time>
      </trkpt>
      <trkpt lat="48.23513" lon="6.65761">
        <ele>383.5</ele>
        <time>2025-01-11T13:32:11Z</time>
      </trkpt>
      <trkpt lat="48.23512" lon="6.65747">
        <ele>383.2</ele>
        <time>2025-01-11T13:32:19Z</time>
      </trkpt>
      <trkpt lat="48.23511" lon="6.65732">
        <ele>382.9</ele>
        <time>2025-01-11T13:32:27Z</time>
      </trkpt>
      <trkpt lat="48.23511" lon="6.65717">
        <ele>382.6</ele>
        <time>2025-01-11T13:32:35Z</time>
      </trkpt>
      <trkpt lat="48.23512" lon="6.65702">
        <ele>382.3</ele>
        <time>2025-01-11T13:32:43Z</time>
      </trkpt>
      <trkpt lat="48.23514" lon="6.65689">
        <ele>381.9</ele>
        <time>2025-01-11T13:32:50Z</time>
      </trkpt>
      <trkpt lat="48.23515" lon="6.65675">
        <ele>381.5</ele>
        <time>2025-01-11T13:32:58Z</time>
      </trkpt>
      <trkpt lat="48.23517" lon="6.65661">
        <ele>381.1</ele>
        <time>2025-01-11T13:33:06Z</time>
      </trkpt>
      <trkpt lat="48.23519" lon="6.65647">
        <ele>380.7</ele>
        <time>2025-01-11T13:33:14Z</time>
      </trkpt>
      <trkpt lat="48.23521" lon="6.65633">
        <ele>380.2</ele>
        <time>2025-01-11T13:33:22Z</time>
      </trkpt>
      <trkpt lat="48.23522" lon="6.65618">
        <ele>379.8</ele>
        <time>2025-01-11T13:33:30Z</time>
      </trkpt>
      <trkpt lat="48.23523" lon="6.65603">
        <ele>379.3</ele>
        <time>2025-01-11T13:33:38Z</time>
      </trkpt>
      <trkpt lat="48.23523" lon="6.65588">
        <ele>378.7</ele>
        <time>2025-01-11T13:33:46Z</time>
      </trkpt>
      <trkpt lat="48.23524" lon="6.65575">
        <ele>378.2</ele>
        <time>2025-01-11T13:33:53Z</time>
      </trkpt>
      <trkpt lat="48.23524" lon="6.6556">
        <ele>377.6</ele>
        <time>2025-01-11T13:34:01Z</time>
      </trkpt>
      <trkpt lat="48.23523" lon="6.65547">
        <ele>377.1</ele>
        <time>2025-01-11T13:34:08Z</time>
      </trkpt>
      <trkpt lat="48.23522" lon="6.65533">
        <ele>376.5</ele>
        <time>2025-01-11T13:34:15Z</time>
      </trkpt>
      <trkpt lat="48.23524" lon="6.6552">
        <ele>376</ele>
        <time>2025-01-11T13:34:22Z</time>
      </trkpt>
      <trkpt lat="48.2353" lon="6.65507">
        <ele>375.3</ele>
        <time>2025-01-11T13:34:30Z</time>
      </trkpt>
      <trkpt lat="48.23536" lon="6.65497">
        <ele>374.7</ele>
        <time>2025-01-11T13:34:37Z</time>
      </trkpt>
      <trkpt lat="48.23543" lon="6.65487">
        <ele>374</ele>
        <time>2025-01-11T13:34:44Z</time>
      </trkpt>
      <trkpt lat="48.2355" lon="6.65477">
        <ele>373.4</ele>
        <time>2025-01-11T13:34:52Z</time>
      </trkpt>
      <trkpt lat="48.23555" lon="6.65465">
        <ele>372.7</ele>
        <time>2025-01-11T13:35:00Z</time>
      </trkpt>
      <trkpt lat="48.23562" lon="6.65453">
        <ele>372.1</ele>
        <time>2025-01-11T13:35:08Z</time>
      </trkpt>
      <trkpt lat="48.23568" lon="6.65442">
        <ele>371.4</ele>
        <time>2025-01-11T13:35:16Z</time>
      </trkpt>
      <trkpt lat="48.23574" lon="6.65431">
        <ele>370.7</ele>
        <time>2025-01-11T13:35:24Z</time>
      </trkpt>
      <trkpt lat="48.23581" lon="6.65419">
        <ele>370</ele>
        <time>2025-01-11T13:35:32Z</time>
      </trkpt>
      <trkpt lat="48.23588" lon="6.65409">
        <ele>369.2</ele>
        <time>2025-01-11T13:35:40Z</time>
      </trkpt>
      <trkpt lat="48.23596" lon="6.65399">
        <ele>368.5</ele>
        <time>2025-01-11T13:35:48Z</time>
      </trkpt>
      <trkpt lat="48.23603" lon="6.65389">
        <ele>367.7</ele>
        <time>2025-01-11T13:35:56Z</time>
      </trkpt>
      <trkpt lat="48.23611" lon="6.6538">
        <ele>367</ele>
        <time>2025-01-11T13:36:04Z</time>
      </trkpt>
      <trkpt lat="48.23619" lon="6.65371">
        <ele>366.3</ele>
        <time>2025-01-11T13:36:12Z</time>
      </trkpt>
      <trkpt lat="48.23626" lon="6.65361">
        <ele>365.7</ele>
        <time>2025-01-11T13:36:20Z</time>
      </trkpt>
      <trkpt lat="48.23632" lon="6.6535">
        <ele>365.1</ele>
        <time>2025-01-11T13:36:28Z</time>
      </trkpt>
      <trkpt lat="48.23637" lon="6.65337">
        <ele>364.5</ele>
        <time>2025-01-11T13:36:36Z</time>
      </trkpt>
      <trkpt lat="48.23641" lon="6.65324">
        <ele>364</ele>
        <time>2025-01-11T13:36:44Z</time>
      </trkpt>
      <trkpt lat="48.23644" lon="6.6531">
        <ele>363.5</ele>
        <time>2025-01-11T13:36:52Z</time>
      </trkpt>
      <trkpt lat="48.23649" lon="6.65296">
        <ele>363.1</ele>
        <time>2025-01-11T13:37:00Z</time>
      </trkpt>
      <trkpt lat="48.23653" lon="6.65282">
        <ele>362.8</ele>
        <time>2025-01-11T13:37:08Z</time>
      </trkpt>
      <trkpt lat="48.23657" lon="6.65268">
        <ele>362.5</ele>
        <time>2025-01-11T13:37:16Z</time>
      </trkpt>
      <trkpt lat="48.23661" lon="6.65256">
        <ele>362.3</ele>
        <time>2025-01-11T13:37:23Z</time>
      </trkpt>
      <trkpt lat="48.23665" lon="6.65243">
        <ele>362.2</ele>
        <time>2025-01-11T13:37:30Z</time>
      </trkpt>
      <trkpt lat="48.23668" lon="6.65229">
        <ele>362.2</ele>
        <time>2025-01-11T13:37:38Z</time>
      </trkpt>
      <trkpt lat="48.2367" lon="6.65215">
        <ele>362.3</ele>
        <time>2025-01-11T13:37:46Z</time>
      </trkpt>
      <trkpt lat="48.2367" lon="6.652">
        <ele>362.4</ele>
        <time>2025-01-11T13:37:54Z</time>
      </trkpt>
      <trkpt lat="48.23669" lon="6.65186">
        <ele>362.5</ele>
        <time>2025-01-11T13:38:01Z</time>
      </trkpt>
      <trkpt lat="48.23667" lon="6.65172">
        <ele>362.6</ele>
        <time>2025-01-11T13:38:08Z</time>
      </trkpt>
      <trkpt lat="48.23661" lon="6.65162">
        <ele>362.7</ele>
        <time>2025-01-11T13:38:15Z</time>
      </trkpt>
      <trkpt lat="48.23653" lon="6.65154">
        <ele>362.7</ele>
        <time>2025-01-11T13:38:22Z</time>
      </trkpt>
      <trkpt lat="48.23644" lon="6.65148">
        <ele>362.8</ele>
        <time>2025-01-11T13:38:29Z</time>
      </trkpt>
      <trkpt lat="48.23636" lon="6.65142">
        <ele>362.9</ele>
        <time>2025-01-11T13:38:36Z</time>
      </trkpt>
      <trkpt lat="48.23628" lon="6.65135">
        <ele>363</ele>
        <time>2025-01-11T13:38:43Z</time>
      </trkpt>
      <trkpt lat="48.2362" lon="6.65126">
        <ele>363.2</ele>
        <time>2025-01-11T13:38:50Z</time>
      </trkpt>
      <trkpt lat="48.23612" lon="6.65117">
        <ele>363.4</ele>
        <time>2025-01-11T13:38:58Z</time>
      </trkpt>
      <trkpt lat="48.23605" lon="6.65108">
        <ele>363.7</ele>
        <time>2025-01-11T13:39:05Z</time>
      </trkpt>
      <trkpt lat="48.23599" lon="6.65098">
        <ele>364</ele>
        <time>2025-01-11T13:39:12Z</time>
      </trkpt>
      <trkpt lat="48.23595" lon="6.65086">
        <ele>364.2</ele>
        <time>2025-01-11T13:39:19Z</time>
      </trkpt>
      <trkpt lat="48.23591" lon="6.65072">
        <ele>364.5</ele>
        <time>2025-01-11T13:39:27Z</time>
      </trkpt>
      <trkpt lat="48.23588" lon="6.65059">
        <ele>364.9</ele>
        <time>2025-01-11T13:39:35Z</time>
      </trkpt>
      <trkpt lat="48.23584" lon="6.65046">
        <ele>365.2</ele>
        <time>2025-01-11T13:39:43Z</time>
      </trkpt>
      <trkpt lat="48.23581" lon="6.65033">
        <ele>365.5</ele>
        <time>2025-01-11T13:39:51Z</time>
      </trkpt>
      <trkpt lat="48.23577" lon="6.65019">
        <ele>365.8</ele>
        <time>2025-01-11T13:39:59Z</time>
      </trkpt>
      <trkpt lat="48.23574" lon="6.65006">
        <ele>366.2</ele>
        <time>2025-01-11T13:40:07Z</time>
      </trkpt>
      <trkpt lat="48.23571" lon="6.64993">
        <ele>366.6</ele>
        <time>2025-01-11T13:40:15Z</time>
      </trkpt>
      <trkpt lat="48.23568" lon="6.64979">
        <ele>366.9</ele>
        <time>2025-01-11T13:40:23Z</time>
      </trkpt>
      <trkpt lat="48.23565" lon="6.64964">
        <ele>367.2</ele>
        <time>2025-01-11T13:40:31Z</time>
      </trkpt>
      <trkpt lat="48.23562" lon="6.6495">
        <ele>367.6</ele>
        <time>2025-01-11T13:40:39Z</time>
      </trkpt>
      <trkpt lat="48.23559" lon="6.64936">
        <ele>367.9</ele>
        <time>2025-01-11T13:40:47Z</time>
      </trkpt>
      <trkpt lat="48.23557" lon="6.64923">
        <ele>368.3</ele>
        <time>2025-01-11T13:40:54Z</time>
      </trkpt>
      <trkpt lat="48.23555" lon="6.64909">
        <ele>368.7</ele>
        <time>2025-01-11T13:41:01Z</time>
      </trkpt>
      <trkpt lat="48.23552" lon="6.64895">
        <ele>369.2</ele>
        <time>2025-01-11T13:41:09Z</time>
      </trkpt>
      <trkpt lat="48.2355" lon="6.64881">
        <ele>369.6</ele>
        <time>2025-01-11T13:41:17Z</time>
      </trkpt>
      <trkpt lat="48.23547" lon="6.64867">
        <ele>370.1</ele>
        <time>2025-01-11T13:41:25Z</time>
      </trkpt>
      <trkpt lat="48.23545" lon="6.64853">
        <ele>370.5</ele>
        <time>2025-01-11T13:41:33Z</time>
      </trkpt>
      <trkpt lat="48.23542" lon="6.64838">
        <ele>371</ele>
        <time>2025-01-11T13:41:41Z</time>
      </trkpt>
      <trkpt lat="48.2354" lon="6.64825">
        <ele>371.3</ele>
        <time>2025-01-11T13:41:48Z</time>
      </trkpt>
      <trkpt lat="48.23537" lon="6.6481">
        <ele>371.7</ele>
        <time>2025-01-11T13:41:56Z</time>
      </trkpt>
      <trkpt lat="48.23534" lon="6.64796">
        <ele>372</ele>
        <time>2025-01-11T13:42:04Z</time>
      </trkpt>
      <trkpt lat="48.23532" lon="6.64782">
        <ele>372.4</ele>
        <time>2025-01-11T13:42:12Z</time>
      </trkpt>
      <trkpt lat="48.23529" lon="6.64767">
        <ele>372.7</ele>
        <time>2025-01-11T13:42:20Z</time>
      </trkpt>
      <trkpt lat="48.23526" lon="6.64753">
        <ele>373.2</ele>
        <time>2025-01-11T13:42:28Z</time>
      </trkpt>
      <trkpt lat="48.23524" lon="6.64739">
        <ele>373.6</ele>
        <time>2025-01-11T13:42:36Z</time>
      </trkpt>
      <trkpt lat="48.23521" lon="6.64725">
        <ele>374.1</ele>
        <time>2025-01-11T13:42:44Z</time>
      </trkpt>
      <trkpt lat="48.23518" lon="6.64711">
        <ele>374.4</ele>
        <time>2025-01-11T13:42:52Z</time>
      </trkpt>
      <trkpt lat="48.23515" lon="6.64698">
        <ele>374.7</ele>
        <time>2025-01-11T13:42:59Z</time>
      </trkpt>
      <trkpt lat="48.23511" lon="6.64684">
        <ele>374.9</ele>
        <time>2025-01-11T13:43:06Z</time>
      </trkpt>
      <trkpt lat="48.23509" lon="6.64671">
        <ele>375.1</ele>
        <time>2025-01-11T13:43:13Z</time>
      </trkpt>
      <trkpt lat="48.23506" lon="6.64656">
        <ele>375.2</ele>
        <time>2025-01-11T13:43:21Z</time>
      </trkpt>
      <trkpt lat="48.23504" lon="6.64641">
        <ele>375.3</ele>
        <time>2025-01-11T13:43:29Z</time>
      </trkpt>
      <trkpt lat="48.235" lon="6.64628">
        <ele>375.3</ele>
        <time>2025-01-11T13:43:36Z</time>
      </trkpt>
      <trkpt lat="48.23496" lon="6.64616">
        <ele>375.3</ele>
        <time>2025-01-11T13:43:43Z</time>
      </trkpt>
      <trkpt lat="48.23494" lon="6.64601">
        <ele>375.2</ele>
        <time>2025-01-11T13:43:51Z</time>
      </trkpt>
      <trkpt lat="48.23491" lon="6.64586">
        <ele>375.2</ele>
        <time>2025-01-11T13:43:58Z</time>
      </trkpt>
      <trkpt lat="48.23489" lon="6.64571">
        <ele>375.1</ele>
        <time>2025-01-11T13:44:06Z</time>
      </trkpt>
      <trkpt lat="48.23486" lon="6.64557">
        <ele>375</ele>
        <time>2025-01-11T13:44:14Z</time>
      </trkpt>
      <trkpt lat="48.23483" lon="6.64544">
        <ele>375</ele>
        <time>2025-01-11T13:44:21Z</time>
      </trkpt>
      <trkpt lat="48.23478" lon="6.64531">
        <ele>374.9</ele>
        <time>2025-01-11T13:44:28Z</time>
      </trkpt>
      <trkpt lat="48.23473" lon="6.64517">
        <ele>374.7</ele>
        <time>2025-01-11T13:44:36Z</time>
      </trkpt>
      <trkpt lat="48.23469" lon="6.64504">
        <ele>374.6</ele>
        <time>2025-01-11T13:44:44Z</time>
      </trkpt>
      <trkpt lat="48.23464" lon="6.64492">
        <ele>374.5</ele>
        <time>2025-01-11T13:44:52Z</time>
      </trkpt>
      <trkpt lat="48.23459" lon="6.64478">
        <ele>374.4</ele>
        <time>2025-01-11T13:45:00Z</time>
      </trkpt>
      <trkpt lat="48.23454" lon="6.64465">
        <ele>374.3</ele>
        <time>2025-01-11T13:45:08Z</time>
      </trkpt>
      <trkpt lat="48.2345" lon="6.64453">
        <ele>374.2</ele>
        <time>2025-01-11T13:45:16Z</time>
      </trkpt>
      <trkpt lat="48.23446" lon="6.6444">
        <ele>374.1</ele>
        <time>2025-01-11T13:45:24Z</time>
      </trkpt>
      <trkpt lat="48.23441" lon="6.64426">
        <ele>374</ele>
        <time>2025-01-11T13:45:32Z</time>
      </trkpt>
      <trkpt lat="48.23438" lon="6.64413">
        <ele>373.9</ele>
        <time>2025-01-11T13:45:39Z</time>
      </trkpt>
      <trkpt lat="48.23434" lon="6.64401">
        <ele>373.9</ele>
        <time>2025-01-11T13:45:46Z</time>
      </trkpt>
      <trkpt lat="48.2343" lon="6.64389">
        <ele>373.9</ele>
        <time>2025-01-11T13:45:53Z</time>
      </trkpt>
      <trkpt lat="48.23425" lon="6.64377">
        <ele>373.9</ele>
        <time>2025-01-11T13:46:00Z</time>
      </trkpt>
      <trkpt lat="48.23422" lon="6.64365">
        <ele>374</ele>
        <time>2025-01-11T13:46:07Z</time>
      </trkpt>
      <trkpt lat="48.23417" lon="6.6435">
        <ele>374</ele>
        <time>2025-01-11T13:46:15Z</time>
      </trkpt>
      <trkpt lat="48.23413" lon="6.64339">
        <ele>374.1</ele>
        <time>2025-01-11T13:46:22Z</time>
      </trkpt>
      <trkpt lat="48.23408" lon="6.64326">
        <ele>374.1</ele>
        <time>2025-01-11T13:46:30Z</time>
      </trkpt>
      <trkpt lat="48.23404" lon="6.64313">
        <ele>374.2</ele>
        <time>2025-01-11T13:46:38Z</time>
      </trkpt>
      <trkpt lat="48.234" lon="6.643">
        <ele>374.3</ele>
        <time>2025-01-11T13:46:46Z</time>
      </trkpt>
      <trkpt lat="48.23396" lon="6.64287">
        <ele>374.4</ele>
        <time>2025-01-11T13:46:54Z</time>
      </trkpt>
      <trkpt lat="48.23391" lon="6.64275">
        <ele>374.6</ele>
        <time>2025-01-11T13:47:01Z</time>
      </trkpt>
      <trkpt lat="48.23386" lon="6.64262">
        <ele>374.8</ele>
        <time>2025-01-11T13:47:08Z</time>
      </trkpt>
      <trkpt lat="48.23382" lon="6.6425">
        <ele>374.9</ele>
        <time>2025-01-11T13:47:15Z</time>
      </trkpt>
      <trkpt lat="48.23377" lon="6.64237">
        <ele>375</ele>
        <time>2025-01-11T13:47:23Z</time>
      </trkpt>
      <trkpt lat="48.23373" lon="6.64224">
        <ele>375.1</ele>
        <time>2025-01-11T13:47:30Z</time>
      </trkpt>
      <trkpt lat="48.23368" lon="6.64211">
        <ele>375.2</ele>
        <time>2025-01-11T13:47:37Z</time>
      </trkpt>
      <trkpt lat="48.23364" lon="6.64197">
        <ele>375.4</ele>
        <time>2025-01-11T13:47:49Z</time>
      </trkpt>
      <trkpt lat="48.23359" lon="6.64184">
        <ele>375.5</ele>
        <time>2025-01-11T13:47:56Z</time>
      </trkpt>
      <trkpt lat="48.23354" lon="6.64172">
        <ele>375.7</ele>
        <time>2025-01-11T13:48:03Z</time>
      </trkpt>
      <trkpt lat="48.23349" lon="6.64161">
        <ele>375.9</ele>
        <time>2025-01-11T13:48:10Z</time>
      </trkpt>
      <trkpt lat="48.23343" lon="6.6415">
        <ele>376.2</ele>
        <time>2025-01-11T13:48:17Z</time>
      </trkpt>
      <trkpt lat="48.23337" lon="6.64139">
        <ele>376.4</ele>
        <time>2025-01-11T13:48:24Z</time>
      </trkpt>
      <trkpt lat="48.23329" lon="6.64128">
        <ele>376.6</ele>
        <time>2025-01-11T13:48:32Z</time>
      </trkpt>
      <trkpt lat="48.23323" lon="6.64119">
        <ele>376.8</ele>
        <time>2025-01-11T13:48:39Z</time>
      </trkpt>
      <trkpt lat="48.23317" lon="6.64109">
        <ele>376.9</ele>
        <time>2025-01-11T13:48:47Z</time>
      </trkpt>
      <trkpt lat="48.2331" lon="6.64099">
        <ele>377.1</ele>
        <time>2025-01-11T13:48:55Z</time>
      </trkpt>
      <trkpt lat="48.23303" lon="6.64089">
        <ele>377.2</ele>
        <time>2025-01-11T13:49:03Z</time>
      </trkpt>
      <trkpt lat="48.23296" lon="6.6408">
        <ele>377.3</ele>
        <time>2025-01-11T13:49:11Z</time>
      </trkpt>
      <trkpt lat="48.2329" lon="6.64071">
        <ele>377.5</ele>
        <time>2025-01-11T13:49:19Z</time>
      </trkpt>
      <trkpt lat="48.23283" lon="6.6406">
        <ele>377.6</ele>
        <time>2025-01-11T13:49:28Z</time>
      </trkpt>
      <trkpt lat="48.23275" lon="6.64052">
        <ele>377.7</ele>
        <time>2025-01-11T13:49:36Z</time>
      </trkpt>
      <trkpt lat="48.23268" lon="6.64044">
        <ele>377.8</ele>
        <time>2025-01-11T13:49:44Z</time>
      </trkpt>
      <trkpt lat="48.2326" lon="6.64036">
        <ele>377.9</ele>
        <time>2025-01-11T13:49:52Z</time>
      </trkpt>
      <trkpt lat="48.23252" lon="6.64027">
        <ele>378</ele>
        <time>2025-01-11T13:50:00Z</time>
      </trkpt>
      <trkpt lat="48.23244" lon="6.6402">
        <ele>378</ele>
        <time>2025-01-11T13:50:07Z</time>
      </trkpt>
      <trkpt lat="48.23237" lon="6.64012">
        <ele>378.1</ele>
        <time>2025-01-11T13:50:14Z</time>
      </trkpt>
      <trkpt lat="48.23229" lon="6.64003">
        <ele>378.2</ele>
        <time>2025-01-11T13:50:21Z</time>
      </trkpt>
      <trkpt lat="48.23221" lon="6.63994">
        <ele>378.3</ele>
        <time>2025-01-11T13:50:29Z</time>
      </trkpt>
      <trkpt lat="48.23213" lon="6.63987">
        <ele>378.4</ele>
        <time>2025-01-11T13:50:37Z</time>
      </trkpt>
      <trkpt lat="48.23205" lon="6.63981">
        <ele>378.5</ele>
        <time>2025-01-11T13:50:46Z</time>
      </trkpt>
      <trkpt lat="48.23196" lon="6.63974">
        <ele>378.6</ele>
        <time>2025-01-11T13:50:53Z</time>
      </trkpt>
      <trkpt lat="48.23188" lon="6.63968">
        <ele>378.8</ele>
        <time>2025-01-11T13:51:00Z</time>
      </trkpt>
      <trkpt lat="48.23178" lon="6.63965">
        <ele>378.9</ele>
        <time>2025-01-11T13:51:08Z</time>
      </trkpt>
      <trkpt lat="48.23169" lon="6.63963">
        <ele>379</ele>
        <time>2025-01-11T13:51:15Z</time>
      </trkpt>
      <trkpt lat="48.23159" lon="6.63962">
        <ele>379.1</ele>
        <time>2025-01-11T13:51:23Z</time>
      </trkpt>
      <trkpt lat="48.23149" lon="6.63964">
        <ele>379.3</ele>
        <time>2025-01-11T13:51:31Z</time>
      </trkpt>
      <trkpt lat="48.2314" lon="6.63965">
        <ele>379.4</ele>
        <time>2025-01-11T13:51:38Z</time>
      </trkpt>
      <trkpt lat="48.2313" lon="6.63966">
        <ele>379.6</ele>
        <time>2025-01-11T13:51:46Z</time>
      </trkpt>
      <trkpt lat="48.2312" lon="6.63966">
        <ele>379.8</ele>
        <time>2025-01-11T13:51:53Z</time>
      </trkpt>
      <trkpt lat="48.2311" lon="6.63967">
        <ele>379.9</ele>
        <time>2025-01-11T13:52:01Z</time>
      </trkpt>
      <trkpt lat="48.23101" lon="6.63967">
        <ele>380</ele>
        <time>2025-01-11T13:52:09Z</time>
      </trkpt>
      <trkpt lat="48.23091" lon="6.63966">
        <ele>380.1</ele>
        <time>2025-01-11T13:52:16Z</time>
      </trkpt>
      <trkpt lat="48.23081" lon="6.63967">
        <ele>380.2</ele>
        <time>2025-01-11T13:52:24Z</time>
      </trkpt>
      <trkpt lat="48.23072" lon="6.63967">
        <ele>380.2</ele>
        <time>2025-01-11T13:52:32Z</time>
      </trkpt>
      <trkpt lat="48.23063" lon="6.63966">
        <ele>380.2</ele>
        <time>2025-01-11T13:52:39Z</time>
      </trkpt>
      <trkpt lat="48.23054" lon="6.63964">
        <ele>380.2</ele>
        <time>2025-01-11T13:52:48Z</time>
      </trkpt>
      <trkpt lat="48.23044" lon="6.63963">
        <ele>380.2</ele>
        <time>2025-01-11T13:52:56Z</time>
      </trkpt>
      <trkpt lat="48.23034" lon="6.63963">
        <ele>380.2</ele>
        <time>2025-01-11T13:53:04Z</time>
      </trkpt>
      <trkpt lat="48.23025" lon="6.63963">
        <ele>380.1</ele>
        <time>2025-01-11T13:53:11Z</time>
      </trkpt>
      <trkpt lat="48.23016" lon="6.63961">
        <ele>380</ele>
        <time>2025-01-11T13:53:18Z</time>
      </trkpt>
      <trkpt lat="48.23007" lon="6.63959">
        <ele>379.8</ele>
        <time>2025-01-11T13:53:25Z</time>
      </trkpt>
      <trkpt lat="48.22997" lon="6.63957">
        <ele>379.6</ele>
        <time>2025-01-11T13:53:32Z</time>
      </trkpt>
      <trkpt lat="48.22987" lon="6.63951">
        <ele>379.4</ele>
        <time>2025-01-11T13:53:40Z</time>
      </trkpt>
      <trkpt lat="48.22978" lon="6.63945">
        <ele>379.1</ele>
        <time>2025-01-11T13:53:48Z</time>
      </trkpt>
      <trkpt lat="48.22969" lon="6.63938">
        <ele>378.7</ele>
        <time>2025-01-11T13:53:56Z</time>
      </trkpt>
      <trkpt lat="48.22962" lon="6.63929">
        <ele>378.4</ele>
        <time>2025-01-11T13:54:04Z</time>
      </trkpt>
      <trkpt lat="48.22955" lon="6.63919">
        <ele>378</ele>
        <time>2025-01-11T13:54:14Z</time>
      </trkpt>
      <trkpt lat="48.22951" lon="6.63906">
        <ele>377.7</ele>
        <time>2025-01-11T13:54:24Z</time>
      </trkpt>
      <trkpt lat="48.22946" lon="6.63894">
        <ele>377.3</ele>
        <time>2025-01-11T13:54:33Z</time>
      </trkpt>
      <trkpt lat="48.2294" lon="6.63883">
        <ele>376.8</ele>
        <time>2025-01-11T13:54:59Z</time>
      </trkpt>
      <trkpt lat="48.22935" lon="6.6387">
        <ele>376.4</ele>
        <time>2025-01-11T13:55:07Z</time>
      </trkpt>
      <trkpt lat="48.2293" lon="6.63858">
        <ele>375.9</ele>
        <time>2025-01-11T13:55:15Z</time>
      </trkpt>
      <trkpt lat="48.22925" lon="6.63845">
        <ele>375.5</ele>
        <time>2025-01-11T13:55:24Z</time>
      </trkpt>
      <trkpt lat="48.22919" lon="6.63834">
        <ele>375</ele>
        <time>2025-01-11T13:55:32Z</time>
      </trkpt>
      <trkpt lat="48.22914" lon="6.63822">
        <ele>374.6</ele>
        <time>2025-01-11T13:55:40Z</time>
      </trkpt>
      <trkpt lat="48.22908" lon="6.63811">
        <ele>374.1</ele>
        <time>2025-01-11T13:55:47Z</time>
      </trkpt>
      <trkpt lat="48.22903" lon="6.638">
        <ele>373.7</ele>
        <time>2025-01-11T13:55:54Z</time>
      </trkpt>
      <trkpt lat="48.22898" lon="6.63788">
        <ele>373.2</ele>
        <time>2025-01-11T13:56:01Z</time>
      </trkpt>
      <trkpt lat="48.22893" lon="6.63776">
        <ele>372.7</ele>
        <time>2025-01-11T13:56:09Z</time>
      </trkpt>
      <trkpt lat="48.22888" lon="6.63764">
        <ele>372.3</ele>
        <time>2025-01-11T13:56:17Z</time>
      </trkpt>
      <trkpt lat="48.22881" lon="6.63753">
        <ele>371.9</ele>
        <time>2025-01-11T13:56:26Z</time>
      </trkpt>
      <trkpt lat="48.22875" lon="6.63742">
        <ele>371.6</ele>
        <time>2025-01-11T13:56:34Z</time>
      </trkpt>
      <trkpt lat="48.22869" lon="6.6373">
        <ele>371.4</ele>
        <time>2025-01-11T13:56:42Z</time>
      </trkpt>
      <trkpt lat="48.22863" lon="6.63718">
        <ele>371.3</ele>
        <time>2025-01-11T13:56:50Z</time>
      </trkpt>
      <trkpt lat="48.22857" lon="6.63707">
        <ele>371.3</ele>
        <time>2025-01-11T13:56:59Z</time>
      </trkpt>
      <trkpt lat="48.22852" lon="6.63696">
        <ele>371.3</ele>
        <time>2025-01-11T13:57:07Z</time>
      </trkpt>
      <trkpt lat="48.22847" lon="6.63685">
        <ele>371.3</ele>
        <time>2025-01-11T13:57:15Z</time>
      </trkpt>
      <trkpt lat="48.22842" lon="6.63674">
        <ele>371.4</ele>
        <time>2025-01-11T13:57:23Z</time>
      </trkpt>
      <trkpt lat="48.22837" lon="6.63662">
        <ele>371.4</ele>
        <time>2025-01-11T13:57:31Z</time>
      </trkpt>
      <trkpt lat="48.22832" lon="6.63649">
        <ele>371.5</ele>
        <time>2025-01-11T13:57:39Z</time>
      </trkpt>
      <trkpt lat="48.22827" lon="6.63638">
        <ele>371.6</ele>
        <time>2025-01-11T13:57:47Z</time>
      </trkpt>
      <trkpt lat="48.22821" lon="6.63626">
        <ele>371.8</ele>
        <time>2025-01-11T13:57:55Z</time>
      </trkpt>
      <trkpt lat="48.22817" lon="6.63613">
        <ele>371.8</ele>
        <time>2025-01-11T13:58:03Z</time>
      </trkpt>
      <trkpt lat="48.22811" lon="6.63601">
        <ele>371.9</ele>
        <time>2025-01-11T13:58:11Z</time>
      </trkpt>
      <trkpt lat="48.22806" lon="6.63588">
        <ele>372</ele>
        <time>2025-01-11T13:58:19Z</time>
      </trkpt>
      <trkpt lat="48.22801" lon="6.63576">
        <ele>372</ele>
        <time>2025-01-11T13:58:27Z</time>
      </trkpt>
      <trkpt lat="48.22795" lon="6.63563">
        <ele>372.1</ele>
        <time>2025-01-11T13:58:35Z</time>
      </trkpt>
      <trkpt lat="48.2279" lon="6.63551">
        <ele>372.1</ele>
        <time>2025-01-11T13:58:43Z</time>
      </trkpt>
      <trkpt lat="48.22784" lon="6.63539">
        <ele>372.2</ele>
        <time>2025-01-11T13:58:51Z</time>
      </trkpt>
      <trkpt lat="48.22778" lon="6.63528">
        <ele>372.2</ele>
        <time>2025-01-11T13:58:59Z</time>
      </trkpt>
      <trkpt lat="48.22772" lon="6.63516">
        <ele>372.3</ele>
        <time>2025-01-11T13:59:07Z</time>
      </trkpt>
      <trkpt lat="48.22766" lon="6.63506">
        <ele>372.4</ele>
        <time>2025-01-11T13:59:14Z</time>
      </trkpt>
      <trkpt lat="48.2276" lon="6.63494">
        <ele>372.5</ele>
        <time>2025-01-11T13:59:22Z</time>
      </trkpt>
      <trkpt lat="48.22755" lon="6.63482">
        <ele>372.6</ele>
        <time>2025-01-11T13:59:30Z</time>
      </trkpt>
      <trkpt lat="48.22749" lon="6.6347">
        <ele>372.8</ele>
        <time>2025-01-11T13:59:38Z</time>
      </trkpt>
      <trkpt lat="48.22744" lon="6.63458">
        <ele>372.9</ele>
        <time>2025-01-11T13:59:46Z</time>
      </trkpt>
      <trkpt lat="48.22739" lon="6.63446">
        <ele>373.1</ele>
        <time>2025-01-11T13:59:53Z</time>
      </trkpt>
      <trkpt lat="48.22734" lon="6.63435">
        <ele>373.2</ele>
        <time>2025-01-11T14:00:00Z</time>
      </trkpt>
      <trkpt lat="48.2273" lon="6.63421">
        <ele>373.4</ele>
        <time>2025-01-11T14:00:08Z</time>
      </trkpt>
      <trkpt lat="48.22727" lon="6.63408">
        <ele>373.6</ele>
        <time>2025-01-11T14:00:16Z</time>
      </trkpt>
      <trkpt lat="48.22723" lon="6.63394">
        <ele>373.8</ele>
        <time>2025-01-11T14:00:24Z</time>
      </trkpt>
      <trkpt lat="48.2272" lon="6.63381">
        <ele>374.1</ele>
        <time>2025-01-11T14:00:32Z</time>
      </trkpt>
      <trkpt lat="48.22718" lon="6.63367">
        <ele>374.4</ele>
        <time>2025-01-11T14:00:40Z</time>
      </trkpt>
      <trkpt lat="48.22717" lon="6.63353">
        <ele>374.7</ele>
        <time>2025-01-11T14:00:48Z</time>
      </trkpt>
      <trkpt lat="48.22716" lon="6.63338">
        <ele>375</ele>
        <time>2025-01-11T14:00:56Z</time>
      </trkpt>
      <trkpt lat="48.22714" lon="6.63323">
        <ele>375.3</ele>
        <time>2025-01-11T14:01:04Z</time>
      </trkpt>
      <trkpt lat="48.22712" lon="6.6331">
        <ele>375.4</ele>
        <time>2025-01-11T14:01:12Z</time>
      </trkpt>
      <trkpt lat="48.2271" lon="6.63295">
        <ele>375.4</ele>
        <time>2025-01-11T14:01:20Z</time>
      </trkpt>
      <trkpt lat="48.22708" lon="6.63281">
        <ele>375.3</ele>
        <time>2025-01-11T14:01:29Z</time>
      </trkpt>
      <trkpt lat="48.22707" lon="6.63267">
        <ele>375.2</ele>
        <time>2025-01-11T14:01:37Z</time>
      </trkpt>
      <trkpt lat="48.22705" lon="6.63252">
        <ele>375.1</ele>
        <time>2025-01-11T14:01:45Z</time>
      </trkpt>
      <trkpt lat="48.22702" lon="6.63238">
        <ele>375</ele>
        <time>2025-01-11T14:01:53Z</time>
      </trkpt>
      <trkpt lat="48.22697" lon="6.63226">
        <ele>374.9</ele>
        <time>2025-01-11T14:02:01Z</time>
      </trkpt>
      <trkpt lat="48.22689" lon="6.63217">
        <ele>375</ele>
        <time>2025-01-11T14:02:09Z</time>
      </trkpt>
      <trkpt lat="48.22679" lon="6.63211">
        <ele>375.2</ele>
        <time>2025-01-11T14:02:17Z</time>
      </trkpt>
      <trkpt lat="48.2267" lon="6.6321">
        <ele>375.3</ele>
        <time>2025-01-11T14:02:25Z</time>
      </trkpt>
      <trkpt lat="48.2266" lon="6.63209">
        <ele>375.5</ele>
        <time>2025-01-11T14:02:33Z</time>
      </trkpt>
      <trkpt lat="48.22651" lon="6.63208">
        <ele>375.8</ele>
        <time>2025-01-11T14:02:41Z</time>
      </trkpt>
      <trkpt lat="48.22642" lon="6.63213">
        <ele>376.1</ele>
        <time>2025-01-11T14:02:49Z</time>
      </trkpt>
      <trkpt lat="48.22632" lon="6.6322">
        <ele>376.4</ele>
        <time>2025-01-11T14:02:57Z</time>
      </trkpt>
      <trkpt lat="48.22622" lon="6.63223">
        <ele>376.6</ele>
        <time>2025-01-11T14:03:05Z</time>
      </trkpt>
      <trkpt lat="48.22613" lon="6.63226">
        <ele>376.8</ele>
        <time>2025-01-11T14:03:12Z</time>
      </trkpt>
      <trkpt lat="48.22603" lon="6.63228">
        <ele>377</ele>
        <time>2025-01-11T14:03:20Z</time>
      </trkpt>
      <trkpt lat="48.22594" lon="6.63226">
        <ele>377.2</ele>
        <time>2025-01-11T14:03:27Z</time>
      </trkpt>
      <trkpt lat="48.22587" lon="6.63217">
        <ele>377.2</ele>
        <time>2025-01-11T14:03:35Z</time>
      </trkpt>
      <trkpt lat="48.22585" lon="6.63204">
        <ele>377</ele>
        <time>2025-01-11T14:03:43Z</time>
      </trkpt>
      <trkpt lat="48.22584" lon="6.6319">
        <ele>376.7</ele>
        <time>2025-01-11T14:03:51Z</time>
      </trkpt>
      <trkpt lat="48.22583" lon="6.63175">
        <ele>376.4</ele>
        <time>2025-01-11T14:03:59Z</time>
      </trkpt>
      <trkpt lat="48.22581" lon="6.63161">
        <ele>376</ele>
        <time>2025-01-11T14:04:07Z</time>
      </trkpt>
      <trkpt lat="48.22579" lon="6.63147">
        <ele>375.6</ele>
        <time>2025-01-11T14:04:15Z</time>
      </trkpt>
      <trkpt lat="48.22577" lon="6.63133">
        <ele>375.3</ele>
        <time>2025-01-11T14:04:23Z</time>
      </trkpt>
      <trkpt lat="48.22574" lon="6.63118">
        <ele>374.9</ele>
        <time>2025-01-11T14:04:31Z</time>
      </trkpt>
      <trkpt lat="48.22566" lon="6.63112">
        <ele>374.3</ele>
        <time>2025-01-11T14:04:38Z</time>
      </trkpt>
      <trkpt lat="48.22557" lon="6.63108">
        <ele>373.7</ele>
        <time>2025-01-11T14:04:45Z</time>
      </trkpt>
      <trkpt lat="48.22548" lon="6.63104">
        <ele>373.3</ele>
        <time>2025-01-11T14:04:53Z</time>
      </trkpt>
      <trkpt lat="48.22538" lon="6.63099">
        <ele>373.1</ele>
        <time>2025-01-11T14:05:01Z</time>
      </trkpt>
      <trkpt lat="48.22531" lon="6.6309">
        <ele>373.2</ele>
        <time>2025-01-11T14:05:09Z</time>
      </trkpt>
      <trkpt lat="48.22528" lon="6.63076">
        <ele>373.4</ele>
        <time>2025-01-11T14:05:18Z</time>
      </trkpt>
      <trkpt lat="48.22532" lon="6.63062">
        <ele>373.7</ele>
        <time>2025-01-11T14:05:27Z</time>
      </trkpt>
      <trkpt lat="48.22539" lon="6.63052">
        <ele>374.1</ele>
        <time>2025-01-11T14:05:36Z</time>
      </trkpt>
      <trkpt lat="48.22546" lon="6.63042">
        <ele>374.3</ele>
        <time>2025-01-11T14:05:44Z</time>
      </trkpt>
      <trkpt lat="48.22551" lon="6.6303">
        <ele>374.5</ele>
        <time>2025-01-11T14:05:52Z</time>
      </trkpt>
      <trkpt lat="48.22555" lon="6.63016">
        <ele>374.7</ele>
        <time>2025-01-11T14:06:00Z</time>
      </trkpt>
      <trkpt lat="48.22557" lon="6.63002">
        <ele>375</ele>
        <time>2025-01-11T14:06:08Z</time>
      </trkpt>
      <trkpt lat="48.22558" lon="6.62987">
        <ele>375.4</ele>
        <time>2025-01-11T14:06:16Z</time>
      </trkpt>
      <trkpt lat="48.22557" lon="6.62972">
        <ele>376</ele>
        <time>2025-01-11T14:06:24Z</time>
      </trkpt>
      <trkpt lat="48.22556" lon="6.62957">
        <ele>376.6</ele>
        <time>2025-01-11T14:06:32Z</time>
      </trkpt>
      <trkpt lat="48.22555" lon="6.62942">
        <ele>377.1</ele>
        <time>2025-01-11T14:06:40Z</time>
      </trkpt>
      <trkpt lat="48.22553" lon="6.62927">
        <ele>377.5</ele>
        <time>2025-01-11T14:06:48Z</time>
      </trkpt>
      <trkpt lat="48.22552" lon="6.62913">
        <ele>377.7</ele>
        <time>2025-01-11T14:06:56Z</time>
      </trkpt>
      <trkpt lat="48.22551" lon="6.62898">
        <ele>378</ele>
        <time>2025-01-11T14:07:05Z</time>
      </trkpt>
      <trkpt lat="48.22552" lon="6.62884">
        <ele>378.4</ele>
        <time>2025-01-11T14:07:13Z</time>
      </trkpt>
      <trkpt lat="48.22556" lon="6.62871">
        <ele>379</ele>
        <time>2025-01-11T14:07:22Z</time>
      </trkpt>
      <trkpt lat="48.22554" lon="6.62856">
        <ele>379.8</ele>
        <time>2025-01-11T14:07:30Z</time>
      </trkpt>
      <trkpt lat="48.22556" lon="6.62843">
        <ele>380.3</ele>
        <time>2025-01-11T14:07:51Z</time>
      </trkpt>
      <trkpt lat="48.22556" lon="6.62828">
        <ele>380.8</ele>
        <time>2025-01-11T14:08:12Z</time>
      </trkpt>
      <trkpt lat="48.22555" lon="6.62814">
        <ele>381</ele>
        <time>2025-01-11T14:08:24Z</time>
      </trkpt>
      <trkpt lat="48.2255" lon="6.62801">
        <ele>381.1</ele>
        <time>2025-01-11T14:08:34Z</time>
      </trkpt>
      <trkpt lat="48.2255" lon="6.62787">
        <ele>381.2</ele>
        <time>2025-01-11T14:08:44Z</time>
      </trkpt>
      <trkpt lat="48.22555" lon="6.62773">
        <ele>381.2</ele>
        <time>2025-01-11T14:08:59Z</time>
      </trkpt>
      <trkpt lat="48.22557" lon="6.6276">
        <ele>381.1</ele>
        <time>2025-01-11T14:09:07Z</time>
      </trkpt>
      <trkpt lat="48.22557" lon="6.62746">
        <ele>380.9</ele>
        <time>2025-01-11T14:09:15Z</time>
      </trkpt>
      <trkpt lat="48.22557" lon="6.62732">
        <ele>380.7</ele>
        <time>2025-01-11T14:09:24Z</time>
      </trkpt>
      <trkpt lat="48.2256" lon="6.62719">
        <ele>380.5</ele>
        <time>2025-01-11T14:09:34Z</time>
      </trkpt>
      <trkpt lat="48.22566" lon="6.62707">
        <ele>380.4</ele>
        <time>2025-01-11T14:09:48Z</time>
      </trkpt>
      <trkpt lat="48.22575" lon="6.62701">
        <ele>380.3</ele>
        <time>2025-01-11T14:09:56Z</time>
      </trkpt>
      <trkpt lat="48.22582" lon="6.62692">
        <ele>380.2</ele>
        <time>2025-01-11T14:10:03Z</time>
      </trkpt>
      <trkpt lat="48.2259" lon="6.62684">
        <ele>380.1</ele>
        <time>2025-01-11T14:10:11Z</time>
      </trkpt>
      <trkpt lat="48.22594" lon="6.62672">
        <ele>380</ele>
        <time>2025-01-11T14:10:20Z</time>
      </trkpt>
      <trkpt lat="48.22604" lon="6.62664">
        <ele>379.8</ele>
        <time>2025-01-11T14:10:29Z</time>
      </trkpt>
      <trkpt lat="48.22611" lon="6.62654">
        <ele>379.4</ele>
        <time>2025-01-11T14:10:37Z</time>
      </trkpt>
      <trkpt lat="48.22618" lon="6.62643">
        <ele>378.9</ele>
        <time>2025-01-11T14:10:47Z</time>
      </trkpt>
      <trkpt lat="48.22626" lon="6.62636">
        <ele>378.6</ele>
        <time>2025-01-11T14:10:55Z</time>
      </trkpt>
      <trkpt lat="48.22634" lon="6.62629">
        <ele>378</ele>
        <time>2025-01-11T14:11:05Z</time>
      </trkpt>
      <trkpt lat="48.22643" lon="6.62624">
        <ele>377.4</ele>
        <time>2025-01-11T14:11:13Z</time>
      </trkpt>
      <trkpt lat="48.22651" lon="6.62617">
        <ele>376.6</ele>
        <time>2025-01-11T14:11:19Z</time>
      </trkpt>
      <trkpt lat="48.22657" lon="6.62606">
        <ele>375.9</ele>
        <time>2025-01-11T14:11:27Z</time>
      </trkpt>
      <trkpt lat="48.22664" lon="6.62597">
        <ele>375.3</ele>
        <time>2025-01-11T14:11:36Z</time>
      </trkpt>
      <trkpt lat="48.22672" lon="6.62589">
        <ele>374.7</ele>
        <time>2025-01-11T14:11:43Z</time>
      </trkpt>
      <trkpt lat="48.22679" lon="6.62579">
        <ele>374.4</ele>
        <time>2025-01-11T14:11:52Z</time>
      </trkpt>
      <trkpt lat="48.22687" lon="6.62572">
        <ele>374.3</ele>
        <time>2025-01-11T14:12:00Z</time>
      </trkpt>
      <trkpt lat="48.22695" lon="6.62561">
        <ele>374.2</ele>
        <time>2025-01-11T14:12:09Z</time>
      </trkpt>
      <trkpt lat="48.22702" lon="6.62553">
        <ele>374.3</ele>
        <time>2025-01-11T14:12:17Z</time>
      </trkpt>
      <trkpt lat="48.22711" lon="6.62546">
        <ele>374.3</ele>
        <time>2025-01-11T14:12:24Z</time>
      </trkpt>
      <trkpt lat="48.22717" lon="6.62536">
        <ele>374.4</ele>
        <time>2025-01-11T14:12:35Z</time>
      </trkpt>
      <trkpt lat="48.22724" lon="6.62527">
        <ele>374.5</ele>
        <time>2025-01-11T14:12:47Z</time>
      </trkpt>
      <trkpt lat="48.22731" lon="6.62518">
        <ele>374.6</ele>
        <time>2025-01-11T14:12:57Z</time>
      </trkpt>
      <trkpt lat="48.22732" lon="6.62503">
        <ele>374.7</ele>
        <time>2025-01-11T14:14:54Z</time>
      </trkpt>
      <trkpt lat="48.22726" lon="6.62491">
        <ele>374.7</ele>
        <time>2025-01-11T14:15:02Z</time>
      </trkpt>
      <trkpt lat="48.2272" lon="6.62479">
        <ele>374.7</ele>
        <time>2025-01-11T14:15:10Z</time>
      </trkpt>
      <trkpt lat="48.22716" lon="6.62465">
        <ele>374.9</ele>
        <time>2025-01-11T14:15:18Z</time>
      </trkpt>
      <trkpt lat="48.22712" lon="6.62453">
        <ele>374.9</ele>
        <time>2025-01-11T14:15:27Z</time>
      </trkpt>
      <trkpt lat="48.22706" lon="6.6244">
        <ele>374.8</ele>
        <time>2025-01-11T14:15:35Z</time>
      </trkpt>
      <trkpt lat="48.22701" lon="6.62428">
        <ele>374.7</ele>
        <time>2025-01-11T14:15:43Z</time>
      </trkpt>
      <trkpt lat="48.22696" lon="6.62415">
        <ele>374.5</ele>
        <time>2025-01-11T14:15:51Z</time>
      </trkpt>
      <trkpt lat="48.22691" lon="6.62403">
        <ele>374.4</ele>
        <time>2025-01-11T14:16:00Z</time>
      </trkpt>
      <trkpt lat="48.22685" lon="6.62391">
        <ele>374.1</ele>
        <time>2025-01-11T14:16:09Z</time>
      </trkpt>
      <trkpt lat="48.22681" lon="6.6238">
        <ele>373.9</ele>
        <time>2025-01-11T14:16:18Z</time>
      </trkpt>
      <trkpt lat="48.22676" lon="6.62367">
        <ele>373.7</ele>
        <time>2025-01-11T14:16:26Z</time>
      </trkpt>
      <trkpt lat="48.2267" lon="6.62355">
        <ele>373.6</ele>
        <time>2025-01-11T14:16:34Z</time>
      </trkpt>
      <trkpt lat="48.22665" lon="6.62343">
        <ele>373.6</ele>
        <time>2025-01-11T14:16:42Z</time>
      </trkpt>
      <trkpt lat="48.22661" lon="6.6233">
        <ele>373.7</ele>
        <time>2025-01-11T14:16:54Z</time>
      </trkpt>
      <trkpt lat="48.22656" lon="6.62319">
        <ele>373.9</ele>
        <time>2025-01-11T14:17:02Z</time>
      </trkpt>
      <trkpt lat="48.22651" lon="6.62307">
        <ele>374</ele>
        <time>2025-01-11T14:17:10Z</time>
      </trkpt>
      <trkpt lat="48.22646" lon="6.62295">
        <ele>374.2</ele>
        <time>2025-01-11T14:17:18Z</time>
      </trkpt>
      <trkpt lat="48.22642" lon="6.62283">
        <ele>374.4</ele>
        <time>2025-01-11T14:17:26Z</time>
      </trkpt>
      <trkpt lat="48.22637" lon="6.6227">
        <ele>374.7</ele>
        <time>2025-01-11T14:17:34Z</time>
      </trkpt>
      <trkpt lat="48.22631" lon="6.62257">
        <ele>375.1</ele>
        <time>2025-01-11T14:17:43Z</time>
      </trkpt>
      <trkpt lat="48.22625" lon="6.62246">
        <ele>375.4</ele>
        <time>2025-01-11T14:17:51Z</time>
      </trkpt>
      <trkpt lat="48.22619" lon="6.62234">
        <ele>375.7</ele>
        <time>2025-01-11T14:17:59Z</time>
      </trkpt>
      <trkpt lat="48.22614" lon="6.62222">
        <ele>376</ele>
        <time>2025-01-11T14:18:06Z</time>
      </trkpt>
      <trkpt lat="48.2261" lon="6.6221">
        <ele>376.2</ele>
        <time>2025-01-11T14:18:15Z</time>
      </trkpt>
      <trkpt lat="48.22605" lon="6.62197">
        <ele>376.3</ele>
        <time>2025-01-11T14:18:24Z</time>
      </trkpt>
      <trkpt lat="48.22599" lon="6.62185">
        <ele>376.3</ele>
        <time>2025-01-11T14:18:32Z</time>
      </trkpt>
      <trkpt lat="48.22595" lon="6.62173">
        <ele>376.3</ele>
        <time>2025-01-11T14:18:40Z</time>
      </trkpt>
      <trkpt lat="48.22591" lon="6.62159">
        <ele>376.1</ele>
        <time>2025-01-11T14:18:49Z</time>
      </trkpt>
      <trkpt lat="48.22585" lon="6.62149">
        <ele>375.9</ele>
        <time>2025-01-11T14:18:57Z</time>
      </trkpt>
      <trkpt lat="48.2258" lon="6.62137">
        <ele>375.6</ele>
        <time>2025-01-11T14:19:05Z</time>
      </trkpt>
      <trkpt lat="48.22581" lon="6.62123">
        <ele>375.3</ele>
        <time>2025-01-11T14:19:14Z</time>
      </trkpt>
      <trkpt lat="48.22573" lon="6.62112">
        <ele>375.1</ele>
        <time>2025-01-11T14:19:26Z</time>
      </trkpt>
      <trkpt lat="48.22568" lon="6.62101">
        <ele>374.8</ele>
        <time>2025-01-11T14:19:35Z</time>
      </trkpt>
      <trkpt lat="48.22561" lon="6.62089">
        <ele>374.6</ele>
        <time>2025-01-11T14:19:42Z</time>
      </trkpt>
      <trkpt lat="48.22554" lon="6.62081">
        <ele>374.4</ele>
        <time>2025-01-11T14:19:51Z</time>
      </trkpt>
      <trkpt lat="48.22544" lon="6.62081">
        <ele>374.5</ele>
        <time>2025-01-11T14:20:12Z</time>
      </trkpt>
      <trkpt lat="48.22536" lon="6.6209">
        <ele>374.7</ele>
        <time>2025-01-11T14:20:21Z</time>
      </trkpt>
      <trkpt lat="48.22527" lon="6.62096">
        <ele>374.9</ele>
        <time>2025-01-11T14:20:30Z</time>
      </trkpt>
      <trkpt lat="48.22518" lon="6.62104">
        <ele>375.2</ele>
        <time>2025-01-11T14:20:38Z</time>
      </trkpt>
      <trkpt lat="48.2251" lon="6.62112">
        <ele>375.6</ele>
        <time>2025-01-11T14:20:46Z</time>
      </trkpt>
      <trkpt lat="48.22502" lon="6.62103">
        <ele>375.4</ele>
        <time>2025-01-11T14:21:01Z</time>
      </trkpt>
      <trkpt lat="48.225" lon="6.62089">
        <ele>374.9</ele>
        <time>2025-01-11T14:21:09Z</time>
      </trkpt>
      <trkpt lat="48.22497" lon="6.62075">
        <ele>374.5</ele>
        <time>2025-01-11T14:21:17Z</time>
      </trkpt>
      <trkpt lat="48.22495" lon="6.62061">
        <ele>374.1</ele>
        <time>2025-01-11T14:21:25Z</time>
      </trkpt>
      <trkpt lat="48.22491" lon="6.62049">
        <ele>373.8</ele>
        <time>2025-01-11T14:21:32Z</time>
      </trkpt>
      <trkpt lat="48.22485" lon="6.62037">
        <ele>373.5</ele>
        <time>2025-01-11T14:21:39Z</time>
      </trkpt>
      <trkpt lat="48.22479" lon="6.62025">
        <ele>373.4</ele>
        <time>2025-01-11T14:21:47Z</time>
      </trkpt>
      <trkpt lat="48.22473" lon="6.62014">
        <ele>373.2</ele>
        <time>2025-01-11T14:21:54Z</time>
      </trkpt>
      <trkpt lat="48.2247" lon="6.62">
        <ele>373.1</ele>
        <time>2025-01-11T14:22:04Z</time>
      </trkpt>
      <trkpt lat="48.22464" lon="6.61989">
        <ele>372.9</ele>
        <time>2025-01-11T14:22:11Z</time>
      </trkpt>
      <trkpt lat="48.22459" lon="6.61978">
        <ele>372.8</ele>
        <time>2025-01-11T14:22:19Z</time>
      </trkpt>
      <trkpt lat="48.22453" lon="6.61965">
        <ele>372.7</ele>
        <time>2025-01-11T14:22:28Z</time>
      </trkpt>
      <trkpt lat="48.22447" lon="6.61955">
        <ele>372.6</ele>
        <time>2025-01-11T14:22:35Z</time>
      </trkpt>
      <trkpt lat="48.22442" lon="6.61943">
        <ele>372.6</ele>
        <time>2025-01-11T14:22:44Z</time>
      </trkpt>
      <trkpt lat="48.22438" lon="6.6193">
        <ele>372.5</ele>
        <time>2025-01-11T14:22:53Z</time>
      </trkpt>
      <trkpt lat="48.22433" lon="6.61918">
        <ele>372.5</ele>
        <time>2025-01-11T14:23:01Z</time>
      </trkpt>
      <trkpt lat="48.22428" lon="6.61906">
        <ele>372.6</ele>
        <time>2025-01-11T14:23:08Z</time>
      </trkpt>
      <trkpt lat="48.22422" lon="6.61894">
        <ele>372.8</ele>
        <time>2025-01-11T14:23:16Z</time>
      </trkpt>
      <trkpt lat="48.22416" lon="6.61882">
        <ele>372.9</ele>
        <time>2025-01-11T14:23:24Z</time>
      </trkpt>
      <trkpt lat="48.22411" lon="6.6187">
        <ele>373.2</ele>
        <time>2025-01-11T14:23:32Z</time>
      </trkpt>
      <trkpt lat="48.22406" lon="6.61857">
        <ele>373.4</ele>
        <time>2025-01-11T14:23:40Z</time>
      </trkpt>
      <trkpt lat="48.22401" lon="6.61846">
        <ele>373.3</ele>
        <time>2025-01-11T14:23:48Z</time>
      </trkpt>
      <trkpt lat="48.22395" lon="6.61834">
        <ele>372.9</ele>
        <time>2025-01-11T14:23:58Z</time>
      </trkpt>
      <trkpt lat="48.22399" lon="6.61821">
        <ele>372.8</ele>
        <time>2025-01-11T14:24:24Z</time>
      </trkpt>
      <trkpt lat="48.22409" lon="6.61818">
        <ele>373</ele>
        <time>2025-01-11T14:24:32Z</time>
      </trkpt>
      <trkpt lat="48.22419" lon="6.61813">
        <ele>373.1</ele>
        <time>2025-01-11T14:24:39Z</time>
      </trkpt>
      <trkpt lat="48.22428" lon="6.61808">
        <ele>373.3</ele>
        <time>2025-01-11T14:24:49Z</time>
      </trkpt>
      <trkpt lat="48.22437" lon="6.618">
        <ele>373.4</ele>
        <time>2025-01-11T14:25:16Z</time>
      </trkpt>
      <trkpt lat="48.22444" lon="6.61792">
        <ele>373.6</ele>
        <time>2025-01-11T14:25:25Z</time>
      </trkpt>
      <trkpt lat="48.22452" lon="6.61784">
        <ele>373.9</ele>
        <time>2025-01-11T14:25:34Z</time>
      </trkpt>
      <trkpt lat="48.22458" lon="6.61773">
        <ele>374.2</ele>
        <time>2025-01-11T14:25:43Z</time>
      </trkpt>
      <trkpt lat="48.22457" lon="6.61759">
        <ele>374.1</ele>
        <time>2025-01-11T14:25:51Z</time>
      </trkpt>
      <trkpt lat="48.22455" lon="6.61744">
        <ele>374</ele>
        <time>2025-01-11T14:25:59Z</time>
      </trkpt>
      <trkpt lat="48.22454" lon="6.6173">
        <ele>374</ele>
        <time>2025-01-11T14:26:07Z</time>
      </trkpt>
      <trkpt lat="48.22451" lon="6.61717">
        <ele>373.8</ele>
        <time>2025-01-11T14:26:15Z</time>
      </trkpt>
      <trkpt lat="48.22448" lon="6.61703">
        <ele>373.5</ele>
        <time>2025-01-11T14:26:24Z</time>
      </trkpt>
      <trkpt lat="48.22445" lon="6.61689">
        <ele>372.7</ele>
        <time>2025-01-11T14:26:33Z</time>
      </trkpt>
      <trkpt lat="48.22444" lon="6.61674">
        <ele>371.8</ele>
        <time>2025-01-11T14:26:41Z</time>
      </trkpt>
      <trkpt lat="48.22441" lon="6.61661">
        <ele>370.9</ele>
        <time>2025-01-11T14:26:49Z</time>
      </trkpt>
      <trkpt lat="48.22437" lon="6.61648">
        <ele>370.1</ele>
        <time>2025-01-11T14:26:57Z</time>
      </trkpt>
      <trkpt lat="48.22434" lon="6.61633">
        <ele>368.9</ele>
        <time>2025-01-11T14:27:05Z</time>
      </trkpt>
      <trkpt lat="48.2243" lon="6.61619">
        <ele>367.9</ele>
        <time>2025-01-11T14:27:13Z</time>
      </trkpt>
      <trkpt lat="48.22426" lon="6.61605">
        <ele>366.4</ele>
        <time>2025-01-11T14:27:21Z</time>
      </trkpt>
      <trkpt lat="48.22422" lon="6.61592">
        <ele>365.1</ele>
        <time>2025-01-11T14:27:28Z</time>
      </trkpt>
      <trkpt lat="48.22418" lon="6.61579">
        <ele>364</ele>
        <time>2025-01-11T14:27:36Z</time>
      </trkpt>
      <trkpt lat="48.22414" lon="6.61565">
        <ele>363.1</ele>
        <time>2025-01-11T14:27:44Z</time>
      </trkpt>
      <trkpt lat="48.2241" lon="6.61551">
        <ele>362.1</ele>
        <time>2025-01-11T14:27:55Z</time>
      </trkpt>
      <trkpt lat="48.22405" lon="6.61539">
        <ele>360.7</ele>
        <time>2025-01-11T14:28:01Z</time>
      </trkpt>
      <trkpt lat="48.224" lon="6.61526">
        <ele>359.5</ele>
        <time>2025-01-11T14:28:08Z</time>
      </trkpt>
      <trkpt lat="48.22395" lon="6.61514">
        <ele>358.5</ele>
        <time>2025-01-11T14:28:15Z</time>
      </trkpt>
      <trkpt lat="48.2239" lon="6.61502">
        <ele>358.1</ele>
        <time>2025-01-11T14:28:22Z</time>
      </trkpt>
      <trkpt lat="48.22386" lon="6.61489">
        <ele>357.8</ele>
        <time>2025-01-11T14:28:29Z</time>
      </trkpt>
      <trkpt lat="48.22378" lon="6.61481">
        <ele>357.6</ele>
        <time>2025-01-11T14:28:38Z</time>
      </trkpt>
      <trkpt lat="48.22368" lon="6.61478">
        <ele>357.4</ele>
        <time>2025-01-11T14:28:45Z</time>
      </trkpt>
      <trkpt lat="48.22362" lon="6.61466">
        <ele>357.3</ele>
        <time>2025-01-11T14:28:54Z</time>
      </trkpt>
      <trkpt lat="48.22358" lon="6.61452">
        <ele>357.2</ele>
        <time>2025-01-11T14:29:02Z</time>
      </trkpt>
      <trkpt lat="48.22359" lon="6.61438">
        <ele>357.2</ele>
        <time>2025-01-11T14:29:10Z</time>
      </trkpt>
      <trkpt lat="48.22362" lon="6.61425">
        <ele>357.2</ele>
        <time>2025-01-11T14:29:18Z</time>
      </trkpt>
      <trkpt lat="48.22368" lon="6.61413">
        <ele>357.3</ele>
        <time>2025-01-11T14:29:26Z</time>
      </trkpt>
      <trkpt lat="48.22373" lon="6.61402">
        <ele>357.4</ele>
        <time>2025-01-11T14:29:34Z</time>
      </trkpt>
      <trkpt lat="48.2238" lon="6.6139">
        <ele>357.7</ele>
        <time>2025-01-11T14:29:42Z</time>
      </trkpt>
      <trkpt lat="48.22387" lon="6.61381">
        <ele>357.9</ele>
        <time>2025-01-11T14:29:49Z</time>
      </trkpt>
      <trkpt lat="48.22393" lon="6.61369">
        <ele>358.3</ele>
        <time>2025-01-11T14:29:58Z</time>
      </trkpt>
      <trkpt lat="48.22395" lon="6.61354">
        <ele>358.6</ele>
        <time>2025-01-11T14:30:05Z</time>
      </trkpt>
      <trkpt lat="48.22399" lon="6.6134">
        <ele>359</ele>
        <time>2025-01-11T14:30:13Z</time>
      </trkpt>
      <trkpt lat="48.22403" lon="6.61326">
        <ele>359.3</ele>
        <time>2025-01-11T14:30:21Z</time>
      </trkpt>
      <trkpt lat="48.22403" lon="6.61312">
        <ele>359.5</ele>
        <time>2025-01-11T14:30:28Z</time>
      </trkpt>
      <trkpt lat="48.22402" lon="6.61298">
        <ele>359.8</ele>
        <time>2025-01-11T14:30:40Z</time>
      </trkpt>
      <trkpt lat="48.22396" lon="6.61286">
        <ele>360.1</ele>
        <time>2025-01-11T14:30:48Z</time>
      </trkpt>
      <trkpt lat="48.22388" lon="6.61276">
        <ele>360.4</ele>
        <time>2025-01-11T14:30:54Z</time>
      </trkpt>
      <trkpt lat="48.22379" lon="6.61269">
        <ele>360.8</ele>
        <time>2025-01-11T14:31:00Z</time>
      </trkpt>
      <trkpt lat="48.2237" lon="6.61263">
        <ele>361.2</ele>
        <time>2025-01-11T14:31:08Z</time>
      </trkpt>
      <trkpt lat="48.2236" lon="6.61258">
        <ele>361.6</ele>
        <time>2025-01-11T14:31:16Z</time>
      </trkpt>
      <trkpt lat="48.22351" lon="6.61255">
        <ele>362</ele>
        <time>2025-01-11T14:31:23Z</time>
      </trkpt>
      <trkpt lat="48.22343" lon="6.61245">
        <ele>362.4</ele>
        <time>2025-01-11T14:31:32Z</time>
      </trkpt>
      <trkpt lat="48.22336" lon="6.61238">
        <ele>362.8</ele>
        <time>2025-01-11T14:31:39Z</time>
      </trkpt>
      <trkpt lat="48.22328" lon="6.6123">
        <ele>363</ele>
        <time>2025-01-11T14:31:46Z</time>
      </trkpt>
      <trkpt lat="48.2232" lon="6.6122">
        <ele>363.2</ele>
        <time>2025-01-11T14:31:53Z</time>
      </trkpt>
      <trkpt lat="48.22313" lon="6.61211">
        <ele>363.1</ele>
        <time>2025-01-11T14:32:01Z</time>
      </trkpt>
      <trkpt lat="48.22306" lon="6.61201">
        <ele>363</ele>
        <time>2025-01-11T14:32:08Z</time>
      </trkpt>
      <trkpt lat="48.22299" lon="6.61191">
        <ele>362.8</ele>
        <time>2025-01-11T14:32:15Z</time>
      </trkpt>
      <trkpt lat="48.22289" lon="6.61187">
        <ele>362.6</ele>
        <time>2025-01-11T14:32:23Z</time>
      </trkpt>
      <trkpt lat="48.22281" lon="6.61182">
        <ele>362.4</ele>
        <time>2025-01-11T14:32:30Z</time>
      </trkpt>
      <trkpt lat="48.22272" lon="6.61176">
        <ele>362.1</ele>
        <time>2025-01-11T14:32:38Z</time>
      </trkpt>
      <trkpt lat="48.22264" lon="6.6117">
        <ele>361.6</ele>
        <time>2025-01-11T14:32:47Z</time>
      </trkpt>
      <trkpt lat="48.22256" lon="6.6116">
        <ele>361</ele>
        <time>2025-01-11T14:32:55Z</time>
      </trkpt>
      <trkpt lat="48.2225" lon="6.61151">
        <ele>360.5</ele>
        <time>2025-01-11T14:33:02Z</time>
      </trkpt>
      <trkpt lat="48.22242" lon="6.61142">
        <ele>360</ele>
        <time>2025-01-11T14:33:10Z</time>
      </trkpt>
      <trkpt lat="48.22235" lon="6.61132">
        <ele>359.5</ele>
        <time>2025-01-11T14:33:18Z</time>
      </trkpt>
      <trkpt lat="48.22228" lon="6.61123">
        <ele>359.2</ele>
        <time>2025-01-11T14:33:26Z</time>
      </trkpt>
      <trkpt lat="48.2222" lon="6.61114">
        <ele>358.8</ele>
        <time>2025-01-11T14:33:34Z</time>
      </trkpt>
      <trkpt lat="48.22213" lon="6.61105">
        <ele>358.5</ele>
        <time>2025-01-11T14:33:41Z</time>
      </trkpt>
      <trkpt lat="48.22206" lon="6.61097">
        <ele>358.2</ele>
        <time>2025-01-11T14:33:48Z</time>
      </trkpt>
      <trkpt lat="48.22198" lon="6.61087">
        <ele>357.9</ele>
        <time>2025-01-11T14:33:56Z</time>
      </trkpt>
      <trkpt lat="48.2219" lon="6.61079">
        <ele>357.7</ele>
        <time>2025-01-11T14:34:03Z</time>
      </trkpt>
      <trkpt lat="48.22182" lon="6.61071">
        <ele>357.5</ele>
        <time>2025-01-11T14:34:11Z</time>
      </trkpt>
      <trkpt lat="48.22174" lon="6.61064">
        <ele>357.3</ele>
        <time>2025-01-11T14:34:19Z</time>
      </trkpt>
      <trkpt lat="48.22166" lon="6.61056">
        <ele>357.2</ele>
        <time>2025-01-11T14:34:27Z</time>
      </trkpt>
      <trkpt lat="48.22158" lon="6.61049">
        <ele>357.1</ele>
        <time>2025-01-11T14:34:35Z</time>
      </trkpt>
      <trkpt lat="48.22149" lon="6.61042">
        <ele>357</ele>
        <time>2025-01-11T14:34:43Z</time>
      </trkpt>
      <trkpt lat="48.22141" lon="6.61034">
        <ele>357</ele>
        <time>2025-01-11T14:34:51Z</time>
      </trkpt>
      <trkpt lat="48.22133" lon="6.61026">
        <ele>357</ele>
        <time>2025-01-11T14:34:59Z</time>
      </trkpt>
      <trkpt lat="48.22125" lon="6.6102">
        <ele>357</ele>
        <time>2025-01-11T14:35:06Z</time>
      </trkpt>
      <trkpt lat="48.22115" lon="6.6102">
        <ele>356.9</ele>
        <time>2025-01-11T14:35:14Z</time>
      </trkpt>
      <trkpt lat="48.22105" lon="6.61022">
        <ele>356.9</ele>
        <time>2025-01-11T14:35:21Z</time>
      </trkpt>
      <trkpt lat="48.22095" lon="6.61024">
        <ele>356.9</ele>
        <time>2025-01-11T14:35:29Z</time>
      </trkpt>
      <trkpt lat="48.22086" lon="6.61026">
        <ele>357</ele>
        <time>2025-01-11T14:35:36Z</time>
      </trkpt>
      <trkpt lat="48.22077" lon="6.61028">
        <ele>357.1</ele>
        <time>2025-01-11T14:35:43Z</time>
      </trkpt>
      <trkpt lat="48.22068" lon="6.61031">
        <ele>357.2</ele>
        <time>2025-01-11T14:35:50Z</time>
      </trkpt>
      <trkpt lat="48.22059" lon="6.61032">
        <ele>357.3</ele>
        <time>2025-01-11T14:35:57Z</time>
      </trkpt>
      <trkpt lat="48.22049" lon="6.61029">
        <ele>357.5</ele>
        <time>2025-01-11T14:36:04Z</time>
      </trkpt>
      <trkpt lat="48.2204" lon="6.61026">
        <ele>357.6</ele>
        <time>2025-01-11T14:36:12Z</time>
      </trkpt>
      <trkpt lat="48.2203" lon="6.61023">
        <ele>357.7</ele>
        <time>2025-01-11T14:36:20Z</time>
      </trkpt>
      <trkpt lat="48.2202" lon="6.61026">
        <ele>357.8</ele>
        <time>2025-01-11T14:36:27Z</time>
      </trkpt>
      <trkpt lat="48.22018" lon="6.61032">
        <ele>357.9</ele>
        <time>2025-01-11T14:36:35Z</time>
      </trkpt>
      <trkpt lat="48.22016" lon="6.61038">
        <ele>357.9</ele>
        <time>2025-01-11T14:36:43Z</time>
      </trkpt>
      <trkpt lat="48.22014" lon="6.61044">
        <ele>358</ele>
        <time>2025-01-11T14:36:50Z</time>
      </trkpt>
      <trkpt lat="48.22012" lon="6.6105">
        <ele>358.1</ele>
        <time>2025-01-11T14:36:58Z</time>
      </trkpt>
      <trkpt lat="48.2201" lon="6.61056">
        <ele>358.2</ele>
        <time>2025-01-11T14:37:35Z</time>
      </trkpt>
      <trkpt lat="48.22008" lon="6.61062">
        <ele>358.3</ele>
        <time>2025-01-11T14:37:35Z</time>
      </trkpt>
      <trkpt lat="48.22008" lon="6.61062">
        <ele>358.3</ele>
        <time>2025-01-11T14:37:35Z</time>
      </trkpt>
    </trkseg>
  </trk>
</gpx>